Wetterdaten: Mittwoch, 12.10.2016
Datum Zeit Temp. A. Feuchte A. Luftdruck Regen Wind Richtung Richtung Sonnenschein ET UV Solar Taupunkt Windchill Windben Empfang
12.10.2016 00:00 4,9 C 96 % 1015,5 hPa 0,0 l/m 4,1 km/h (1 Bft) W-SW 254 0 min 0,000 mm 0,0 UV-I 0 W/m 4,3 C 4,9 C 6,4 km/h (2 Bft) 95,74 %
12.10.2016 00:02 4,9 C 96 % 1015,5 hPa 0,0 l/m 4,6 km/h (1 Bft) W-SW 254 0 min 0,000 mm 0,0 UV-I 0 W/m 4,3 C 4,9 C 6,4 km/h (2 Bft) 95,12 %
12.10.2016 00:04 4,9 C 96 % 1015,5 hPa 0,0 l/m 4,8 km/h (1 Bft) W-SW 252 0 min 0,000 mm 0,0 UV-I 0 W/m 4,3 C 4,9 C 6,4 km/h (2 Bft) 97,87 %
12.10.2016 00:06 4,9 C 96 % 1015,5 hPa 0,0 l/m 4,1 km/h (1 Bft) W-SW 252 0 min 0,000 mm 0,0 UV-I 0 W/m 4,3 C 4,9 C 4,8 km/h (1 Bft) 95,74 %
12.10.2016 00:08 4,9 C 96 % 1015,5 hPa 0,0 l/m 4,5 km/h (1 Bft) W-SW 254 0 min 0,000 mm 0,0 UV-I 0 W/m 4,3 C 4,9 C 6,4 km/h (2 Bft) 98,00 %
12.10.2016 00:10 5,0 C 96 % 1015,5 hPa 0,0 l/m 3,7 km/h (1 Bft) W-SW 254 0 min 0,000 mm 0,0 UV-I 0 W/m 4,4 C 5,0 C 4,8 km/h (1 Bft) 97,56 %
12.10.2016 00:12 5,0 C 96 % 1015,4 hPa 0,0 l/m 4,7 km/h (1 Bft) W 261 0 min 0,000 mm 0,0 UV-I 0 W/m 4,4 C 5,0 C 6,4 km/h (2 Bft) 98,00 %
12.10.2016 00:14 4,9 C 96 % 1015,5 hPa 0,0 l/m 5,5 km/h (1 Bft) W 259 0 min 0,000 mm 0,0 UV-I 0 W/m 4,3 C 4,9 C 9,7 km/h (2 Bft) 97,62 %
12.10.2016 00:16 5,0 C 96 % 1015,4 hPa 0,0 l/m 4,7 km/h (1 Bft) W-SW 252 0 min 0,000 mm 0,0 UV-I 0 W/m 4,4 C 5,0 C 6,4 km/h (2 Bft) 93,62 %
12.10.2016 00:18 5,0 C 96 % 1015,4 hPa 0,0 l/m 5,7 km/h (1 Bft) W-SW 239 0 min 0,000 mm 0,0 UV-I 0 W/m 4,4 C 5,0 C 8,0 km/h (2 Bft) 96,36 %
12.10.2016 00:20 5,0 C 96 % 1015,4 hPa 0,0 l/m 6,0 km/h (2 Bft) W-SW 251 0 min 0,000 mm 0,0 UV-I 0 W/m 4,4 C 5,0 C 8,0 km/h (2 Bft) 95,83 %
12.10.2016 00:22 5,0 C 96 % 1015,4 hPa 0,0 l/m 6,6 km/h (2 Bft) W-SW 249 0 min 0,000 mm 0,0 UV-I 0 W/m 4,4 C 4,8 C 8,0 km/h (2 Bft) 97,37 %
12.10.2016 00:24 4,9 C 96 % 1015,4 hPa 0,0 l/m 5,5 km/h (1 Bft) W 259 0 min 0,000 mm 0,0 UV-I 0 W/m 4,3 C 4,9 C 9,7 km/h (2 Bft) 98,11 %
12.10.2016 00:26 4,9 C 96 % 1015,4 hPa 0,0 l/m 6,9 km/h (2 Bft) W 262 0 min 0,000 mm 0,0 UV-I 0 W/m 4,3 C 4,5 C 9,7 km/h (2 Bft) 97,37 %
12.10.2016 00:28 4,9 C 96 % 1015,4 hPa 0,0 l/m 5,2 km/h (1 Bft) W 261 0 min 0,000 mm 0,0 UV-I 0 W/m 4,3 C 4,9 C 11,3 km/h (2 Bft) 96,30 %
12.10.2016 00:30 4,9 C 96 % 1015,5 hPa 0,0 l/m 6,4 km/h (2 Bft) W-SW 244 0 min 0,000 mm 0,0 UV-I 0 W/m 4,3 C 4,9 C 9,7 km/h (2 Bft) 97,37 %
12.10.2016 00:32 4,9 C 96 % 1015,5 hPa 0,0 l/m 7,8 km/h (2 Bft) W 264 0 min 0,000 mm 0,0 UV-I 0 W/m 4,3 C 3,7 C 11,3 km/h (2 Bft) 98,11 %
12.10.2016 00:34 4,9 C 96 % 1015,4 hPa 0,0 l/m 7,5 km/h (2 Bft) W-SW 252 0 min 0,000 mm 0,0 UV-I 0 W/m 4,3 C 3,9 C 12,9 km/h (3 Bft) 96,00 %
12.10.2016 00:36 4,9 C 96 % 1015,4 hPa 0,0 l/m 6,2 km/h (2 Bft) SW 236 0 min 0,000 mm 0,0 UV-I 0 W/m 4,3 C 4,9 C 11,3 km/h (2 Bft) 97,87 %
12.10.2016 00:38 4,9 C 96 % 1015,4 hPa 0,0 l/m 7,5 km/h (2 Bft) W-SW 246 0 min 0,000 mm 0,0 UV-I 0 W/m 4,3 C 3,9 C 12,9 km/h (3 Bft) 100,00 %
12.10.2016 00:40 4,9 C 96 % 1015,4 hPa 0,0 l/m 8,6 km/h (2 Bft) W-SW 248 0 min 0,000 mm 0,0 UV-I 0 W/m 4,3 C 3,0 C 12,9 km/h (3 Bft) 100,00 %
12.10.2016 00:42 4,9 C 96 % 1015,4 hPa 0,0 l/m 7,4 km/h (2 Bft) W-SW 250 0 min 0,000 mm 0,0 UV-I 0 W/m 4,3 C 4,0 C 12,9 km/h (3 Bft) 100,00 %
12.10.2016 00:44 4,9 C 96 % 1015,4 hPa 0,0 l/m 6,3 km/h (2 Bft) W-SW 252 0 min 0,000 mm 0,0 UV-I 0 W/m 4,3 C 4,9 C 11,3 km/h (2 Bft) 96,00 %
12.10.2016 00:46 4,9 C 96 % 1015,4 hPa 0,0 l/m 6,0 km/h (2 Bft) W 260 0 min 0,000 mm 0,0 UV-I 0 W/m 4,3 C 4,9 C 9,7 km/h (2 Bft) 97,37 %
12.10.2016 00:48 4,9 C 96 % 1015,4 hPa 0,0 l/m 6,4 km/h (2 Bft) W 263 0 min 0,000 mm 0,0 UV-I 0 W/m 4,3 C 4,9 C 11,3 km/h (2 Bft) 100,00 %
12.10.2016 00:50 4,9 C 96 % 1015,4 hPa 0,0 l/m 4,8 km/h (1 Bft) W-SW 252 0 min 0,000 mm 0,0 UV-I 0 W/m 4,3 C 4,9 C 8,0 km/h (2 Bft) 100,00 %
12.10.2016 00:52 4,9 C 96 % 1015,4 hPa 0,2 l/m 7,0 km/h (2 Bft) W-SW 258 0 min 0,000 mm 0,0 UV-I 0 W/m 4,3 C 4,4 C 11,3 km/h (2 Bft) 100,00 %
12.10.2016 00:54 4,9 C 96 % 1015,5 hPa 0,0 l/m 7,7 km/h (2 Bft) W-SW 256 0 min 0,000 mm 0,0 UV-I 0 W/m 4,3 C 3,8 C 11,3 km/h (2 Bft) 100,00 %
12.10.2016 00:56 4,9 C 96 % 1015,4 hPa 0,0 l/m 5,9 km/h (2 Bft) W-SW 252 0 min 0,000 mm 0,0 UV-I 0 W/m 4,3 C 4,9 C 8,0 km/h (2 Bft) 100,00 %
12.10.2016 00:58 4,9 C 96 % 1015,4 hPa 0,0 l/m 6,4 km/h (2 Bft) W-SW 248 0 min 0,000 mm 0,0 UV-I 0 W/m 4,3 C 4,9 C 11,3 km/h (2 Bft) 100,00 %
12.10.2016 01:00 4,9 C 96 % 1015,4 hPa 0,0 l/m 6,9 km/h (2 Bft) W-SW 243 0 min 0,000 mm 0,0 UV-I 0 W/m 4,3 C 4,5 C 12,9 km/h (3 Bft) 100,00 %
12.10.2016 01:02 4,9 C 96 % 1015,4 hPa 0,0 l/m 6,2 km/h (2 Bft) W-SW 239 0 min 0,000 mm 0,0 UV-I 0 W/m 4,3 C 4,9 C 9,7 km/h (2 Bft) 100,00 %
12.10.2016 01:04 4,9 C 96 % 1015,4 hPa 0,0 l/m 4,1 km/h (1 Bft) W 272 0 min 0,000 mm 0,0 UV-I 0 W/m 4,3 C 4,9 C 4,8 km/h (1 Bft) 100,00 %
12.10.2016 01:06 4,9 C 96 % 1015,4 hPa 0,2 l/m 4,9 km/h (1 Bft) W-SW 254 0 min 0,000 mm 0,0 UV-I 0 W/m 4,3 C 4,9 C 11,3 km/h (2 Bft) 100,00 %
12.10.2016 01:08 4,9 C 96 % 1015,3 hPa 0,0 l/m 5,1 km/h (1 Bft) W-SW 254 0 min 0,000 mm 0,0 UV-I 0 W/m 4,3 C 4,9 C 9,7 km/h (2 Bft) 100,00 %
12.10.2016 01:10 5,0 C 96 % 1015,4 hPa 0,0 l/m 8,0 km/h (2 Bft) W-SW 252 0 min 0,000 mm 0,0 UV-I 0 W/m 4,4 C 3,6 C 12,9 km/h (3 Bft) 97,87 %
12.10.2016 01:12 5,0 C 96 % 1015,4 hPa 0,0 l/m 7,0 km/h (2 Bft) W-SW 249 0 min 0,000 mm 0,0 UV-I 0 W/m 4,4 C 4,5 C 11,3 km/h (2 Bft) 100,00 %
12.10.2016 01:14 4,9 C 96 % 1015,4 hPa 0,2 l/m 6,7 km/h (2 Bft) W 261 0 min 0,000 mm 0,0 UV-I 0 W/m 4,3 C 4,7 C 9,7 km/h (2 Bft) 100,00 %
12.10.2016 01:16 4,9 C 96 % 1015,4 hPa 0,0 l/m 5,2 km/h (1 Bft) W 261 0 min 0,000 mm 0,0 UV-I 0 W/m 4,3 C 4,9 C 8,0 km/h (2 Bft) 98,11 %
12.10.2016 01:18 4,9 C 96 % 1015,4 hPa 0,0 l/m 4,1 km/h (1 Bft) W 263 0 min 0,000 mm 0,0 UV-I 0 W/m 4,3 C 4,9 C 4,8 km/h (1 Bft) 100,00 %
12.10.2016 01:20 5,0 C 96 % 1015,3 hPa 0,2 l/m 4,9 km/h (1 Bft) W-SW 242 0 min 0,000 mm 0,0 UV-I 0 W/m 4,4 C 5,0 C 8,0 km/h (2 Bft) 100,00 %
12.10.2016 01:22 4,9 C 96 % 1015,3 hPa 0,0 l/m 3,5 km/h (1 Bft) W-SW 256 0 min 0,000 mm 0,0 UV-I 0 W/m 4,3 C 4,9 C 6,4 km/h (2 Bft) 100,00 %
12.10.2016 01:24 4,9 C 96 % 1015,3 hPa 0,0 l/m 4,4 km/h (1 Bft) W 263 0 min 0,000 mm 0,0 UV-I 0 W/m 4,3 C 4,9 C 9,7 km/h (2 Bft) 98,11 %
12.10.2016 01:26 4,9 C 96 % 1015,3 hPa 0,2 l/m 7,2 km/h (2 Bft) W-SW 256 0 min 0,000 mm 0,0 UV-I 0 W/m 4,3 C 4,2 C 11,3 km/h (2 Bft) 100,00 %
12.10.2016 01:28 4,9 C 96 % 1015,3 hPa 0,0 l/m 3,4 km/h (1 Bft) W-SW 247 0 min 0,000 mm 0,0 UV-I 0 W/m 4,3 C 4,9 C 6,4 km/h (2 Bft) 100,00 %
12.10.2016 01:30 4,9 C 96 % 1015,3 hPa 0,0 l/m 4,5 km/h (1 Bft) W 261 0 min 0,000 mm 0,0 UV-I 0 W/m 4,3 C 4,9 C 6,4 km/h (2 Bft) 100,00 %
12.10.2016 01:32 4,9 C 96 % 1015,3 hPa 0,2 l/m 2,6 km/h (1 Bft) W 261 0 min 0,000 mm 0,0 UV-I 0 W/m 4,3 C 4,9 C 4,8 km/h (1 Bft) 100,00 %
12.10.2016 01:34 4,9 C 96 % 1015,3 hPa 0,0 l/m 2,8 km/h (1 Bft) W 261 0 min 0,000 mm 0,0 UV-I 0 W/m 4,3 C 4,9 C 4,8 km/h (1 Bft) 100,00 %
12.10.2016 01:36 4,9 C 96 % 1015,3 hPa 0,0 l/m 4,5 km/h (1 Bft) W-SW 250 0 min 0,000 mm 0,0 UV-I 0 W/m 4,3 C 4,9 C 6,4 km/h (2 Bft) 100,00 %
12.10.2016 01:38 5,0 C 96 % 1015,3 hPa 0,0 l/m 6,0 km/h (2 Bft) W-SW 246 0 min 0,000 mm 0,0 UV-I 0 W/m 4,4 C 5,0 C 11,3 km/h (2 Bft) 100,00 %
12.10.2016 01:40 4,9 C 96 % 1015,2 hPa 0,0 l/m 7,4 km/h (2 Bft) W-SW 246 0 min 0,000 mm 0,0 UV-I 0 W/m 4,3 C 4,0 C 14,5 km/h (3 Bft) 100,00 %
12.10.2016 01:42 4,9 C 96 % 1015,3 hPa 0,2 l/m 7,6 km/h (2 Bft) W-SW 250 0 min 0,000 mm 0,0 UV-I 0 W/m 4,3 C 3,8 C 12,9 km/h (3 Bft) 100,00 %
12.10.2016 01:44 4,9 C 96 % 1015,2 hPa 0,0 l/m 6,5 km/h (2 Bft) W 281 0 min 0,000 mm 0,0 UV-I 0 W/m 4,3 C 4,8 C 11,3 km/h (2 Bft) 100,00 %
12.10.2016 01:46 4,9 C 96 % 1015,2 hPa 0,0 l/m 5,3 km/h (1 Bft) W-SW 239 0 min 0,000 mm 0,0 UV-I 0 W/m 4,3 C 4,9 C 9,7 km/h (2 Bft) 100,00 %
12.10.2016 01:48 4,9 C 96 % 1015,2 hPa 0,0 l/m 5,0 km/h (1 Bft) W 261 0 min 0,000 mm 0,0 UV-I 0 W/m 4,3 C 4,9 C 9,7 km/h (2 Bft) 97,37 %
12.10.2016 01:50 4,9 C 96 % 1015,2 hPa 0,2 l/m 5,9 km/h (2 Bft) W-SW 251 0 min 0,000 mm 0,0 UV-I 0 W/m 4,3 C 4,9 C 11,3 km/h (2 Bft) 95,12 %
12.10.2016 01:52 4,9 C 96 % 1015,2 hPa 0,0 l/m 6,1 km/h (2 Bft) W 277 0 min 0,000 mm 0,0 UV-I 0 W/m 4,3 C 4,9 C 11,3 km/h (2 Bft) 100,00 %
12.10.2016 01:54 4,9 C 96 % 1015,3 hPa 0,0 l/m 6,3 km/h (2 Bft) W-SW 248 0 min 0,000 mm 0,0 UV-I 0 W/m 4,3 C 4,9 C 9,7 km/h (2 Bft) 100,00 %
12.10.2016 01:56 5,0 C 96 % 1015,3 hPa 0,0 l/m 6,6 km/h (2 Bft) W 269 0 min 0,000 mm 0,0 UV-I 0 W/m 4,4 C 4,8 C 11,3 km/h (2 Bft) 100,00 %
12.10.2016 01:58 4,9 C 96 % 1015,3 hPa 0,0 l/m 5,7 km/h (1 Bft) W-SW 246 0 min 0,000 mm 0,0 UV-I 0 W/m 4,3 C 4,9 C 12,9 km/h (3 Bft) 100,00 %
12.10.2016 02:00 4,9 C 96 % 1015,3 hPa 0,2 l/m 4,3 km/h (1 Bft) W 259 0 min 0,000 mm 0,0 UV-I 0 W/m 4,3 C 4,9 C 6,4 km/h (2 Bft) 97,37 %
12.10.2016 02:02 4,9 C 97 % 1015,3 hPa 0,0 l/m 4,5 km/h (1 Bft) W-SW 244 0 min 0,000 mm 0,0 UV-I 0 W/m 4,5 C 4,9 C 6,4 km/h (2 Bft) 98,00 %
12.10.2016 02:04 5,0 C 97 % 1015,3 hPa 0,0 l/m 6,0 km/h (2 Bft) W-SW 242 0 min 0,000 mm 0,0 UV-I 0 W/m 4,6 C 5,0 C 11,3 km/h (2 Bft) 96,23 %
12.10.2016 02:06 4,9 C 96 % 1015,3 hPa 0,2 l/m 8,5 km/h (2 Bft) W 259 0 min 0,000 mm 0,0 UV-I 0 W/m 4,3 C 3,1 C 12,9 km/h (3 Bft) 94,74 %
12.10.2016 02:08 4,9 C 96 % 1015,3 hPa 0,0 l/m 6,3 km/h (2 Bft) SW 222 0 min 0,000 mm 0,0 UV-I 0 W/m 4,3 C 4,9 C 9,7 km/h (2 Bft) 94,87 %
12.10.2016 02:10 4,9 C 97 % 1015,3 hPa 0,0 l/m 6,9 km/h (2 Bft) W 270 0 min 0,000 mm 0,0 UV-I 0 W/m 4,5 C 4,5 C 12,9 km/h (3 Bft) 98,36 %
12.10.2016 02:12 4,9 C 97 % 1015,2 hPa 0,2 l/m 7,4 km/h (2 Bft) SW 217 0 min 0,000 mm 0,0 UV-I 0 W/m 4,5 C 4,0 C 12,9 km/h (3 Bft) 95,45 %
12.10.2016 02:14 4,9 C 96 % 1015,2 hPa 0,0 l/m 7,0 km/h (2 Bft) W-SW 250 0 min 0,000 mm 0,0 UV-I 0 W/m 4,3 C 4,4 C 12,9 km/h (3 Bft) 97,62 %
12.10.2016 02:16 4,9 C 96 % 1015,3 hPa 0,2 l/m 8,7 km/h (2 Bft) W-SW 251 0 min 0,000 mm 0,0 UV-I 0 W/m 4,3 C 2,9 C 12,9 km/h (3 Bft) 98,00 %
12.10.2016 02:18 4,9 C 96 % 1015,2 hPa 0,0 l/m 8,4 km/h (2 Bft) W-SW 254 0 min 0,000 mm 0,0 UV-I 0 W/m 4,3 C 3,2 C 12,9 km/h (3 Bft) 97,87 %
12.10.2016 02:20 4,8 C 96 % 1015,2 hPa 0,0 l/m 7,4 km/h (2 Bft) W-SW 252 0 min 0,000 mm 0,0 UV-I 0 W/m 4,2 C 3,9 C 14,5 km/h (3 Bft) 97,87 %
12.10.2016 02:22 4,8 C 96 % 1015,2 hPa 0,2 l/m 8,8 km/h (2 Bft) W-SW 238 0 min 0,000 mm 0,0 UV-I 0 W/m 4,2 C 2,7 C 12,9 km/h (3 Bft) 96,00 %
12.10.2016 02:24 4,8 C 96 % 1015,2 hPa 0,0 l/m 5,7 km/h (1 Bft) W 261 0 min 0,000 mm 0,0 UV-I 0 W/m 4,2 C 4,8 C 11,3 km/h (2 Bft) 97,56 %
12.10.2016 02:26 4,8 C 96 % 1015,2 hPa 0,2 l/m 7,9 km/h (2 Bft) W-SW 250 0 min 0,000 mm 0,0 UV-I 0 W/m 4,2 C 3,5 C 11,3 km/h (2 Bft) 96,43 %
12.10.2016 02:28 4,8 C 96 % 1015,2 hPa 0,0 l/m 8,3 km/h (2 Bft) W-SW 251 0 min 0,000 mm 0,0 UV-I 0 W/m 4,2 C 3,1 C 12,9 km/h (3 Bft) 97,56 %
12.10.2016 02:30 4,7 C 96 % 1015,2 hPa 0,0 l/m 8,8 km/h (2 Bft) W 272 0 min 0,000 mm 0,0 UV-I 0 W/m 4,1 C 2,6 C 14,5 km/h (3 Bft) 97,56 %
12.10.2016 02:32 4,7 C 96 % 1015,2 hPa 0,2 l/m 7,4 km/h (2 Bft) W 262 0 min 0,000 mm 0,0 UV-I 0 W/m 4,1 C 3,8 C 12,9 km/h (3 Bft) 98,00 %
12.10.2016 02:34 4,7 C 96 % 1015,2 hPa 0,0 l/m 10,6 km/h (2 Bft) W-SW 243 0 min 0,000 mm 0,0 UV-I 0 W/m 4,1 C 1,3 C 17,7 km/h (3 Bft) 98,00 %
12.10.2016 02:36 4,7 C 96 % 1015,2 hPa 0,0 l/m 7,6 km/h (2 Bft) W-SW 240 0 min 0,000 mm 0,0 UV-I 0 W/m 4,1 C 3,6 C 14,5 km/h (3 Bft) 100,00 %
12.10.2016 02:38 4,7 C 96 % 1015,2 hPa 0,2 l/m 7,7 km/h (2 Bft) W-NW 292 0 min 0,000 mm 0,0 UV-I 0 W/m 4,1 C 3,5 C 11,3 km/h (2 Bft) 100,00 %
12.10.2016 02:40 4,6 C 96 % 1015,2 hPa 0,0 l/m 5,1 km/h (1 Bft) SW 227 0 min 0,000 mm 0,0 UV-I 0 W/m 4,0 C 4,6 C 8,0 km/h (2 Bft) 98,21 %
12.10.2016 02:42 4,6 C 96 % 1015,2 hPa 0,0 l/m 6,6 km/h (2 Bft) W 260 0 min 0,000 mm 0,0 UV-I 0 W/m 4,0 C 4,4 C 9,7 km/h (2 Bft) 100,00 %
12.10.2016 02:44 4,7 C 96 % 1015,2 hPa 0,0 l/m 7,8 km/h (2 Bft) W-SW 252 0 min 0,000 mm 0,0 UV-I 0 W/m 4,1 C 3,5 C 12,9 km/h (3 Bft) 100,00 %
12.10.2016 02:46 4,6 C 96 % 1015,2 hPa 0,2 l/m 12,7 km/h (3 Bft) SW 236 0 min 0,000 mm 0,0 UV-I 0 W/m 4,0 C -0,1 C 17,7 km/h (3 Bft) 97,87 %
12.10.2016 02:48 4,6 C 96 % 1015,2 hPa 0,0 l/m 7,5 km/h (2 Bft) W-SW 242 0 min 0,000 mm 0,0 UV-I 0 W/m 4,0 C 3,6 C 11,3 km/h (2 Bft) 100,00 %
12.10.2016 02:50 4,6 C 96 % 1015,2 hPa 0,0 l/m 8,5 km/h (2 Bft) W-SW 244 0 min 0,000 mm 0,0 UV-I 0 W/m 4,0 C 2,8 C 14,5 km/h (3 Bft) 100,00 %
12.10.2016 02:52 4,6 C 96 % 1015,2 hPa 0,2 l/m 4,9 km/h (1 Bft) W 263 0 min 0,000 mm 0,0 UV-I 0 W/m 4,0 C 4,6 C 9,7 km/h (2 Bft) 100,00 %
12.10.2016 02:54 4,7 C 96 % 1015,2 hPa 0,0 l/m 6,5 km/h (2 Bft) W-SW 240 0 min 0,000 mm 0,0 UV-I 0 W/m 4,1 C 4,6 C 9,7 km/h (2 Bft) 92,31 %
12.10.2016 02:56 4,7 C 96 % 1015,2 hPa 0,0 l/m 7,5 km/h (2 Bft) W-SW 240 0 min 0,000 mm 0,0 UV-I 0 W/m 4,1 C 3,7 C 11,3 km/h (2 Bft) 100,00 %
12.10.2016 02:58 4,7 C 96 % 1015,1 hPa 0,2 l/m 9,0 km/h (2 Bft) W-SW 252 0 min 0,000 mm 0,0 UV-I 0 W/m 4,1 C 2,5 C 14,5 km/h (3 Bft) 97,92 %
12.10.2016 03:00 4,7 C 95 % 1015,1 hPa 0,0 l/m 5,7 km/h (1 Bft) S-SW 194 0 min 0,000 mm 0,0 UV-I 0 W/m 4,0 C 4,7 C 9,7 km/h (2 Bft) 100,00 %
12.10.2016 03:02 4,7 C 95 % 1015,1 hPa 0,0 l/m 6,7 km/h (2 Bft) W-SW 240 0 min 0,000 mm 0,0 UV-I 0 W/m 4,0 C 4,4 C 11,3 km/h (2 Bft) 100,00 %
12.10.2016 03:04 4,7 C 95 % 1015,1 hPa 0,2 l/m 6,0 km/h (2 Bft) W 272 0 min 0,000 mm 0,0 UV-I 0 W/m 4,0 C 4,7 C 9,7 km/h (2 Bft) 100,00 %
12.10.2016 03:06 4,7 C 95 % 1015,1 hPa 0,0 l/m 6,2 km/h (2 Bft) W-SW 248 0 min 0,000 mm 0,0 UV-I 0 W/m 4,0 C 4,7 C 11,3 km/h (2 Bft) 98,00 %
12.10.2016 03:08 4,7 C 95 % 1015,1 hPa 0,0 l/m 6,8 km/h (2 Bft) W-SW 246 0 min 0,000 mm 0,0 UV-I 0 W/m 4,0 C 4,4 C 11,3 km/h (2 Bft) 100,00 %
12.10.2016 03:10 4,7 C 96 % 1015,1 hPa 0,0 l/m 7,0 km/h (2 Bft) W-SW 252 0 min 0,000 mm 0,0 UV-I 0 W/m 4,1 C 4,2 C 11,3 km/h (2 Bft) 100,00 %
12.10.2016 03:12 4,6 C 96 % 1015,1 hPa 0,0 l/m 12,8 km/h (3 Bft) W-SW 257 0 min 0,000 mm 0,0 UV-I 0 W/m 4,0 C -0,2 C 16,1 km/h (3 Bft) 100,00 %
12.10.2016 03:14 4,6 C 96 % 1015,1 hPa 0,2 l/m 10,2 km/h (2 Bft) W-SW 240 0 min 0,000 mm 0,0 UV-I 0 W/m 4,0 C 1,5 C 16,1 km/h (3 Bft) 97,87 %
12.10.2016 03:16 4,6 C 96 % 1015,0 hPa 0,0 l/m 8,6 km/h (2 Bft) W-SW 255 0 min 0,000 mm 0,0 UV-I 0 W/m 4,0 C 2,7 C 14,5 km/h (3 Bft) 98,11 %
12.10.2016 03:18 4,7 C 96 % 1015,1 hPa 0,0 l/m 8,9 km/h (2 Bft) W-SW 248 0 min 0,000 mm 0,0 UV-I 0 W/m 4,1 C 2,6 C 12,9 km/h (3 Bft) 97,87 %
12.10.2016 03:20 4,7 C 96 % 1015,1 hPa 0,0 l/m 9,3 km/h (2 Bft) W-SW 241 0 min 0,000 mm 0,0 UV-I 0 W/m 4,1 C 2,3 C 14,5 km/h (3 Bft) 100,00 %
12.10.2016 03:22 4,7 C 96 % 1015,0 hPa 0,2 l/m 11,9 km/h (2 Bft) W-SW 246 0 min 0,000 mm 0,0 UV-I 0 W/m 4,1 C 0,5 C 16,1 km/h (3 Bft) 100,00 %
12.10.2016 03:24 4,7 C 95 % 1015,0 hPa 0,0 l/m 11,0 km/h (2 Bft) W-SW 257 0 min 0,000 mm 0,0 UV-I 0 W/m 4,0 C 1,1 C 17,7 km/h (3 Bft) 96,23 %
12.10.2016 03:26 4,7 C 95 % 1015,0 hPa 0,0 l/m 9,7 km/h (2 Bft) W-SW 252 0 min 0,000 mm 0,0 UV-I 0 W/m 4,0 C 2,0 C 14,5 km/h (3 Bft) 100,00 %
12.10.2016 03:28 4,7 C 95 % 1015,0 hPa 0,0 l/m 10,2 km/h (2 Bft) W-SW 251 0 min 0,000 mm 0,0 UV-I 0 W/m 4,0 C 1,6 C 14,5 km/h (3 Bft) 100,00 %
12.10.2016 03:30 4,7 C 95 % 1015,0 hPa 0,0 l/m 9,0 km/h (2 Bft) W-SW 253 0 min 0,000 mm 0,0 UV-I 0 W/m 4,0 C 2,5 C 14,5 km/h (3 Bft) 100,00 %
12.10.2016 03:32 4,7 C 95 % 1015,0 hPa 0,2 l/m 10,1 km/h (2 Bft) W 261 0 min 0,000 mm 0,0 UV-I 0 W/m 4,0 C 1,7 C 16,1 km/h (3 Bft) 100,00 %
12.10.2016 03:34 4,7 C 95 % 1015,0 hPa 0,0 l/m 10,0 km/h (2 Bft) W-SW 252 0 min 0,000 mm 0,0 UV-I 0 W/m 4,0 C 1,7 C 14,5 km/h (3 Bft) 97,73 %
12.10.2016 03:36 4,7 C 95 % 1015,0 hPa 0,0 l/m 8,5 km/h (2 Bft) W 269 0 min 0,000 mm 0,0 UV-I 0 W/m 4,0 C 2,9 C 12,9 km/h (3 Bft) 100,00 %
12.10.2016 03:38 4,7 C 95 % 1014,9 hPa 0,2 l/m 10,2 km/h (2 Bft) W 260 0 min 0,000 mm 0,0 UV-I 0 W/m 4,0 C 1,6 C 16,1 km/h (3 Bft) 100,00 %
12.10.2016 03:40 4,7 C 95 % 1014,9 hPa 0,0 l/m 10,6 km/h (2 Bft) W-SW 242 0 min 0,000 mm 0,0 UV-I 0 W/m 4,0 C 1,3 C 14,5 km/h (3 Bft) 100,00 %
12.10.2016 03:42 4,7 C 95 % 1014,9 hPa 0,0 l/m 8,7 km/h (2 Bft) W-SW 246 0 min 0,000 mm 0,0 UV-I 0 W/m 4,0 C 2,7 C 14,5 km/h (3 Bft) 100,00 %
12.10.2016 03:44 4,7 C 96 % 1014,9 hPa 0,0 l/m 8,8 km/h (2 Bft) W-SW 242 0 min 0,000 mm 0,0 UV-I 0 W/m 4,1 C 2,6 C 12,9 km/h (3 Bft) 100,00 %
12.10.2016 03:46 4,7 C 96 % 1014,9 hPa 0,0 l/m 9,1 km/h (2 Bft) W-SW 244 0 min 0,000 mm 0,0 UV-I 0 W/m 4,1 C 2,4 C 14,5 km/h (3 Bft) 95,74 %
12.10.2016 03:48 4,7 C 96 % 1014,9 hPa 0,2 l/m 8,2 km/h (2 Bft) W 261 0 min 0,000 mm 0,0 UV-I 0 W/m 4,1 C 3,1 C 11,3 km/h (2 Bft) 100,00 %
12.10.2016 03:50 4,6 C 96 % 1014,9 hPa 0,0 l/m 10,7 km/h (2 Bft) W-SW 248 0 min 0,000 mm 0,0 UV-I 0 W/m 4,0 C 1,1 C 17,7 km/h (3 Bft) 100,00 %
12.10.2016 03:52 4,6 C 96 % 1014,9 hPa 0,0 l/m 8,6 km/h (2 Bft) W-SW 249 0 min 0,000 mm 0,0 UV-I 0 W/m 4,0 C 2,7 C 12,9 km/h (3 Bft) 100,00 %
12.10.2016 03:54 4,7 C 96 % 1014,9 hPa 0,0 l/m 10,0 km/h (2 Bft) W 265 0 min 0,000 mm 0,0 UV-I 0 W/m 4,1 C 1,7 C 16,1 km/h (3 Bft) 100,00 %
12.10.2016 03:56 4,7 C 96 % 1014,9 hPa 0,0 l/m 8,1 km/h (2 Bft) W-SW 249 0 min 0,000 mm 0,0 UV-I 0 W/m 4,1 C 3,2 C 12,9 km/h (3 Bft) 100,00 %
12.10.2016 03:58 4,7 C 96 % 1014,9 hPa 0,2 l/m 8,7 km/h (2 Bft) W-SW 248 0 min 0,000 mm 0,0 UV-I 0 W/m 4,1 C 2,7 C 12,9 km/h (3 Bft) 100,00 %
12.10.2016 04:00 4,6 C 96 % 1015,0 hPa 0,0 l/m 8,4 km/h (2 Bft) SW 224 0 min 0,000 mm 0,0 UV-I 0 W/m 4,0 C 2,9 C 12,9 km/h (3 Bft) 100,00 %
12.10.2016 04:02 4,7 C 96 % 1014,9 hPa 0,0 l/m 7,6 km/h (2 Bft) W-SW 250 0 min 0,000 mm 0,0 UV-I 0 W/m 4,1 C 3,6 C 12,9 km/h (3 Bft) 100,00 %
12.10.2016 04:04 4,7 C 96 % 1014,9 hPa 0,0 l/m 8,0 km/h (2 Bft) W-SW 252 0 min 0,000 mm 0,0 UV-I 0 W/m 4,1 C 3,3 C 12,9 km/h (3 Bft) 97,14 %
12.10.2016 04:06 4,6 C 96 % 1014,9 hPa 0,2 l/m 6,9 km/h (2 Bft) W-SW 237 0 min 0,000 mm 0,0 UV-I 0 W/m 4,0 C 4,2 C 11,3 km/h (2 Bft) 97,56 %
12.10.2016 04:08 4,6 C 96 % 1014,9 hPa 0,0 l/m 7,8 km/h (2 Bft) W-SW 242 0 min 0,000 mm 0,0 UV-I 0 W/m 4,0 C 3,4 C 11,3 km/h (2 Bft) 96,23 %
12.10.2016 04:10 4,6 C 96 % 1014,9 hPa 0,0 l/m 9,0 km/h (2 Bft) W-SW 246 0 min 0,000 mm 0,0 UV-I 0 W/m 4,0 C 2,4 C 11,3 km/h (2 Bft) 95,12 %
12.10.2016 04:12 4,6 C 96 % 1014,9 hPa 0,0 l/m 8,5 km/h (2 Bft) W-SW 238 0 min 0,000 mm 0,0 UV-I 0 W/m 4,0 C 2,8 C 12,9 km/h (3 Bft) 98,00 %
12.10.2016 04:14 4,6 C 96 % 1014,9 hPa 0,0 l/m 8,6 km/h (2 Bft) W-SW 240 0 min 0,000 mm 0,0 UV-I 0 W/m 4,0 C 2,7 C 12,9 km/h (3 Bft) 97,44 %
12.10.2016 04:16 4,6 C 96 % 1014,9 hPa 0,2 l/m 8,3 km/h (2 Bft) W-SW 243 0 min 0,000 mm 0,0 UV-I 0 W/m 4,0 C 2,9 C 12,9 km/h (3 Bft) 98,11 %
12.10.2016 04:18 4,6 C 96 % 1014,9 hPa 0,0 l/m 10,0 km/h (2 Bft) S-SW 207 0 min 0,000 mm 0,0 UV-I 0 W/m 4,0 C 1,6 C 16,1 km/h (3 Bft) 97,56 %
12.10.2016 04:20 4,6 C 96 % 1014,9 hPa 0,0 l/m 6,7 km/h (2 Bft) W-SW 240 0 min 0,000 mm 0,0 UV-I 0 W/m 4,0 C 4,3 C 9,7 km/h (2 Bft) 96,23 %
12.10.2016 04:22 4,6 C 96 % 1014,9 hPa 0,0 l/m 7,5 km/h (2 Bft) W-SW 248 0 min 0,000 mm 0,0 UV-I 0 W/m 4,0 C 3,6 C 11,3 km/h (2 Bft) 97,37 %
12.10.2016 04:24 4,6 C 96 % 1014,9 hPa 0,0 l/m 6,6 km/h (2 Bft) W-SW 247 0 min 0,000 mm 0,0 UV-I 0 W/m 4,0 C 4,4 C 11,3 km/h (2 Bft) 96,30 %
12.10.2016 04:26 4,6 C 96 % 1014,9 hPa 0,0 l/m 9,0 km/h (2 Bft) W 264 0 min 0,000 mm 0,0 UV-I 0 W/m 4,0 C 2,4 C 16,1 km/h (3 Bft) 98,11 %
12.10.2016 04:28 4,6 C 96 % 1014,9 hPa 0,0 l/m 7,5 km/h (2 Bft) SW 221 0 min 0,000 mm 0,0 UV-I 0 W/m 4,0 C 3,6 C 11,3 km/h (2 Bft) 97,37 %
12.10.2016 04:30 4,7 C 96 % 1014,9 hPa 0,2 l/m 8,8 km/h (2 Bft) SW 230 0 min 0,000 mm 0,0 UV-I 0 W/m 4,1 C 2,6 C 14,5 km/h (3 Bft) 100,00 %
12.10.2016 04:32 4,6 C 96 % 1014,9 hPa 0,0 l/m 8,9 km/h (2 Bft) SW 234 0 min 0,000 mm 0,0 UV-I 0 W/m 4,0 C 2,5 C 12,9 km/h (3 Bft) 97,87 %
12.10.2016 04:34 4,6 C 96 % 1014,9 hPa 0,0 l/m 9,5 km/h (2 Bft) W-SW 252 0 min 0,000 mm 0,0 UV-I 0 W/m 4,0 C 2,0 C 14,5 km/h (3 Bft) 98,00 %
12.10.2016 04:36 4,6 C 96 % 1014,9 hPa 0,2 l/m 10,3 km/h (2 Bft) SW 220 0 min 0,000 mm 0,0 UV-I 0 W/m 4,0 C 1,4 C 14,5 km/h (3 Bft) 94,74 %
12.10.2016 04:38 4,6 C 96 % 1014,9 hPa 0,0 l/m 10,1 km/h (2 Bft) SW 228 0 min 0,000 mm 0,0 UV-I 0 W/m 4,0 C 1,6 C 12,9 km/h (3 Bft) 96,43 %
12.10.2016 04:40 4,6 C 96 % 1014,9 hPa 0,0 l/m 10,1 km/h (2 Bft) S-SW 211 0 min 0,000 mm 0,0 UV-I 0 W/m 4,0 C 1,6 C 14,5 km/h (3 Bft) 100,00 %
12.10.2016 04:42 4,6 C 96 % 1014,8 hPa 0,0 l/m 8,5 km/h (2 Bft) S-SW 198 0 min 0,000 mm 0,0 UV-I 0 W/m 4,0 C 2,8 C 12,9 km/h (3 Bft) 100,00 %
12.10.2016 04:44 4,6 C 96 % 1014,9 hPa 0,0 l/m 9,6 km/h (2 Bft) SW 236 0 min 0,000 mm 0,0 UV-I 0 W/m 4,0 C 1,9 C 16,1 km/h (3 Bft) 100,00 %
12.10.2016 04:46 4,6 C 96 % 1014,9 hPa 0,2 l/m 11,6 km/h (2 Bft) W-SW 247 0 min 0,000 mm 0,0 UV-I 0 W/m 4,0 C 0,5 C 16,1 km/h (3 Bft) 97,56 %
12.10.2016 04:48 4,6 C 96 % 1014,9 hPa 0,0 l/m 8,4 km/h (2 Bft) W-SW 245 0 min 0,000 mm 0,0 UV-I 0 W/m 4,0 C 2,9 C 14,5 km/h (3 Bft) 100,00 %
12.10.2016 04:50 4,6 C 96 % 1014,9 hPa 0,0 l/m 11,0 km/h (2 Bft) SW 234 0 min 0,000 mm 0,0 UV-I 0 W/m 4,0 C 0,9 C 17,7 km/h (3 Bft) 98,00 %
12.10.2016 04:53 4,6 C 96 % 1014,8 hPa 0,0 l/m 8,7 km/h (2 Bft) W 263 0 min 0,000 mm 0,0 UV-I 0 W/m 4,0 C 2,6 C 12,9 km/h (3 Bft) 97,18 %
12.10.2016 04:54 4,6 C 96 % 1014,9 hPa 0,0 l/m 12,2 km/h (2 Bft) SW 220 0 min 0,000 mm 0,0 UV-I 0 W/m 4,0 C 0,2 C 17,7 km/h (3 Bft) 100,00 %
12.10.2016 04:56 4,6 C 96 % 1014,9 hPa 0,0 l/m 8,5 km/h (2 Bft) W-SW 247 0 min 0,000 mm 0,0 UV-I 0 W/m 4,0 C 2,8 C 14,5 km/h (3 Bft) 97,44 %
12.10.2016 04:58 4,6 C 96 % 1014,9 hPa 0,0 l/m 9,1 km/h (2 Bft) W-SW 257 0 min 0,000 mm 0,0 UV-I 0 W/m 4,0 C 2,3 C 14,5 km/h (3 Bft) 100,00 %
12.10.2016 05:00 4,6 C 96 % 1014,9 hPa 0,2 l/m 9,4 km/h (2 Bft) SW 230 0 min 0,000 mm 0,0 UV-I 0 W/m 4,0 C 2,1 C 14,5 km/h (3 Bft) 100,00 %
12.10.2016 05:02 4,6 C 96 % 1014,9 hPa 0,0 l/m 12,3 km/h (3 Bft) W-SW 246 0 min 0,000 mm 0,0 UV-I 0 W/m 4,0 C 0,1 C 17,7 km/h (3 Bft) 100,00 %
12.10.2016 05:04 4,6 C 96 % 1014,9 hPa 0,0 l/m 8,9 km/h (2 Bft) S-SW 213 0 min 0,000 mm 0,0 UV-I 0 W/m 4,0 C 2,5 C 14,5 km/h (3 Bft) 97,37 %
12.10.2016 05:06 4,6 C 96 % 1014,9 hPa 0,0 l/m 11,5 km/h (2 Bft) SW 220 0 min 0,000 mm 0,0 UV-I 0 W/m 4,0 C 0,6 C 19,3 km/h (3 Bft) 100,00 %
12.10.2016 05:08 4,6 C 96 % 1014,9 hPa 0,0 l/m 11,3 km/h (2 Bft) W-SW 257 0 min 0,000 mm 0,0 UV-I 0 W/m 4,0 C 0,7 C 16,1 km/h (3 Bft) 100,00 %
12.10.2016 05:10 4,6 C 96 % 1014,9 hPa 0,0 l/m 10,0 km/h (2 Bft) SW 233 0 min 0,000 mm 0,0 UV-I 0 W/m 4,0 C 1,6 C 16,1 km/h (3 Bft) 98,39 %
12.10.2016 05:12 4,6 C 96 % 1014,9 hPa 0,2 l/m 11,6 km/h (2 Bft) SW 235 0 min 0,000 mm 0,0 UV-I 0 W/m 4,0 C 0,5 C 16,1 km/h (3 Bft) 100,00 %
12.10.2016 05:14 4,6 C 96 % 1014,9 hPa 0,0 l/m 10,6 km/h (2 Bft) W-SW 248 0 min 0,000 mm 0,0 UV-I 0 W/m 4,0 C 1,2 C 17,7 km/h (3 Bft) 100,00 %
12.10.2016 05:16 4,6 C 96 % 1014,9 hPa 0,0 l/m 9,4 km/h (2 Bft) SW 235 0 min 0,000 mm 0,0 UV-I 0 W/m 4,0 C 2,1 C 14,5 km/h (3 Bft) 100,00 %
12.10.2016 05:18 4,7 C 96 % 1014,9 hPa 0,0 l/m 10,8 km/h (2 Bft) W-SW 244 0 min 0,000 mm 0,0 UV-I 0 W/m 4,1 C 1,2 C 16,1 km/h (3 Bft) 100,00 %
12.10.2016 05:20 4,6 C 96 % 1014,9 hPa 0,2 l/m 10,3 km/h (2 Bft) SW 232 0 min 0,000 mm 0,0 UV-I 0 W/m 4,0 C 1,4 C 16,1 km/h (3 Bft) 100,00 %
12.10.2016 05:22 4,6 C 96 % 1014,9 hPa 0,0 l/m 10,2 km/h (2 Bft) W-SW 246 0 min 0,000 mm 0,0 UV-I 0 W/m 4,0 C 1,5 C 17,7 km/h (3 Bft) 100,00 %
12.10.2016 05:24 4,7 C 96 % 1014,9 hPa 0,0 l/m 8,9 km/h (2 Bft) SW 236 0 min 0,000 mm 0,0 UV-I 0 W/m 4,1 C 2,6 C 14,5 km/h (3 Bft) 100,00 %
12.10.2016 05:26 4,6 C 96 % 1014,9 hPa 0,0 l/m 10,5 km/h (2 Bft) SW 236 0 min 0,000 mm 0,0 UV-I 0 W/m 4,0 C 1,3 C 16,1 km/h (3 Bft) 100,00 %
12.10.2016 05:28 4,6 C 96 % 1014,9 hPa 0,2 l/m 14,5 km/h (3 Bft) W-SW 240 0 min 0,000 mm 0,0 UV-I 0 W/m 4,0 C -1,1 C 19,3 km/h (3 Bft) 97,22 %
12.10.2016 05:30 4,6 C 96 % 1014,9 hPa 0,0 l/m 14,2 km/h (3 Bft) W-SW 238 0 min 0,000 mm 0,0 UV-I 0 W/m 4,0 C -1,0 C 19,3 km/h (3 Bft) 100,00 %
12.10.2016 05:32 4,6 C 96 % 1014,9 hPa 0,0 l/m 15,8 km/h (3 Bft) SW 232 0 min 0,000 mm 0,0 UV-I 0 W/m 4,0 C -1,8 C 20,9 km/h (4 Bft) 100,00 %
12.10.2016 05:34 4,6 C 96 % 1014,9 hPa 0,0 l/m 13,6 km/h (3 Bft) W-SW 248 0 min 0,000 mm 0,0 UV-I 0 W/m 4,0 C -0,7 C 22,5 km/h (4 Bft) 100,00 %
12.10.2016 05:36 4,6 C 96 % 1014,9 hPa 0,0 l/m 15,1 km/h (3 Bft) SW 232 0 min 0,000 mm 0,0 UV-I 0 W/m 4,0 C -1,5 C 19,3 km/h (3 Bft) 100,00 %
12.10.2016 05:38 4,6 C 96 % 1014,9 hPa 0,0 l/m 10,6 km/h (2 Bft) W-SW 237 0 min 0,000 mm 0,0 UV-I 0 W/m 4,0 C 1,2 C 16,1 km/h (3 Bft) 98,00 %
12.10.2016 05:40 4,6 C 96 % 1014,9 hPa 0,2 l/m 13,5 km/h (3 Bft) SW 233 0 min 0,000 mm 0,0 UV-I 0 W/m 4,0 C -0,6 C 20,9 km/h (4 Bft) 100,00 %
12.10.2016 05:42 4,6 C 96 % 1014,9 hPa 0,0 l/m 13,7 km/h (3 Bft) SW 228 0 min 0,000 mm 0,0 UV-I 0 W/m 4,0 C -0,7 C 20,9 km/h (4 Bft) 97,87 %
12.10.2016 05:44 4,6 C 96 % 1014,9 hPa 0,0 l/m 13,4 km/h (3 Bft) W-SW 237 0 min 0,000 mm 0,0 UV-I 0 W/m 4,0 C -0,5 C 19,3 km/h (3 Bft) 100,00 %
12.10.2016 05:46 4,7 C 96 % 1014,9 hPa 0,0 l/m 12,3 km/h (3 Bft) SW 229 0 min 0,000 mm 0,0 UV-I 0 W/m 4,1 C 0,2 C 17,7 km/h (3 Bft) 100,00 %
12.10.2016 05:48 4,7 C 96 % 1015,0 hPa 0,0 l/m 14,7 km/h (3 Bft) SW 235 0 min 0,000 mm 0,0 UV-I 0 W/m 4,1 C -1,1 C 19,3 km/h (3 Bft) 100,00 %
12.10.2016 05:50 4,6 C 96 % 1014,9 hPa 0,0 l/m 10,3 km/h (2 Bft) W 262 0 min 0,000 mm 0,0 UV-I 0 W/m 4,0 C 1,4 C 14,5 km/h (3 Bft) 100,00 %
12.10.2016 05:52 4,7 C 96 % 1015,0 hPa 0,0 l/m 10,2 km/h (2 Bft) W-SW 244 0 min 0,000 mm 0,0 UV-I 0 W/m 4,1 C 1,6 C 19,3 km/h (3 Bft) 100,00 %
12.10.2016 05:54 4,7 C 96 % 1014,9 hPa 0,0 l/m 11,6 km/h (2 Bft) SW 219 0 min 0,000 mm 0,0 UV-I 0 W/m 4,1 C 0,7 C 19,3 km/h (3 Bft) 100,00 %
12.10.2016 05:56 4,7 C 96 % 1014,9 hPa 0,0 l/m 12,2 km/h (2 Bft) SW 223 0 min 0,000 mm 0,0 UV-I 0 W/m 4,1 C 0,3 C 17,7 km/h (3 Bft) 100,00 %
12.10.2016 05:58 4,7 C 96 % 1014,9 hPa 0,0 l/m 10,8 km/h (2 Bft) SW 221 0 min 0,000 mm 0,0 UV-I 0 W/m 4,1 C 1,2 C 16,1 km/h (3 Bft) 97,87 %
12.10.2016 06:00 4,7 C 96 % 1015,0 hPa 0,0 l/m 11,0 km/h (2 Bft) SW 216 0 min 0,000 mm 0,0 UV-I 0 W/m 4,1 C 1,1 C 17,7 km/h (3 Bft) 98,21 %
12.10.2016 06:02 4,7 C 96 % 1015,0 hPa 0,0 l/m 12,2 km/h (2 Bft) W 277 0 min 0,000 mm 0,0 UV-I 0 W/m 4,1 C 0,3 C 19,3 km/h (3 Bft) 100,00 %
12.10.2016 06:04 4,7 C 96 % 1015,0 hPa 0,0 l/m 12,3 km/h (3 Bft) SW 232 0 min 0,000 mm 0,0 UV-I 0 W/m 4,1 C 0,2 C 19,3 km/h (3 Bft) 100,00 %
12.10.2016 06:06 4,7 C 96 % 1015,0 hPa 0,0 l/m 10,1 km/h (2 Bft) S-SW 208 0 min 0,000 mm 0,0 UV-I 0 W/m 4,1 C 1,7 C 14,5 km/h (3 Bft) 94,34 %
12.10.2016 06:08 4,7 C 96 % 1014,9 hPa 0,0 l/m 10,1 km/h (2 Bft) W-SW 248 0 min 0,000 mm 0,0 UV-I 0 W/m 4,1 C 1,7 C 16,1 km/h (3 Bft) 98,11 %
12.10.2016 06:10 4,7 C 96 % 1015,0 hPa 0,0 l/m 9,0 km/h (2 Bft) W-SW 250 0 min 0,000 mm 0,0 UV-I 0 W/m 4,1 C 2,5 C 16,1 km/h (3 Bft) 94,87 %
12.10.2016 06:12 4,7 C 96 % 1015,0 hPa 0,0 l/m 9,2 km/h (2 Bft) S-SW 211 0 min 0,000 mm 0,0 UV-I 0 W/m 4,1 C 2,3 C 12,9 km/h (3 Bft) 96,00 %
12.10.2016 06:14 4,7 C 96 % 1015,0 hPa 0,0 l/m 11,5 km/h (2 Bft) SW 235 0 min 0,000 mm 0,0 UV-I 0 W/m 4,1 C 0,7 C 17,7 km/h (3 Bft) 97,73 %
12.10.2016 06:16 4,7 C 96 % 1015,0 hPa 0,0 l/m 11,3 km/h (2 Bft) W-SW 254 0 min 0,000 mm 0,0 UV-I 0 W/m 4,1 C 0,9 C 19,3 km/h (3 Bft) 98,00 %
12.10.2016 06:18 4,7 C 96 % 1015,0 hPa 0,0 l/m 13,6 km/h (3 Bft) W-SW 246 0 min 0,000 mm 0,0 UV-I 0 W/m 4,1 C -0,5 C 20,9 km/h (4 Bft) 97,56 %
12.10.2016 06:20 4,7 C 96 % 1015,0 hPa 0,0 l/m 10,4 km/h (2 Bft) SW 235 0 min 0,000 mm 0,0 UV-I 0 W/m 4,1 C 1,5 C 16,1 km/h (3 Bft) 96,23 %
12.10.2016 06:22 4,7 C 96 % 1015,1 hPa 0,0 l/m 10,1 km/h (2 Bft) SW 226 0 min 0,000 mm 0,0 UV-I 0 W/m 4,1 C 1,7 C 16,1 km/h (3 Bft) 96,00 %
12.10.2016 06:24 4,7 C 96 % 1015,1 hPa 0,0 l/m 12,3 km/h (3 Bft) W-SW 257 0 min 0,000 mm 0,0 UV-I 0 W/m 4,1 C 0,2 C 17,7 km/h (3 Bft) 97,73 %
12.10.2016 06:26 4,7 C 96 % 1015,1 hPa 0,0 l/m 13,4 km/h (3 Bft) SW 233 0 min 0,000 mm 0,0 UV-I 0 W/m 4,1 C -0,4 C 19,3 km/h (3 Bft) 98,00 %
12.10.2016 06:28 4,7 C 96 % 1015,1 hPa 0,0 l/m 11,4 km/h (2 Bft) SW 214 0 min 0,000 mm 0,0 UV-I 0 W/m 4,1 C 0,8 C 19,3 km/h (3 Bft) 97,37 %
12.10.2016 06:30 4,7 C 96 % 1015,1 hPa 0,0 l/m 7,9 km/h (2 Bft) SW 227 0 min 0,000 mm 0,0 UV-I 0 W/m 4,1 C 3,4 C 11,3 km/h (2 Bft) 96,00 %
12.10.2016 06:32 4,7 C 96 % 1015,1 hPa 0,2 l/m 11,6 km/h (2 Bft) W-SW 246 0 min 0,000 mm 0,0 UV-I 0 W/m 4,1 C 0,7 C 17,7 km/h (3 Bft) 98,00 %
12.10.2016 06:34 4,7 C 96 % 1015,1 hPa 0,0 l/m 8,9 km/h (2 Bft) SW 236 0 min 0,000 mm 0,0 UV-I 0 W/m 4,1 C 2,6 C 12,9 km/h (3 Bft) 97,37 %
12.10.2016 06:36 4,7 C 96 % 1015,0 hPa 0,0 l/m 11,0 km/h (2 Bft) SW 229 0 min 0,000 mm 0,0 UV-I 0 W/m 4,1 C 1,1 C 17,7 km/h (3 Bft) 98,21 %
12.10.2016 06:38 4,7 C 96 % 1015,0 hPa 0,0 l/m 14,0 km/h (3 Bft) W 264 0 min 0,000 mm 0,0 UV-I 0 W/m 4,1 C -0,8 C 22,5 km/h (4 Bft) 97,37 %
12.10.2016 06:40 4,7 C 96 % 1015,1 hPa 0,0 l/m 13,3 km/h (3 Bft) W-SW 243 0 min 0,000 mm 0,0 UV-I 0 W/m 4,1 C -0,4 C 19,3 km/h (3 Bft) 98,11 %
12.10.2016 06:42 4,7 C 96 % 1015,0 hPa 0,0 l/m 10,1 km/h (2 Bft) W-SW 239 0 min 0,000 mm 0,0 UV-I 0 W/m 4,1 C 1,7 C 14,5 km/h (3 Bft) 96,00 %
12.10.2016 06:44 4,7 C 96 % 1015,0 hPa 0,0 l/m 11,3 km/h (2 Bft) W-SW 238 0 min 0,000 mm 0,0 UV-I 0 W/m 4,1 C 0,9 C 16,1 km/h (3 Bft) 100,00 %
12.10.2016 06:46 4,7 C 96 % 1015,1 hPa 0,0 l/m 8,6 km/h (2 Bft) SW 217 0 min 0,000 mm 0,0 UV-I 0 W/m 4,1 C 2,8 C 14,5 km/h (3 Bft) 97,56 %
12.10.2016 06:48 4,7 C 96 % 1015,0 hPa 0,0 l/m 9,2 km/h (2 Bft) SW 231 0 min 0,000 mm 0,0 UV-I 0 W/m 4,1 C 2,3 C 16,1 km/h (3 Bft) 100,00 %
12.10.2016 06:50 4,7 C 96 % 1015,1 hPa 0,0 l/m 9,7 km/h (2 Bft) W-SW 252 0 min 0,000 mm 0,0 UV-I 0 W/m 4,1 C 2,0 C 14,5 km/h (3 Bft) 100,00 %
12.10.2016 06:52 4,7 C 96 % 1015,0 hPa 0,0 l/m 9,4 km/h (2 Bft) W-SW 252 0 min 0,000 mm 0,0 UV-I 0 W/m 4,1 C 2,2 C 16,1 km/h (3 Bft) 98,18 %
12.10.2016 06:54 4,7 C 96 % 1015,0 hPa 0,2 l/m 11,0 km/h (2 Bft) S-SW 207 0 min 0,000 mm 0,0 UV-I 0 W/m 4,1 C 1,1 C 16,1 km/h (3 Bft) 100,00 %
12.10.2016 06:56 4,7 C 96 % 1015,0 hPa 0,0 l/m 11,0 km/h (2 Bft) W 265 0 min 0,000 mm 0,0 UV-I 0 W/m 4,1 C 1,1 C 17,7 km/h (3 Bft) 100,00 %
12.10.2016 06:58 4,7 C 96 % 1015,0 hPa 0,0 l/m 12,8 km/h (3 Bft) W-SW 255 0 min 0,000 mm 0,0 UV-I 0 W/m 4,1 C -0,1 C 22,5 km/h (4 Bft) 100,00 %
12.10.2016 07:00 4,7 C 96 % 1015,0 hPa 0,0 l/m 14,5 km/h (3 Bft) SW 215 0 min 0,000 mm 0,0 UV-I 0 W/m 4,1 C -1,0 C 22,5 km/h (4 Bft) 100,00 %
12.10.2016 07:02 4,7 C 96 % 1015,0 hPa 0,0 l/m 16,9 km/h (3 Bft) W-SW 243 0 min 0,000 mm 0,0 UV-I 0 W/m 4,1 C -2,2 C 24,1 km/h (4 Bft) 100,00 %
12.10.2016 07:04 4,7 C 96 % 1015,0 hPa 0,0 l/m 15,7 km/h (3 Bft) SW 233 0 min 0,000 mm 0,0 UV-I 0 W/m 4,1 C -1,6 C 24,1 km/h (4 Bft) 100,00 %
12.10.2016 07:06 4,7 C 96 % 1015,1 hPa 0,0 l/m 15,6 km/h (3 Bft) SW 227 0 min 0,000 mm 0,0 UV-I 0 W/m 4,1 C -1,6 C 22,5 km/h (4 Bft) 100,00 %
12.10.2016 07:08 4,7 C 96 % 1015,1 hPa 0,0 l/m 12,5 km/h (3 Bft) SW 228 0 min 0,000 mm 0,0 UV-I 0 W/m 4,1 C 0,1 C 19,3 km/h (3 Bft) 100,00 %
12.10.2016 07:10 4,7 C 96 % 1015,1 hPa 0,0 l/m 11,5 km/h (2 Bft) SW 236 0 min 0,000 mm 0,0 UV-I 0 W/m 4,1 C 0,7 C 16,1 km/h (3 Bft) 97,37 %
12.10.2016 07:12 4,7 C 96 % 1015,1 hPa 0,0 l/m 10,4 km/h (2 Bft) S-SW 196 0 min 0,000 mm 0,0 UV-I 0 W/m 4,1 C 1,5 C 14,5 km/h (3 Bft) 100,00 %
12.10.2016 07:14 4,7 C 96 % 1015,1 hPa 0,0 l/m 11,9 km/h (2 Bft) W 259 0 min 0,000 mm 0,0 UV-I 0 W/m 4,1 C 0,5 C 19,3 km/h (3 Bft) 100,00 %
12.10.2016 07:16 4,6 C 96 % 1015,1 hPa 0,0 l/m 11,8 km/h (2 Bft) W-SW 250 0 min 0,000 mm 0,0 UV-I 0 W/m 4,0 C 0,4 C 17,7 km/h (3 Bft) 100,00 %
12.10.2016 07:18 4,6 C 96 % 1015,2 hPa 0,0 l/m 10,0 km/h (2 Bft) W-SW 240 0 min 0,000 mm 0,0 UV-I 0 W/m 4,0 C 1,6 C 14,5 km/h (3 Bft) 100,00 %
12.10.2016 07:20 4,6 C 96 % 1015,2 hPa 0,0 l/m 8,4 km/h (2 Bft) W-SW 258 0 min 0,000 mm 0,0 UV-I 0 W/m 4,0 C 2,9 C 14,5 km/h (3 Bft) 100,00 %
12.10.2016 07:22 4,6 C 96 % 1015,2 hPa 0,0 l/m 9,0 km/h (2 Bft) W 261 0 min 0,000 mm 0,0 UV-I 0 W/m 4,0 C 2,4 C 12,9 km/h (3 Bft) 100,00 %
12.10.2016 07:24 4,6 C 96 % 1015,2 hPa 0,0 l/m 9,1 km/h (2 Bft) SW 234 0 min 0,000 mm 0,0 UV-I 0 W/m 4,0 C 2,3 C 14,5 km/h (3 Bft) 97,87 %
12.10.2016 07:26 4,6 C 96 % 1015,2 hPa 0,0 l/m 9,5 km/h (2 Bft) SW 219 0 min 0,000 mm 0,0 UV-I 0 W/m 4,0 C 2,0 C 12,9 km/h (3 Bft) 100,00 %
12.10.2016 07:28 4,7 C 96 % 1015,3 hPa 0,0 l/m 9,7 km/h (2 Bft) SW 236 0 min 0,000 mm 0,0 UV-I 0 W/m 4,1 C 2,0 C 14,5 km/h (3 Bft) 100,00 %
12.10.2016 07:30 4,6 C 96 % 1015,3 hPa 0,0 l/m 13,0 km/h (3 Bft) SW 225 0 min 0,000 mm 0,0 UV-I 0 W/m 4,0 C -0,3 C 19,3 km/h (3 Bft) 100,00 %
12.10.2016 07:32 4,6 C 96 % 1015,3 hPa 0,0 l/m 13,3 km/h (3 Bft) W-SW 257 0 min 0,000 mm 0,0 UV-I 0 W/m 4,0 C -0,5 C 19,3 km/h (3 Bft) 100,00 %
12.10.2016 07:34 4,6 C 96 % 1015,3 hPa 0,0 l/m 9,1 km/h (2 Bft) SW 236 0 min 0,000 mm 0,0 UV-I 0 W/m 4,0 C 2,3 C 14,5 km/h (3 Bft) 100,00 %
12.10.2016 07:36 4,6 C 96 % 1015,3 hPa 0,2 l/m 10,8 km/h (2 Bft) W-SW 239 0 min 0,000 mm 0,0 UV-I 0 W/m 4,0 C 1,1 C 16,1 km/h (3 Bft) 94,74 %
12.10.2016 07:38 4,6 C 96 % 1015,3 hPa 0,0 l/m 8,1 km/h (2 Bft) SW 223 0 min 0,000 mm 0,0 UV-I 0 W/m 4,0 C 3,1 C 14,5 km/h (3 Bft) 100,00 %
12.10.2016 07:40 4,6 C 96 % 1015,3 hPa 0,0 l/m 7,5 km/h (2 Bft) W-SW 243 0 min 0,000 mm 0,0 UV-I 0 W/m 4,0 C 3,6 C 12,9 km/h (3 Bft) 100,00 %
12.10.2016 07:42 4,6 C 96 % 1015,4 hPa 0,0 l/m 5,7 km/h (1 Bft) SW 232 0 min 0,000 mm 0,0 UV-I 0 W/m 4,0 C 4,6 C 9,7 km/h (2 Bft) 97,87 %
12.10.2016 07:44 4,6 C 96 % 1015,3 hPa 0,0 l/m 10,1 km/h (2 Bft) SW 221 0 min 0,000 mm 0,0 UV-I 0 W/m 4,0 C 1,6 C 16,1 km/h (3 Bft) 97,87 %
12.10.2016 07:46 4,6 C 96 % 1015,4 hPa 0,0 l/m 7,6 km/h (2 Bft) SW 232 0 min 0,000 mm 0,0 UV-I 0 W/m 4,0 C 3,5 C 12,9 km/h (3 Bft) 100,00 %
12.10.2016 07:48 4,6 C 96 % 1015,4 hPa 0,0 l/m 8,5 km/h (2 Bft) W-SW 253 0 min 0,000 mm 0,0 UV-I 0 W/m 4,0 C 2,8 C 14,5 km/h (3 Bft) 98,00 %
12.10.2016 07:50 4,6 C 96 % 1015,4 hPa 0,0 l/m 11,5 km/h (2 Bft) W 261 0 min 0,000 mm 0,0 UV-I 0 W/m 4,0 C 0,6 C 17,7 km/h (3 Bft) 100,00 %
12.10.2016 07:52 4,6 C 96 % 1015,4 hPa 0,0 l/m 9,9 km/h (2 Bft) W-SW 248 0 min 0,000 mm 0,0 UV-I 0 W/m 4,0 C 1,7 C 16,1 km/h (3 Bft) 100,00 %
12.10.2016 07:54 4,6 C 96 % 1015,4 hPa 0,0 l/m 12,2 km/h (2 Bft) W-SW 250 0 min 0,000 mm 0,0 UV-I 0 W/m 4,0 C 0,2 C 19,3 km/h (3 Bft) 100,00 %
12.10.2016 07:56 4,6 C 96 % 1015,4 hPa 0,2 l/m 12,8 km/h (3 Bft) W-SW 248 0 min 0,000 mm 0,0 UV-I 0 W/m 4,0 C -0,2 C 19,3 km/h (3 Bft) 100,00 %
12.10.2016 07:58 4,6 C 96 % 1015,4 hPa 0,0 l/m 11,7 km/h (2 Bft) SW 217 0 min 0,000 mm 0,0 UV-I 1 W/m 4,0 C 0,5 C 20,9 km/h (4 Bft) 100,00 %
12.10.2016 08:00 4,6 C 96 % 1015,4 hPa 0,0 l/m 12,3 km/h (3 Bft) W-SW 244 0 min 0,000 mm 0,0 UV-I 5 W/m 4,0 C 0,1 C 19,3 km/h (3 Bft) 98,11 %
12.10.2016 08:02 4,6 C 96 % 1015,4 hPa 0,0 l/m 11,5 km/h (2 Bft) SW 217 0 min 0,000 mm 0,0 UV-I 5 W/m 4,0 C 0,6 C 19,3 km/h (3 Bft) 97,62 %
12.10.2016 08:04 4,6 C 96 % 1015,4 hPa 0,0 l/m 13,4 km/h (3 Bft) W-SW 244 0 min 0,000 mm 0,0 UV-I 6 W/m 4,0 C -0,5 C 22,5 km/h (4 Bft) 100,00 %
12.10.2016 08:06 4,6 C 96 % 1015,4 hPa 0,0 l/m 14,4 km/h (3 Bft) W-SW 240 0 min 0,000 mm 0,0 UV-I 7 W/m 4,0 C -1,1 C 20,9 km/h (4 Bft) 100,00 %
12.10.2016 08:08 4,6 C 96 % 1015,4 hPa 0,0 l/m 14,6 km/h (3 Bft) SW 217 0 min 0,000 mm 0,0 UV-I 8 W/m 4,0 C -1,2 C 22,5 km/h (4 Bft) 95,83 %
12.10.2016 08:10 4,6 C 96 % 1015,4 hPa 0,0 l/m 12,7 km/h (3 Bft) S 171 0 min 0,000 mm 0,0 UV-I 10 W/m 4,0 C -0,1 C 19,3 km/h (3 Bft) 95,74 %
12.10.2016 08:12 4,6 C 96 % 1015,5 hPa 0,0 l/m 11,2 km/h (2 Bft) SW 223 0 min 0,000 mm 0,0 UV-I 11 W/m 4,0 C 0,8 C 19,3 km/h (3 Bft) 98,18 %
12.10.2016 08:14 4,6 C 96 % 1015,5 hPa 0,0 l/m 12,8 km/h (3 Bft) W-SW 247 0 min 0,000 mm 0,0 UV-I 11 W/m 4,0 C -0,2 C 19,3 km/h (3 Bft) 97,78 %
12.10.2016 08:16 4,6 C 96 % 1015,5 hPa 0,2 l/m 11,2 km/h (2 Bft) SW 223 0 min 0,000 mm 0,0 UV-I 12 W/m 4,0 C 0,8 C 17,7 km/h (3 Bft) 97,56 %
12.10.2016 08:18 4,6 C 96 % 1015,5 hPa 0,0 l/m 10,6 km/h (2 Bft) SW 223 0 min 0,000 mm 0,0 UV-I 12 W/m 4,0 C 1,2 C 17,7 km/h (3 Bft) 98,00 %
12.10.2016 08:20 4,6 C 96 % 1015,5 hPa 0,0 l/m 13,2 km/h (3 Bft) SW 234 0 min 0,000 mm 0,0 UV-I 12 W/m 4,0 C -0,4 C 22,5 km/h (4 Bft) 97,56 %
12.10.2016 08:22 4,6 C 96 % 1015,6 hPa 0,0 l/m 11,6 km/h (2 Bft) W-SW 254 0 min 0,000 mm 0,0 UV-I 14 W/m 4,0 C 0,5 C 19,3 km/h (3 Bft) 98,11 %
12.10.2016 08:24 4,6 C 96 % 1015,7 hPa 0,0 l/m 10,6 km/h (2 Bft) W-SW 248 0 min 0,000 mm 0,0 UV-I 14 W/m 4,0 C 1,2 C 19,3 km/h (3 Bft) 93,62 %
12.10.2016 08:26 4,6 C 96 % 1015,6 hPa 0,0 l/m 12,4 km/h (3 Bft) S-SW 202 0 min 0,000 mm 0,0 UV-I 17 W/m 4,0 C 0,1 C 20,9 km/h (4 Bft) 97,73 %
12.10.2016 08:28 4,6 C 96 % 1015,7 hPa 0,0 l/m 13,8 km/h (3 Bft) SW 236 0 min 0,000 mm 0,0 UV-I 21 W/m 4,0 C -0,8 C 22,5 km/h (4 Bft) 97,73 %
12.10.2016 08:30 4,6 C 96 % 1015,7 hPa 0,0 l/m 13,0 km/h (3 Bft) W-SW 238 0 min 0,000 mm 0,0 UV-I 23 W/m 4,0 C -0,3 C 19,3 km/h (3 Bft) 98,11 %
12.10.2016 08:32 4,6 C 96 % 1015,7 hPa 0,0 l/m 12,5 km/h (3 Bft) SW 232 0 min 0,000 mm 0,0 UV-I 24 W/m 4,0 C -0,0 C 19,3 km/h (3 Bft) 97,37 %
12.10.2016 08:34 4,6 C 96 % 1015,7 hPa 0,2 l/m 12,0 km/h (2 Bft) SW 215 0 min 0,000 mm 0,0 UV-I 24 W/m 4,0 C 0,3 C 17,7 km/h (3 Bft) 98,31 %
12.10.2016 08:36 4,6 C 96 % 1015,7 hPa 0,0 l/m 12,9 km/h (3 Bft) W-SW 250 0 min 0,000 mm 0,0 UV-I 24 W/m 4,0 C -0,2 C 20,9 km/h (4 Bft) 97,73 %
12.10.2016 08:38 4,6 C 96 % 1015,7 hPa 0,0 l/m 13,2 km/h (3 Bft) SW 226 0 min 0,000 mm 0,0 UV-I 21 W/m 4,0 C -0,4 C 17,7 km/h (3 Bft) 97,87 %
12.10.2016 08:40 4,6 C 96 % 1015,7 hPa 0,0 l/m 12,1 km/h (2 Bft) SW 234 0 min 0,000 mm 0,0 UV-I 21 W/m 4,0 C 0,2 C 16,1 km/h (3 Bft) 96,00 %
12.10.2016 08:42 4,7 C 96 % 1015,7 hPa 0,0 l/m 10,4 km/h (2 Bft) W-SW 239 0 min 0,000 mm 0,0 UV-I 19 W/m 4,1 C 1,5 C 16,1 km/h (3 Bft) 97,87 %
12.10.2016 08:44 4,7 C 96 % 1015,7 hPa 0,0 l/m 9,4 km/h (2 Bft) SW 224 0 min 0,000 mm 0,0 UV-I 18 W/m 4,1 C 2,2 C 16,1 km/h (3 Bft) 100,00 %
12.10.2016 08:46 4,7 C 96 % 1015,7 hPa 0,0 l/m 11,3 km/h (2 Bft) W-SW 240 0 min 0,000 mm 0,0 UV-I 16 W/m 4,1 C 0,9 C 17,7 km/h (3 Bft) 100,00 %
12.10.2016 08:48 4,7 C 96 % 1015,7 hPa 0,0 l/m 9,3 km/h (2 Bft) W-SW 240 0 min 0,000 mm 0,0 UV-I 16 W/m 4,1 C 2,3 C 16,1 km/h (3 Bft) 98,11 %
12.10.2016 08:50 4,7 C 96 % 1015,7 hPa 0,0 l/m 8,2 km/h (2 Bft) SW 219 0 min 0,000 mm 0,0 UV-I 16 W/m 4,1 C 3,1 C 11,3 km/h (2 Bft) 100,00 %
12.10.2016 08:52 4,7 C 96 % 1015,8 hPa 0,2 l/m 7,7 km/h (2 Bft) S-SW 213 0 min 0,000 mm 0,0 UV-I 18 W/m 4,1 C 3,5 C 9,7 km/h (2 Bft) 100,00 %
12.10.2016 08:54 4,7 C 96 % 1015,8 hPa 0,0 l/m 9,4 km/h (2 Bft) SW 215 0 min 0,000 mm 0,0 UV-I 23 W/m 4,1 C 2,2 C 16,1 km/h (3 Bft) 98,00 %
12.10.2016 08:56 4,7 C 96 % 1015,8 hPa 0,0 l/m 9,8 km/h (2 Bft) SW 228 0 min 0,000 mm 0,0 UV-I 23 W/m 4,1 C 1,9 C 14,5 km/h (3 Bft) 100,00 %
12.10.2016 08:58 4,7 C 96 % 1015,8 hPa 0,0 l/m 10,7 km/h (2 Bft) W-SW 250 0 min 0,000 mm 0,0 UV-I 21 W/m 4,1 C 1,3 C 17,7 km/h (3 Bft) 100,00 %
12.10.2016 09:00 4,7 C 96 % 1015,8 hPa 0,0 l/m 12,1 km/h (2 Bft) W 259 0 min 0,000 mm 0,0 UV-I 25 W/m 4,1 C 0,3 C 17,7 km/h (3 Bft) 98,00 %
12.10.2016 09:02 4,7 C 96 % 1015,9 hPa 0,0 l/m 9,2 km/h (2 Bft) S-SW 197 0 min 0,000 mm 0,0 UV-I 26 W/m 4,1 C 2,3 C 16,1 km/h (3 Bft) 97,56 %
12.10.2016 09:04 4,7 C 96 % 1015,9 hPa 0,0 l/m 8,2 km/h (2 Bft) SW 222 0 min 0,000 mm 0,0 UV-I 32 W/m 4,1 C 3,1 C 14,5 km/h (3 Bft) 97,87 %
12.10.2016 09:06 4,7 C 96 % 1015,9 hPa 0,0 l/m 11,9 km/h (2 Bft) SW 236 0 min 0,000 mm 0,0 UV-I 32 W/m 4,1 C 0,5 C 17,7 km/h (3 Bft) 100,00 %
12.10.2016 09:08 4,7 C 96 % 1015,9 hPa 0,2 l/m 12,4 km/h (3 Bft) SW 223 0 min 0,000 mm 0,0 UV-I 33 W/m 4,1 C 0,2 C 17,7 km/h (3 Bft) 100,00 %
12.10.2016 09:10 4,7 C 96 % 1015,9 hPa 0,0 l/m 9,3 km/h (2 Bft) SW 227 0 min 0,000 mm 0,0 UV-I 32 W/m 4,1 C 2,3 C 14,5 km/h (3 Bft) 100,00 %
12.10.2016 09:12 4,7 C 96 % 1016,0 hPa 0,0 l/m 6,9 km/h (2 Bft) SW 223 0 min 0,000 mm 0,0 UV-I 26 W/m 4,1 C 4,3 C 11,3 km/h (2 Bft) 100,00 %
12.10.2016 09:14 4,7 C 96 % 1016,0 hPa 0,0 l/m 6,0 km/h (2 Bft) SW 223 0 min 0,000 mm 0,0 UV-I 24 W/m 4,1 C 4,7 C 8,0 km/h (2 Bft) 100,00 %
12.10.2016 09:16 4,7 C 96 % 1016,0 hPa 0,0 l/m 7,8 km/h (2 Bft) SW 220 0 min 0,000 mm 0,0 UV-I 25 W/m 4,1 C 3,5 C 11,3 km/h (2 Bft) 100,00 %
12.10.2016 09:18 4,7 C 96 % 1016,0 hPa 0,0 l/m 7,2 km/h (2 Bft) SW 225 0 min 0,000 mm 0,0 UV-I 25 W/m 4,1 C 4,0 C 12,9 km/h (3 Bft) 100,00 %
12.10.2016 09:20 4,7 C 96 % 1016,0 hPa 0,0 l/m 11,4 km/h (2 Bft) W-SW 238 0 min 0,000 mm 0,0 UV-I 28 W/m 4,1 C 0,8 C 20,9 km/h (4 Bft) 100,00 %
12.10.2016 09:22 4,7 C 96 % 1016,0 hPa 0,0 l/m 11,2 km/h (2 Bft) W-SW 248 0 min 0,000 mm 0,0 UV-I 28 W/m 4,1 C 0,9 C 17,7 km/h (3 Bft) 100,00 %
12.10.2016 09:24 4,7 C 96 % 1016,0 hPa 0,0 l/m 10,5 km/h (2 Bft) S-SW 200 0 min 0,000 mm 0,0 UV-I 25 W/m 4,1 C 1,4 C 16,1 km/h (3 Bft) 100,00 %
12.10.2016 09:26 4,7 C 96 % 1016,0 hPa 0,2 l/m 6,7 km/h (2 Bft) W-SW 254 0 min 0,000 mm 0,0 UV-I 22 W/m 4,1 C 4,4 C 14,5 km/h (3 Bft) 100,00 %
12.10.2016 09:28 4,7 C 96 % 1016,0 hPa 0,0 l/m 9,2 km/h (2 Bft) SW 215 0 min 0,000 mm 0,0 UV-I 25 W/m 4,1 C 2,3 C 14,5 km/h (3 Bft) 100,00 %
12.10.2016 09:30 4,7 C 96 % 1016,0 hPa 0,0 l/m 10,1 km/h (2 Bft) SW 227 0 min 0,000 mm 0,0 UV-I 25 W/m 4,1 C 1,7 C 16,1 km/h (3 Bft) 100,00 %
12.10.2016 09:32 4,7 C 96 % 1016,1 hPa 0,0 l/m 11,5 km/h (2 Bft) SW 223 0 min 0,000 mm 0,0 UV-I 27 W/m 4,1 C 0,7 C 19,3 km/h (3 Bft) 100,00 %
12.10.2016 09:34 4,7 C 96 % 1016,1 hPa 0,0 l/m 9,6 km/h (2 Bft) W-SW 238 0 min 0,000 mm 0,0 UV-I 32 W/m 4,1 C 2,0 C 17,7 km/h (3 Bft) 100,00 %
12.10.2016 09:36 4,7 C 96 % 1016,1 hPa 0,0 l/m 10,5 km/h (2 Bft) W 259 0 min 0,000 mm 0,0 UV-I 31 W/m 4,1 C 1,4 C 14,5 km/h (3 Bft) 100,00 %
12.10.2016 09:38 4,8 C 96 % 1016,1 hPa 0,0 l/m 12,0 km/h (2 Bft) SW 236 0 min 0,000 mm 0,0 UV-I 38 W/m 4,2 C 0,5 C 17,7 km/h (3 Bft) 100,00 %
12.10.2016 09:40 4,8 C 96 % 1016,1 hPa 0,0 l/m 10,0 km/h (2 Bft) W-SW 247 0 min 0,000 mm 0,0 UV-I 49 W/m 4,2 C 1,9 C 14,5 km/h (3 Bft) 97,14 %
12.10.2016 09:42 4,8 C 96 % 1016,2 hPa 0,2 l/m 9,7 km/h (2 Bft) W-SW 252 0 min 0,000 mm 0,0 UV-I 56 W/m 4,2 C 2,1 C 14,5 km/h (3 Bft) 100,00 %
12.10.2016 09:44 4,8 C 96 % 1016,2 hPa 0,0 l/m 10,0 km/h (2 Bft) W-SW 246 0 min 0,000 mm 0,0 UV-I 56 W/m 4,2 C 1,9 C 14,5 km/h (3 Bft) 100,00 %
12.10.2016 09:46 4,9 C 96 % 1016,1 hPa 0,0 l/m 8,1 km/h (2 Bft) S-SW 210 0 min 0,000 mm 0,0 UV-I 53 W/m 4,3 C 3,4 C 14,5 km/h (3 Bft) 98,11 %
12.10.2016 09:48 4,9 C 96 % 1016,2 hPa 0,0 l/m 8,5 km/h (2 Bft) S-SW 213 0 min 0,000 mm 0,0 UV-I 44 W/m 4,3 C 3,1 C 12,9 km/h (3 Bft) 100,00 %
12.10.2016 09:50 5,0 C 96 % 1016,2 hPa 0,0 l/m 8,4 km/h (2 Bft) W-SW 258 0 min 0,000 mm 0,0 UV-I 38 W/m 4,4 C 3,3 C 12,9 km/h (3 Bft) 97,56 %
12.10.2016 09:52 5,0 C 96 % 1016,2 hPa 0,0 l/m 7,8 km/h (2 Bft) W 260 0 min 0,000 mm 0,0 UV-I 33 W/m 4,4 C 3,8 C 12,9 km/h (3 Bft) 100,00 %
12.10.2016 09:54 4,9 C 96 % 1016,2 hPa 0,0 l/m 8,0 km/h (2 Bft) W-SW 247 0 min 0,000 mm 0,0 UV-I 35 W/m 4,3 C 3,5 C 12,9 km/h (3 Bft) 100,00 %
12.10.2016 09:56 5,0 C 96 % 1016,1 hPa 0,0 l/m 6,6 km/h (2 Bft) SW 220 0 min 0,000 mm 0,0 UV-I 41 W/m 4,4 C 4,8 C 14,5 km/h (3 Bft) 100,00 %
12.10.2016 09:58 5,0 C 96 % 1016,2 hPa 0,0 l/m 7,4 km/h (2 Bft) W 263 0 min 0,000 mm 0,0 UV-I 52 W/m 4,4 C 4,1 C 16,1 km/h (3 Bft) 95,74 %
12.10.2016 10:00 5,0 C 96 % 1016,2 hPa 0,0 l/m 8,9 km/h (2 Bft) W 267 0 min 0,025 mm 0,0 UV-I 63 W/m 4,4 C 2,9 C 14,5 km/h (3 Bft) 95,45 %
12.10.2016 10:03 5,1 C 96 % 1016,1 hPa 0,0 l/m 9,9 km/h (2 Bft) W-SW 251 0 min 0,000 mm 0,0 UV-I 93 W/m 4,5 C 2,3 C 16,1 km/h (3 Bft) 100,00 %
12.10.2016 10:04 5,2 C 97 % 1016,1 hPa 0,0 l/m 8,1 km/h (2 Bft) W-SW 237 0 min 0,000 mm 0,0 UV-I 127 W/m 4,8 C 3,7 C 12,9 km/h (3 Bft) 100,00 %
12.10.2016 10:06 5,2 C 96 % 1016,1 hPa 0,0 l/m 12,1 km/h (2 Bft) W-SW 250 0 min 0,000 mm 0,0 UV-I 137 W/m 4,6 C 0,9 C 19,3 km/h (3 Bft) 100,00 %
12.10.2016 10:08 5,3 C 96 % 1016,2 hPa 0,0 l/m 9,9 km/h (2 Bft) SW 219 0 min 0,000 mm 0,5 UV-I 159 W/m 4,7 C 2,5 C 16,1 km/h (3 Bft) 98,00 %
12.10.2016 10:10 5,4 C 97 % 1016,3 hPa 0,2 l/m 10,1 km/h (2 Bft) SW 232 0 min 0,000 mm 0,3 UV-I 171 W/m 5,0 C 2,4 C 16,1 km/h (3 Bft) 98,18 %
12.10.2016 10:12 5,4 C 97 % 1016,2 hPa 0,0 l/m 8,2 km/h (2 Bft) W-SW 246 0 min 0,000 mm 0,0 UV-I 142 W/m 5,0 C 3,9 C 12,9 km/h (3 Bft) 97,44 %
12.10.2016 10:14 5,5 C 97 % 1016,2 hPa 0,0 l/m 10,8 km/h (2 Bft) SW 234 0 min 0,000 mm 0,0 UV-I 132 W/m 5,1 C 2,1 C 16,1 km/h (3 Bft) 97,73 %
12.10.2016 10:16 5,5 C 96 % 1016,2 hPa 0,0 l/m 9,6 km/h (2 Bft) SW 236 0 min 0,000 mm 0,0 UV-I 122 W/m 4,9 C 2,9 C 14,5 km/h (3 Bft) 98,21 %
12.10.2016 10:18 5,6 C 96 % 1016,3 hPa 0,0 l/m 10,6 km/h (2 Bft) W-NW 287 0 min 0,000 mm 0,0 UV-I 100 W/m 5,0 C 2,3 C 16,1 km/h (3 Bft) 97,56 %
12.10.2016 10:20 5,6 C 96 % 1016,3 hPa 0,0 l/m 6,0 km/h (2 Bft) W 281 0 min 0,000 mm 0,0 UV-I 62 W/m 5,0 C 5,6 C 11,3 km/h (2 Bft) 98,00 %
12.10.2016 10:22 5,6 C 97 % 1016,3 hPa 0,0 l/m 6,8 km/h (2 Bft) W 277 0 min 0,000 mm 0,0 UV-I 74 W/m 5,2 C 5,3 C 12,9 km/h (3 Bft) 95,74 %
12.10.2016 10:24 5,6 C 96 % 1016,4 hPa 0,0 l/m 8,6 km/h (2 Bft) W-SW 246 0 min 0,000 mm 0,0 UV-I 81 W/m 5,0 C 3,8 C 14,5 km/h (3 Bft) 98,00 %
12.10.2016 10:26 5,7 C 96 % 1016,4 hPa 0,0 l/m 7,1 km/h (2 Bft) W-SW 257 0 min 0,000 mm 0,0 UV-I 86 W/m 5,1 C 5,1 C 12,9 km/h (3 Bft) 92,00 %
12.10.2016 10:28 5,7 C 96 % 1016,4 hPa 0,0 l/m 10,8 km/h (2 Bft) W-SW 252 0 min 0,000 mm 0,0 UV-I 107 W/m 5,1 C 2,3 C 17,7 km/h (3 Bft) 94,74 %
12.10.2016 10:30 5,7 C 96 % 1016,4 hPa 0,0 l/m 7,5 km/h (2 Bft) W 260 0 min 0,000 mm 0,0 UV-I 79 W/m 5,1 C 4,8 C 16,1 km/h (3 Bft) 98,00 %
12.10.2016 10:32 5,7 C 96 % 1016,5 hPa 0,0 l/m 4,8 km/h (1 Bft) SW 234 0 min 0,000 mm 0,0 UV-I 74 W/m 5,1 C 5,7 C 6,4 km/h (2 Bft) 98,00 %
12.10.2016 10:34 5,7 C 96 % 1016,5 hPa 0,0 l/m 7,4 km/h (2 Bft) W-SW 253 0 min 0,000 mm 0,0 UV-I 69 W/m 5,1 C 4,8 C 9,7 km/h (2 Bft) 97,37 %
12.10.2016 10:36 5,7 C 96 % 1016,5 hPa 0,0 l/m 5,7 km/h (1 Bft) SW 236 0 min 0,000 mm 0,0 UV-I 74 W/m 5,1 C 5,7 C 8,0 km/h (2 Bft) 95,74 %
12.10.2016 10:38 5,7 C 96 % 1016,5 hPa 0,0 l/m 9,0 km/h (2 Bft) W-SW 247 0 min 0,000 mm 0,0 UV-I 67 W/m 5,1 C 3,6 C 14,5 km/h (3 Bft) 95,74 %
12.10.2016 10:40 5,6 C 96 % 1016,5 hPa 0,0 l/m 5,1 km/h (1 Bft) W 275 0 min 0,000 mm 0,0 UV-I 42 W/m 5,0 C 5,6 C 9,7 km/h (2 Bft) 98,00 %
12.10.2016 10:42 5,6 C 96 % 1016,5 hPa 0,0 l/m 2,9 km/h (1 Bft) W-NW 285 0 min 0,000 mm 0,0 UV-I 27 W/m 5,0 C 5,6 C 4,8 km/h (1 Bft) 98,00 %
12.10.2016 10:44 5,6 C 96 % 1016,5 hPa 0,2 l/m 0,8 km/h (0 Bft) W-NW 285 0 min 0,000 mm 0,0 UV-I 25 W/m 5,0 C 5,6 C 3,2 km/h (1 Bft) 95,74 %
12.10.2016 10:46 5,6 C 96 % 1016,5 hPa 0,0 l/m 3,8 km/h (1 Bft) SW 221 0 min 0,000 mm 0,0 UV-I 31 W/m 5,0 C 5,6 C 8,0 km/h (2 Bft) 100,00 %
12.10.2016 10:48 5,7 C 96 % 1016,6 hPa 0,0 l/m 8,2 km/h (2 Bft) W 277 0 min 0,000 mm 0,0 UV-I 45 W/m 5,1 C 4,2 C 12,9 km/h (3 Bft) 100,00 %
12.10.2016 10:50 5,7 C 96 % 1016,6 hPa 0,0 l/m 7,6 km/h (2 Bft) W 269 0 min 0,000 mm 0,0 UV-I 45 W/m 5,1 C 4,7 C 12,9 km/h (3 Bft) 100,00 %
12.10.2016 10:52 5,7 C 96 % 1016,6 hPa 0,0 l/m 6,3 km/h (2 Bft) W-SW 241 0 min 0,000 mm 0,0 UV-I 46 W/m 5,1 C 5,7 C 11,3 km/h (2 Bft) 100,00 %
12.10.2016 10:54 5,7 C 96 % 1016,6 hPa 0,0 l/m 9,6 km/h (2 Bft) W-SW 241 0 min 0,000 mm 0,0 UV-I 40 W/m 5,1 C 3,1 C 14,5 km/h (3 Bft) 98,00 %
12.10.2016 10:56 5,7 C 96 % 1016,6 hPa 0,0 l/m 12,5 km/h (3 Bft) W-NW 296 0 min 0,000 mm 0,0 UV-I 49 W/m 5,1 C 1,3 C 17,7 km/h (3 Bft) 100,00 %
12.10.2016 10:58 5,7 C 96 % 1016,6 hPa 0,0 l/m 12,1 km/h (2 Bft) S-SW 209 0 min 0,000 mm 0,0 UV-I 52 W/m 5,1 C 1,5 C 19,3 km/h (3 Bft) 100,00 %
12.10.2016 11:00 5,7 C 96 % 1016,6 hPa 0,0 l/m 10,7 km/h (2 Bft) SW 232 0 min 0,026 mm 0,0 UV-I 53 W/m 5,1 C 2,4 C 14,5 km/h (3 Bft) 100,00 %
12.10.2016 11:02 5,7 C 96 % 1016,6 hPa 0,0 l/m 7,5 km/h (2 Bft) SW 234 0 min 0,000 mm 0,0 UV-I 52 W/m 5,1 C 4,8 C 12,9 km/h (3 Bft) 98,00 %
12.10.2016 11:04 5,7 C 96 % 1016,6 hPa 0,0 l/m 7,7 km/h (2 Bft) SW 234 0 min 0,000 mm 0,0 UV-I 58 W/m 5,1 C 4,6 C 11,3 km/h (2 Bft) 100,00 %
12.10.2016 11:06 5,7 C 96 % 1016,7 hPa 0,0 l/m 7,4 km/h (2 Bft) SW 227 0 min 0,000 mm 0,0 UV-I 83 W/m 5,1 C 4,8 C 11,3 km/h (2 Bft) 100,00 %
12.10.2016 11:08 5,8 C 96 % 1016,7 hPa 0,0 l/m 11,6 km/h (2 Bft) W-SW 252 0 min 0,000 mm 0,0 UV-I 116 W/m 5,2 C 1,9 C 16,1 km/h (3 Bft) 100,00 %
12.10.2016 11:10 5,8 C 96 % 1016,7 hPa 0,0 l/m 10,8 km/h (2 Bft) W-SW 252 0 min 0,000 mm 0,0 UV-I 112 W/m 5,2 C 2,4 C 16,1 km/h (3 Bft) 100,00 %
12.10.2016 11:12 5,8 C 96 % 1016,7 hPa 0,0 l/m 8,5 km/h (2 Bft) W-SW 252 0 min 0,000 mm 0,0 UV-I 95 W/m 5,2 C 4,0 C 12,9 km/h (3 Bft) 100,00 %
12.10.2016 11:14 5,8 C 96 % 1016,7 hPa 0,0 l/m 8,4 km/h (2 Bft) S 181 0 min 0,000 mm 0,0 UV-I 98 W/m 5,2 C 4,1 C 12,9 km/h (3 Bft) 100,00 %
12.10.2016 11:16 5,8 C 96 % 1016,7 hPa 0,0 l/m 9,9 km/h (2 Bft) S-SW 209 0 min 0,000 mm 0,0 UV-I 105 W/m 5,2 C 3,0 C 17,7 km/h (3 Bft) 100,00 %
12.10.2016 11:18 5,9 C 96 % 1016,7 hPa 0,0 l/m 6,5 km/h (2 Bft) SW 229 0 min 0,000 mm 0,3 UV-I 120 W/m 5,3 C 5,8 C 11,3 km/h (2 Bft) 100,00 %
12.10.2016 11:20 5,9 C 96 % 1016,8 hPa 0,0 l/m 8,6 km/h (2 Bft) S-SW 207 0 min 0,000 mm 0,6 UV-I 143 W/m 5,3 C 4,1 C 14,5 km/h (3 Bft) 98,00 %
12.10.2016 11:22 6,0 C 96 % 1016,8 hPa 0,0 l/m 9,4 km/h (2 Bft) S-SW 205 0 min 0,000 mm 0,6 UV-I 160 W/m 5,4 C 3,6 C 14,5 km/h (3 Bft) 100,00 %
12.10.2016 11:24 6,1 C 96 % 1016,7 hPa 0,0 l/m 8,0 km/h (2 Bft) W-SW 254 0 min 0,000 mm 0,6 UV-I 157 W/m 5,5 C 4,8 C 14,5 km/h (3 Bft) 100,00 %
12.10.2016 11:26 6,1 C 96 % 1016,8 hPa 0,2 l/m 9,4 km/h (2 Bft) SW 234 0 min 0,000 mm 0,5 UV-I 135 W/m 5,5 C 3,7 C 14,5 km/h (3 Bft) 100,00 %
12.10.2016 11:28 6,1 C 96 % 1016,7 hPa 0,0 l/m 10,7 km/h (2 Bft) SW 227 0 min 0,000 mm 0,5 UV-I 127 W/m 5,5 C 2,8 C 17,7 km/h (3 Bft) 100,00 %
12.10.2016 11:30 6,1 C 96 % 1016,7 hPa 0,0 l/m 11,3 km/h (2 Bft) W-SW 243 0 min 0,000 mm 0,5 UV-I 128 W/m 5,5 C 2,4 C 16,1 km/h (3 Bft) 100,00 %
12.10.2016 11:32 6,1 C 96 % 1016,8 hPa 0,0 l/m 6,1 km/h (2 Bft) SW 227 0 min 0,000 mm 0,3 UV-I 108 W/m 5,5 C 6,1 C 11,3 km/h (2 Bft) 98,21 %
12.10.2016 11:34 6,1 C 96 % 1016,8 hPa 0,0 l/m 11,1 km/h (2 Bft) SW 219 0 min 0,000 mm 0,5 UV-I 128 W/m 5,5 C 2,6 C 17,7 km/h (3 Bft) 100,00 %
12.10.2016 11:36 6,1 C 96 % 1016,8 hPa 0,0 l/m 9,2 km/h (2 Bft) SW 224 0 min 0,000 mm 0,6 UV-I 139 W/m 5,5 C 3,8 C 16,1 km/h (3 Bft) 100,00 %
12.10.2016 11:38 6,2 C 96 % 1016,8 hPa 0,0 l/m 9,3 km/h (2 Bft) SW 230 0 min 0,000 mm 0,5 UV-I 118 W/m 5,6 C 3,9 C 14,5 km/h (3 Bft) 100,00 %
12.10.2016 11:40 6,2 C 96 % 1016,8 hPa 0,0 l/m 10,1 km/h (2 Bft) SW 219 0 min 0,000 mm 0,0 UV-I 98 W/m 5,6 C 3,3 C 16,1 km/h (3 Bft) 100,00 %
12.10.2016 11:42 6,2 C 96 % 1016,9 hPa 0,0 l/m 10,3 km/h (2 Bft) W-SW 258 0 min 0,000 mm 0,0 UV-I 91 W/m 5,6 C 3,2 C 16,1 km/h (3 Bft) 100,00 %
12.10.2016 11:44 6,1 C 96 % 1016,8 hPa 0,0 l/m 9,6 km/h (2 Bft) SW 224 0 min 0,000 mm 0,0 UV-I 80 W/m 5,5 C 3,6 C 14,5 km/h (3 Bft) 100,00 %
12.10.2016 11:46 6,2 C 96 % 1016,9 hPa 0,0 l/m 7,3 km/h (2 Bft) W-SW 246 0 min 0,000 mm 0,0 UV-I 81 W/m 5,6 C 5,4 C 14,5 km/h (3 Bft) 97,56 %
12.10.2016 11:48 6,2 C 96 % 1016,8 hPa 0,0 l/m 9,5 km/h (2 Bft) S-SW 211 0 min 0,000 mm 0,0 UV-I 72 W/m 5,6 C 3,7 C 16,1 km/h (3 Bft) 100,00 %
12.10.2016 11:50 6,1 C 96 % 1016,9 hPa 0,0 l/m 11,2 km/h (2 Bft) SW 232 0 min 0,000 mm 0,0 UV-I 65 W/m 5,5 C 2,5 C 19,3 km/h (3 Bft) 100,00 %
12.10.2016 11:52 6,1 C 96 % 1016,9 hPa 0,0 l/m 7,6 km/h (2 Bft) S-SW 203 0 min 0,000 mm 0,0 UV-I 69 W/m 5,5 C 5,1 C 14,5 km/h (3 Bft) 100,00 %
12.10.2016 11:54 6,1 C 96 % 1017,0 hPa 0,0 l/m 8,7 km/h (2 Bft) SW 219 0 min 0,000 mm 0,0 UV-I 69 W/m 5,5 C 4,2 C 14,5 km/h (3 Bft) 100,00 %
12.10.2016 11:56 6,1 C 96 % 1017,0 hPa 0,0 l/m 9,6 km/h (2 Bft) W-SW 244 0 min 0,000 mm 0,0 UV-I 66 W/m 5,5 C 3,6 C 14,5 km/h (3 Bft) 100,00 %
12.10.2016 11:58 6,1 C 96 % 1017,0 hPa 0,0 l/m 10,6 km/h (2 Bft) SW 222 0 min 0,000 mm 0,0 UV-I 66 W/m 5,5 C 2,9 C 16,1 km/h (3 Bft) 100,00 %
12.10.2016 12:00 6,1 C 96 % 1017,0 hPa 0,0 l/m 8,9 km/h (2 Bft) SW 217 0 min 0,051 mm 0,0 UV-I 72 W/m 5,5 C 4,1 C 14,5 km/h (3 Bft) 92,11 %
12.10.2016 12:02 6,1 C 96 % 1017,0 hPa 0,0 l/m 9,7 km/h (2 Bft) SW 227 0 min 0,000 mm 0,0 UV-I 76 W/m 5,5 C 3,5 C 14,5 km/h (3 Bft) 100,00 %
12.10.2016 12:04 6,1 C 96 % 1017,1 hPa 0,0 l/m 7,9 km/h (2 Bft) SW 235 0 min 0,000 mm 0,0 UV-I 76 W/m 5,5 C 4,8 C 12,9 km/h (3 Bft) 100,00 %
12.10.2016 12:06 6,1 C 96 % 1017,0 hPa 0,0 l/m 12,4 km/h (3 Bft) SW 235 0 min 0,000 mm 0,0 UV-I 70 W/m 5,5 C 1,8 C 19,3 km/h (3 Bft) 98,39 %
12.10.2016 12:08 6,1 C 96 % 1017,1 hPa 0,0 l/m 13,5 km/h (3 Bft) SW 225 0 min 0,000 mm 0,0 UV-I 55 W/m 5,5 C 1,2 C 19,3 km/h (3 Bft) 100,00 %
12.10.2016 12:10 6,0 C 96 % 1017,1 hPa 0,2 l/m 13,5 km/h (3 Bft) SW 234 0 min 0,000 mm 0,0 UV-I 45 W/m 5,4 C 1,1 C 19,3 km/h (3 Bft) 94,74 %
12.10.2016 12:12 5,9 C 96 % 1017,1 hPa 0,0 l/m 9,6 km/h (2 Bft) S 190 0 min 0,000 mm 0,0 UV-I 43 W/m 5,3 C 3,3 C 16,1 km/h (3 Bft) 96,23 %
12.10.2016 12:14 5,9 C 96 % 1017,1 hPa 0,2 l/m 7,5 km/h (2 Bft) SW 225 0 min 0,000 mm 0,0 UV-I 45 W/m 5,3 C 5,0 C 12,9 km/h (3 Bft) 97,56 %
12.10.2016 12:16 5,9 C 96 % 1017,1 hPa 0,0 l/m 9,5 km/h (2 Bft) S-SW 207 0 min 0,000 mm 0,0 UV-I 50 W/m 5,3 C 3,4 C 14,5 km/h (3 Bft) 96,61 %
12.10.2016 12:18 5,9 C 96 % 1017,1 hPa 0,0 l/m 7,0 km/h (2 Bft) W-SW 254 0 min 0,000 mm 0,0 UV-I 50 W/m 5,3 C 5,4 C 9,7 km/h (2 Bft) 97,73 %
12.10.2016 12:20 5,9 C 96 % 1017,1 hPa 0,0 l/m 10,6 km/h (2 Bft) SW 223 0 min 0,000 mm 0,0 UV-I 50 W/m 5,3 C 2,7 C 14,5 km/h (3 Bft) 97,87 %
12.10.2016 12:22 5,9 C 96 % 1017,2 hPa 0,0 l/m 9,1 km/h (2 Bft) SW 227 0 min 0,000 mm 0,0 UV-I 47 W/m 5,3 C 3,7 C 16,1 km/h (3 Bft) 95,12 %
12.10.2016 12:24 5,9 C 96 % 1017,1 hPa 0,0 l/m 8,9 km/h (2 Bft) SW 227 0 min 0,000 mm 0,0 UV-I 50 W/m 5,3 C 3,9 C 12,9 km/h (3 Bft) 98,21 %
12.10.2016 12:26 5,8 C 96 % 1017,2 hPa 0,2 l/m 11,0 km/h (2 Bft) SW 224 0 min 0,000 mm 0,0 UV-I 55 W/m 5,2 C 2,3 C 20,9 km/h (4 Bft) 95,45 %
12.10.2016 12:28 5,8 C 96 % 1017,2 hPa 0,0 l/m 9,9 km/h (2 Bft) SW 214 0 min 0,000 mm 0,0 UV-I 55 W/m 5,2 C 3,0 C 16,1 km/h (3 Bft) 100,00 %
12.10.2016 12:30 5,8 C 96 % 1017,2 hPa 0,0 l/m 6,6 km/h (2 Bft) W-SW 238 0 min 0,000 mm 0,0 UV-I 58 W/m 5,2 C 5,7 C 9,7 km/h (2 Bft) 96,23 %
12.10.2016 12:32 5,9 C 96 % 1017,2 hPa 0,0 l/m 8,8 km/h (2 Bft) SW 230 0 min 0,000 mm 0,0 UV-I 63 W/m 5,3 C 3,9 C 12,9 km/h (3 Bft) 97,87 %
12.10.2016 12:34 5,9 C 96 % 1017,2 hPa 0,0 l/m 8,9 km/h (2 Bft) S-SW 206 0 min 0,000 mm 0,0 UV-I 65 W/m 5,3 C 3,9 C 11,3 km/h (2 Bft) 97,87 %
12.10.2016 12:36 5,8 C 96 % 1017,2 hPa 0,0 l/m 8,8 km/h (2 Bft) SW 228 0 min 0,000 mm 0,0 UV-I 68 W/m 5,2 C 3,8 C 12,9 km/h (3 Bft) 98,00 %
12.10.2016 12:38 5,8 C 96 % 1017,2 hPa 0,0 l/m 8,1 km/h (2 Bft) W-SW 237 0 min 0,000 mm 0,0 UV-I 58 W/m 5,2 C 4,4 C 12,9 km/h (3 Bft) 100,00 %
12.10.2016 12:40 5,9 C 96 % 1017,2 hPa 0,0 l/m 7,5 km/h (2 Bft) SW 222 0 min 0,000 mm 0,0 UV-I 57 W/m 5,3 C 5,0 C 12,9 km/h (3 Bft) 98,00 %
12.10.2016 12:42 5,8 C 96 % 1017,2 hPa 0,0 l/m 6,4 km/h (2 Bft) S-SW 205 0 min 0,000 mm 0,0 UV-I 63 W/m 5,2 C 5,8 C 8,0 km/h (2 Bft) 97,87 %
12.10.2016 12:44 5,8 C 96 % 1017,1 hPa 0,0 l/m 9,5 km/h (2 Bft) S-SW 213 0 min 0,000 mm 0,0 UV-I 76 W/m 5,2 C 3,3 C 14,5 km/h (3 Bft) 100,00 %
12.10.2016 12:46 5,9 C 96 % 1017,1 hPa 0,2 l/m 7,5 km/h (2 Bft) S-SW 207 0 min 0,000 mm 0,0 UV-I 92 W/m 5,3 C 5,0 C 9,7 km/h (2 Bft) 100,00 %
12.10.2016 12:48 5,9 C 96 % 1017,1 hPa 0,0 l/m 7,5 km/h (2 Bft) W-SW 248 0 min 0,000 mm 0,0 UV-I 89 W/m 5,3 C 5,0 C 11,3 km/h (2 Bft) 97,87 %
12.10.2016 12:50 6,0 C 96 % 1017,1 hPa 0,0 l/m 7,5 km/h (2 Bft) SW 228 0 min 0,000 mm 0,0 UV-I 83 W/m 5,4 C 5,1 C 9,7 km/h (2 Bft) 97,44 %
12.10.2016 12:52 6,0 C 96 % 1017,1 hPa 0,0 l/m 7,0 km/h (2 Bft) S-SW 205 0 min 0,000 mm 0,0 UV-I 79 W/m 5,4 C 5,5 C 11,3 km/h (2 Bft) 100,00 %
12.10.2016 12:54 6,0 C 96 % 1017,2 hPa 0,0 l/m 6,7 km/h (2 Bft) S-SW 205 0 min 0,000 mm 0,0 UV-I 64 W/m 5,4 C 5,8 C 11,3 km/h (2 Bft) 98,00 %
12.10.2016 12:56 6,0 C 96 % 1017,2 hPa 0,0 l/m 6,7 km/h (2 Bft) SW 220 0 min 0,000 mm 0,0 UV-I 57 W/m 5,4 C 5,8 C 11,3 km/h (2 Bft) 100,00 %
12.10.2016 12:58 6,1 C 96 % 1017,1 hPa 0,0 l/m 5,9 km/h (2 Bft) SW 223 0 min 0,000 mm 0,0 UV-I 67 W/m 5,5 C 6,1 C 8,0 km/h (2 Bft) 100,00 %
12.10.2016 13:00 6,1 C 96 % 1017,2 hPa 0,0 l/m 4,7 km/h (1 Bft) SW 234 0 min 0,025 mm 0,2 UV-I 97 W/m 5,5 C 6,1 C 6,4 km/h (2 Bft) 98,11 %
12.10.2016 13:02 6,2 C 96 % 1017,2 hPa 0,0 l/m 5,2 km/h (1 Bft) SW 223 0 min 0,000 mm 0,6 UV-I 117 W/m 5,6 C 6,2 C 9,7 km/h (2 Bft) 97,87 %
12.10.2016 13:04 6,2 C 96 % 1017,2 hPa 0,0 l/m 6,2 km/h (2 Bft) SW 233 0 min 0,000 mm 0,6 UV-I 123 W/m 5,6 C 6,2 C 12,9 km/h (3 Bft) 100,00 %
12.10.2016 13:06 6,3 C 96 % 1017,2 hPa 0,0 l/m 7,6 km/h (2 Bft) W-SW 247 0 min 0,000 mm 0,6 UV-I 122 W/m 5,7 C 5,3 C 12,9 km/h (3 Bft) 98,00 %
12.10.2016 13:08 6,3 C 96 % 1017,1 hPa 0,0 l/m 7,9 km/h (2 Bft) W-SW 238 0 min 0,000 mm 0,5 UV-I 116 W/m 5,7 C 5,0 C 12,9 km/h (3 Bft) 100,00 %
12.10.2016 13:10 6,3 C 96 % 1017,1 hPa 0,0 l/m 7,6 km/h (2 Bft) W-SW 237 0 min 0,000 mm 0,5 UV-I 123 W/m 5,7 C 5,3 C 11,3 km/h (2 Bft) 100,00 %
12.10.2016 13:12 6,3 C 96 % 1017,1 hPa 0,2 l/m 7,4 km/h (2 Bft) SW 234 0 min 0,000 mm 0,5 UV-I 121 W/m 5,7 C 5,5 C 9,7 km/h (2 Bft) 100,00 %
12.10.2016 13:14 6,4 C 96 % 1017,2 hPa 0,0 l/m 5,8 km/h (2 Bft) W-SW 239 0 min 0,000 mm 0,5 UV-I 108 W/m 5,8 C 6,4 C 12,9 km/h (3 Bft) 100,00 %
12.10.2016 13:16 6,4 C 96 % 1017,2 hPa 0,0 l/m 7,5 km/h (2 Bft) W-SW 244 0 min 0,000 mm 0,1 UV-I 92 W/m 5,8 C 5,5 C 9,7 km/h (2 Bft) 97,87 %
12.10.2016 13:18 6,4 C 96 % 1017,2 hPa 0,0 l/m 5,7 km/h (1 Bft) W-SW 240 0 min 0,000 mm 0,0 UV-I 76 W/m 5,8 C 6,4 C 9,7 km/h (2 Bft) 100,00 %
12.10.2016 13:20 6,4 C 96 % 1017,2 hPa 0,0 l/m 6,6 km/h (2 Bft) SW 234 0 min 0,000 mm 0,0 UV-I 80 W/m 5,8 C 6,3 C 11,3 km/h (2 Bft) 100,00 %
12.10.2016 13:22 6,4 C 96 % 1017,2 hPa 0,0 l/m 5,9 km/h (2 Bft) SW 227 0 min 0,000 mm 0,0 UV-I 81 W/m 5,8 C 6,4 C 9,7 km/h (2 Bft) 98,00 %
12.10.2016 13:24 6,4 C 96 % 1017,1 hPa 0,0 l/m 5,3 km/h (1 Bft) W-SW 246 0 min 0,000 mm 0,0 UV-I 74 W/m 5,8 C 6,4 C 9,7 km/h (2 Bft) 98,00 %
12.10.2016 13:26 6,5 C 96 % 1017,1 hPa 0,0 l/m 6,3 km/h (2 Bft) SW 230 0 min 0,000 mm 0,0 UV-I 68 W/m 5,9 C 6,5 C 12,9 km/h (3 Bft) 100,00 %
12.10.2016 13:28 6,5 C 96 % 1017,2 hPa 0,0 l/m 6,7 km/h (2 Bft) W-SW 240 0 min 0,000 mm 0,0 UV-I 65 W/m 5,9 C 6,3 C 11,3 km/h (2 Bft) 100,00 %
12.10.2016 13:30 6,5 C 96 % 1017,2 hPa 0,0 l/m 7,9 km/h (2 Bft) SW 234 0 min 0,000 mm 0,0 UV-I 61 W/m 5,9 C 5,3 C 14,5 km/h (3 Bft) 100,00 %
12.10.2016 13:32 6,4 C 96 % 1017,2 hPa 0,0 l/m 9,7 km/h (2 Bft) W-SW 240 0 min 0,000 mm 0,0 UV-I 51 W/m 5,8 C 3,8 C 14,5 km/h (3 Bft) 98,00 %
12.10.2016 13:34 6,4 C 96 % 1017,2 hPa 0,0 l/m 7,8 km/h (2 Bft) S-SW 192 0 min 0,000 mm 0,0 UV-I 51 W/m 5,8 C 5,2 C 11,3 km/h (2 Bft) 100,00 %
12.10.2016 13:36 6,4 C 96 % 1017,2 hPa 0,0 l/m 9,9 km/h (2 Bft) W-SW 247 0 min 0,000 mm 0,0 UV-I 57 W/m 5,8 C 3,7 C 16,1 km/h (3 Bft) 100,00 %
12.10.2016 13:38 6,3 C 96 % 1017,2 hPa 0,0 l/m 8,5 km/h (2 Bft) SW 218 0 min 0,000 mm 0,0 UV-I 62 W/m 5,7 C 4,6 C 14,5 km/h (3 Bft) 100,00 %
12.10.2016 13:40 6,4 C 96 % 1017,2 hPa 0,0 l/m 8,2 km/h (2 Bft) W-SW 248 0 min 0,000 mm 0,0 UV-I 62 W/m 5,8 C 4,9 C 11,3 km/h (2 Bft) 100,00 %
12.10.2016 13:42 6,3 C 96 % 1017,2 hPa 0,0 l/m 6,2 km/h (2 Bft) S-SW 212 0 min 0,000 mm 0,0 UV-I 52 W/m 5,7 C 6,3 C 9,7 km/h (2 Bft) 92,45 %
12.10.2016 13:44 6,4 C 96 % 1017,3 hPa 0,2 l/m 5,3 km/h (1 Bft) SW 227 0 min 0,000 mm 0,0 UV-I 43 W/m 5,8 C 6,4 C 8,0 km/h (2 Bft) 100,00 %
12.10.2016 13:46 6,4 C 96 % 1017,3 hPa 0,0 l/m 9,1 km/h (2 Bft) S-SW 211 0 min 0,000 mm 0,0 UV-I 44 W/m 5,8 C 4,2 C 16,1 km/h (3 Bft) 97,37 %
12.10.2016 13:48 6,3 C 96 % 1017,3 hPa 0,0 l/m 7,9 km/h (2 Bft) S-SO 155 0 min 0,000 mm 0,0 UV-I 36 W/m 5,7 C 5,0 C 12,9 km/h (3 Bft) 100,00 %
12.10.2016 13:50 6,3 C 96 % 1017,3 hPa 0,0 l/m 8,9 km/h (2 Bft) SW 221 0 min 0,000 mm 0,0 UV-I 35 W/m 5,7 C 4,3 C 12,9 km/h (3 Bft) 98,00 %
12.10.2016 13:52 6,3 C 96 % 1017,3 hPa 0,0 l/m 7,3 km/h (2 Bft) S-SW 208 0 min 0,000 mm 0,0 UV-I 31 W/m 5,7 C 5,5 C 9,7 km/h (2 Bft) 100,00 %
12.10.2016 13:54 6,3 C 96 % 1017,3 hPa 0,0 l/m 7,8 km/h (2 Bft) W-SW 242 0 min 0,000 mm 0,0 UV-I 28 W/m 5,7 C 5,1 C 12,9 km/h (3 Bft) 96,30 %
12.10.2016 13:56 6,3 C 96 % 1017,3 hPa 0,0 l/m 8,4 km/h (2 Bft) SW 215 0 min 0,000 mm 0,0 UV-I 29 W/m 5,7 C 4,7 C 11,3 km/h (2 Bft) 100,00 %
12.10.2016 13:58 6,3 C 96 % 1017,3 hPa 0,0 l/m 7,8 km/h (2 Bft) SW 235 0 min 0,000 mm 0,0 UV-I 30 W/m 5,7 C 5,1 C 12,9 km/h (3 Bft) 100,00 %
12.10.2016 14:00 6,3 C 96 % 1017,4 hPa 0,0 l/m 8,8 km/h (2 Bft) S-SW 213 0 min 0,025 mm 0,0 UV-I 30 W/m 5,7 C 4,4 C 14,5 km/h (3 Bft) 98,00 %
12.10.2016 14:02 6,3 C 96 % 1017,4 hPa 0,0 l/m 10,4 km/h (2 Bft) SW 227 0 min 0,000 mm 0,0 UV-I 27 W/m 5,7 C 3,2 C 17,7 km/h (3 Bft) 97,87 %
12.10.2016 14:04 6,2 C 96 % 1017,4 hPa 0,0 l/m 6,0 km/h (2 Bft) S-SW 208 0 min 0,000 mm 0,0 UV-I 28 W/m 5,6 C 6,2 C 11,3 km/h (2 Bft) 97,22 %
12.10.2016 14:06 6,3 C 96 % 1017,4 hPa 0,0 l/m 8,2 km/h (2 Bft) W-SW 242 0 min 0,000 mm 0,0 UV-I 33 W/m 5,7 C 4,8 C 12,9 km/h (3 Bft) 100,00 %
12.10.2016 14:08 6,2 C 96 % 1017,4 hPa 0,0 l/m 9,3 km/h (2 Bft) SW 235 0 min 0,000 mm 0,0 UV-I 41 W/m 5,6 C 3,9 C 14,5 km/h (3 Bft) 98,08 %
12.10.2016 14:10 6,3 C 96 % 1017,4 hPa 0,0 l/m 9,6 km/h (2 Bft) SW 224 0 min 0,000 mm 0,0 UV-I 45 W/m 5,7 C 3,8 C 14,5 km/h (3 Bft) 97,44 %
12.10.2016 14:12 6,2 C 96 % 1017,4 hPa 0,2 l/m 9,1 km/h (2 Bft) W-SW 246 0 min 0,000 mm 0,0 UV-I 50 W/m 5,6 C 4,0 C 14,5 km/h (3 Bft) 96,43 %
12.10.2016 14:14 6,2 C 96 % 1017,4 hPa 0,0 l/m 10,4 km/h (2 Bft) SW 227 0 min 0,000 mm 0,0 UV-I 50 W/m 5,6 C 3,1 C 17,7 km/h (3 Bft) 96,55 %
12.10.2016 14:16 6,3 C 96 % 1017,4 hPa 0,0 l/m 8,6 km/h (2 Bft) S-SW 203 0 min 0,000 mm 0,0 UV-I 48 W/m 5,7 C 4,5 C 12,9 km/h (3 Bft) 95,16 %
12.10.2016 14:19 6,3 C 96 % 1017,4 hPa 0,0 l/m 7,3 km/h (2 Bft) SW 217 0 min 0,000 mm 0,0 UV-I 48 W/m 5,7 C 5,5 C 12,9 km/h (3 Bft) 98,36 %
12.10.2016 14:20 6,3 C 96 % 1017,4 hPa 0,2 l/m 6,3 km/h (2 Bft) S-SW 196 0 min 0,000 mm 0,0 UV-I 46 W/m 5,7 C 6,3 C 11,3 km/h (2 Bft) 96,67 %
12.10.2016 14:22 6,3 C 96 % 1017,4 hPa 0,0 l/m 8,6 km/h (2 Bft) W-SW 243 0 min 0,000 mm 0,0 UV-I 45 W/m 5,7 C 4,5 C 12,9 km/h (3 Bft) 97,87 %
12.10.2016 14:24 6,2 C 96 % 1017,4 hPa 0,0 l/m 7,5 km/h (2 Bft) S-SW 205 0 min 0,000 mm 0,0 UV-I 36 W/m 5,6 C 5,3 C 11,3 km/h (2 Bft) 95,74 %
12.10.2016 14:26 6,2 C 96 % 1017,4 hPa 0,2 l/m 9,0 km/h (2 Bft) S-SW 196 0 min 0,000 mm 0,0 UV-I 37 W/m 5,6 C 4,1 C 14,5 km/h (3 Bft) 97,56 %
12.10.2016 14:28 6,2 C 96 % 1017,4 hPa 0,0 l/m 10,9 km/h (2 Bft) S-SW 205 0 min 0,000 mm 0,0 UV-I 41 W/m 5,6 C 2,8 C 16,1 km/h (3 Bft) 96,43 %
12.10.2016 14:30 6,2 C 96 % 1017,4 hPa 0,0 l/m 8,9 km/h (2 Bft) S-SW 192 0 min 0,000 mm 0,0 UV-I 35 W/m 5,6 C 4,2 C 14,5 km/h (3 Bft) 95,12 %
12.10.2016 14:32 6,2 C 96 % 1017,5 hPa 0,2 l/m 8,4 km/h (2 Bft) W-SW 244 0 min 0,000 mm 0,0 UV-I 28 W/m 5,6 C 4,6 C 12,9 km/h (3 Bft) 98,11 %
12.10.2016 14:34 6,2 C 96 % 1017,5 hPa 0,0 l/m 8,2 km/h (2 Bft) SW 232 0 min 0,000 mm 0,0 UV-I 33 W/m 5,6 C 4,7 C 14,5 km/h (3 Bft) 97,37 %
12.10.2016 14:36 6,1 C 96 % 1017,5 hPa 0,0 l/m 8,5 km/h (2 Bft) W-SW 241 0 min 0,000 mm 0,0 UV-I 29 W/m 5,5 C 4,4 C 12,9 km/h (3 Bft) 97,87 %
12.10.2016 14:38 6,1 C 96 % 1017,4 hPa 0,2 l/m 7,5 km/h (2 Bft) SW 221 0 min 0,000 mm 0,0 UV-I 33 W/m 5,5 C 5,2 C 12,9 km/h (3 Bft) 98,00 %
12.10.2016 14:40 6,1 C 96 % 1017,4 hPa 0,2 l/m 8,8 km/h (2 Bft) SW 214 0 min 0,000 mm 0,0 UV-I 39 W/m 5,5 C 4,1 C 16,1 km/h (3 Bft) 96,00 %
12.10.2016 14:42 6,1 C 96 % 1017,4 hPa 0,2 l/m 6,8 km/h (2 Bft) S-SO 152 0 min 0,000 mm 0,0 UV-I 33 W/m 5,5 C 5,8 C 11,3 km/h (2 Bft) 100,00 %
12.10.2016 14:44 6,1 C 95 % 1017,4 hPa 0,0 l/m 4,5 km/h (1 Bft) S-SW 205 0 min 0,000 mm 0,0 UV-I 26 W/m 5,4 C 6,1 C 9,7 km/h (2 Bft) 100,00 %
12.10.2016 14:46 6,1 C 96 % 1017,4 hPa 0,2 l/m 5,5 km/h (1 Bft) SW 234 0 min 0,000 mm 0,0 UV-I 25 W/m 5,5 C 6,1 C 11,3 km/h (2 Bft) 96,00 %
12.10.2016 14:48 6,1 C 96 % 1017,4 hPa 0,0 l/m 3,7 km/h (1 Bft) SW 217 0 min 0,000 mm 0,0 UV-I 26 W/m 5,5 C 6,1 C 8,0 km/h (2 Bft) 98,00 %
12.10.2016 14:50 6,1 C 96 % 1017,4 hPa 0,0 l/m 5,9 km/h (2 Bft) S 191 0 min 0,000 mm 0,0 UV-I 34 W/m 5,5 C 6,1 C 12,9 km/h (3 Bft) 100,00 %
12.10.2016 14:52 6,1 C 96 % 1017,4 hPa 0,0 l/m 6,0 km/h (2 Bft) S-SW 208 0 min 0,000 mm 0,0 UV-I 39 W/m 5,5 C 6,1 C 14,5 km/h (3 Bft) 100,00 %
12.10.2016 14:54 6,1 C 96 % 1017,4 hPa 0,0 l/m 6,7 km/h (2 Bft) SW 234 0 min 0,000 mm 0,0 UV-I 40 W/m 5,5 C 5,9 C 12,9 km/h (3 Bft) 100,00 %
12.10.2016 14:56 6,2 C 96 % 1017,4 hPa 0,0 l/m 8,9 km/h (2 Bft) SW 236 0 min 0,000 mm 0,0 UV-I 42 W/m 5,6 C 4,2 C 14,5 km/h (3 Bft) 98,11 %
12.10.2016 14:58 6,2 C 96 % 1017,4 hPa 0,0 l/m 9,7 km/h (2 Bft) SW 215 0 min 0,000 mm 0,0 UV-I 40 W/m 5,6 C 3,6 C 12,9 km/h (3 Bft) 100,00 %
12.10.2016 15:00 6,2 C 96 % 1017,4 hPa 0,0 l/m 7,0 km/h (2 Bft) SW 227 0 min 0,026 mm 0,0 UV-I 43 W/m 5,6 C 5,7 C 11,3 km/h (2 Bft) 97,87 %
12.10.2016 15:02 6,2 C 96 % 1017,4 hPa 0,0 l/m 9,4 km/h (2 Bft) SW 222 0 min 0,000 mm 0,0 UV-I 50 W/m 5,6 C 3,8 C 14,5 km/h (3 Bft) 97,87 %
12.10.2016 15:04 6,3 C 96 % 1017,4 hPa 0,0 l/m 7,2 km/h (2 Bft) SW 235 0 min 0,000 mm 0,0 UV-I 55 W/m 5,7 C 5,6 C 12,9 km/h (3 Bft) 98,11 %
12.10.2016 15:06 6,3 C 96 % 1017,4 hPa 0,0 l/m 9,9 km/h (2 Bft) W-SW 246 0 min 0,000 mm 0,0 UV-I 67 W/m 5,7 C 3,6 C 14,5 km/h (3 Bft) 100,00 %
12.10.2016 15:08 6,3 C 96 % 1017,4 hPa 0,0 l/m 6,9 km/h (2 Bft) SW 220 0 min 0,000 mm 0,0 UV-I 51 W/m 5,7 C 5,9 C 12,9 km/h (3 Bft) 97,56 %
12.10.2016 15:10 6,4 C 96 % 1017,3 hPa 0,0 l/m 6,5 km/h (2 Bft) W-SW 254 0 min 0,000 mm 0,0 UV-I 84 W/m 5,8 C 6,3 C 12,9 km/h (3 Bft) 100,00 %
12.10.2016 15:12 6,4 C 96 % 1017,4 hPa 0,0 l/m 9,6 km/h (2 Bft) W-SW 247 0 min 0,000 mm 0,0 UV-I 92 W/m 5,8 C 3,9 C 14,5 km/h (3 Bft) 100,00 %
12.10.2016 15:14 6,4 C 96 % 1017,4 hPa 0,0 l/m 10,7 km/h (2 Bft) SW 217 0 min 0,000 mm 0,0 UV-I 93 W/m 5,8 C 3,2 C 19,3 km/h (3 Bft) 97,37 %
12.10.2016 15:16 6,4 C 96 % 1017,4 hPa 0,0 l/m 8,0 km/h (2 Bft) SW 236 0 min 0,000 mm 0,0 UV-I 85 W/m 5,8 C 5,1 C 12,9 km/h (3 Bft) 100,00 %
12.10.2016 15:18 6,4 C 96 % 1017,4 hPa 0,0 l/m 9,4 km/h (2 Bft) W-SW 237 0 min 0,000 mm 0,0 UV-I 78 W/m 5,8 C 4,0 C 17,7 km/h (3 Bft) 100,00 %
12.10.2016 15:20 6,4 C 95 % 1017,4 hPa 0,0 l/m 9,0 km/h (2 Bft) S-SW 196 0 min 0,000 mm 0,0 UV-I 77 W/m 5,7 C 4,3 C 12,9 km/h (3 Bft) 100,00 %
12.10.2016 15:22 6,5 C 95 % 1017,4 hPa 0,0 l/m 10,5 km/h (2 Bft) W-SW 245 0 min 0,000 mm 0,0 UV-I 81 W/m 5,8 C 3,4 C 16,1 km/h (3 Bft) 100,00 %
12.10.2016 15:24 6,5 C 95 % 1017,4 hPa 0,0 l/m 8,3 km/h (2 Bft) SW 234 0 min 0,000 mm 0,0 UV-I 83 W/m 5,8 C 4,9 C 12,9 km/h (3 Bft) 100,00 %
12.10.2016 15:26 6,6 C 95 % 1017,4 hPa 0,0 l/m 14,7 km/h (3 Bft) W-SW 254 0 min 0,000 mm 0,0 UV-I 85 W/m 5,9 C 1,2 C 22,5 km/h (4 Bft) 100,00 %
12.10.2016 15:28 6,5 C 95 % 1017,4 hPa 0,0 l/m 13,3 km/h (3 Bft) W-SW 252 0 min 0,000 mm 0,0 UV-I 82 W/m 5,8 C 1,8 C 19,3 km/h (3 Bft) 100,00 %
12.10.2016 15:30 6,5 C 95 % 1017,4 hPa 0,0 l/m 9,0 km/h (2 Bft) W-SW 246 0 min 0,000 mm 0,0 UV-I 74 W/m 5,8 C 4,4 C 14,5 km/h (3 Bft) 98,21 %
12.10.2016 15:32 6,5 C 94 % 1017,4 hPa 0,0 l/m 9,0 km/h (2 Bft) S-SW 205 0 min 0,000 mm 0,0 UV-I 60 W/m 5,6 C 4,4 C 17,7 km/h (3 Bft) 100,00 %
12.10.2016 15:34 6,5 C 95 % 1017,4 hPa 0,0 l/m 9,9 km/h (2 Bft) W-SW 248 0 min 0,000 mm 0,0 UV-I 48 W/m 5,8 C 3,8 C 16,1 km/h (3 Bft) 97,87 %
12.10.2016 15:36 6,5 C 94 % 1017,4 hPa 0,0 l/m 12,1 km/h (2 Bft) SW 225 0 min 0,000 mm 0,0 UV-I 44 W/m 5,6 C 2,4 C 19,3 km/h (3 Bft) 100,00 %
12.10.2016 15:38 6,5 C 94 % 1017,4 hPa 0,0 l/m 13,3 km/h (3 Bft) SW 233 0 min 0,000 mm 0,0 UV-I 45 W/m 5,6 C 1,8 C 19,3 km/h (3 Bft) 100,00 %
12.10.2016 15:40 6,5 C 94 % 1017,4 hPa 0,0 l/m 11,3 km/h (2 Bft) SW 217 0 min 0,000 mm 0,0 UV-I 41 W/m 5,6 C 2,9 C 16,1 km/h (3 Bft) 100,00 %
12.10.2016 15:42 6,5 C 94 % 1017,4 hPa 0,0 l/m 9,7 km/h (2 Bft) W-SW 238 0 min 0,000 mm 0,0 UV-I 38 W/m 5,6 C 3,9 C 16,1 km/h (3 Bft) 97,37 %
12.10.2016 15:44 6,5 C 94 % 1017,4 hPa 0,0 l/m 9,5 km/h (2 Bft) W-SW 249 0 min 0,000 mm 0,0 UV-I 43 W/m 5,6 C 4,1 C 14,5 km/h (3 Bft) 98,28 %
12.10.2016 15:46 6,5 C 94 % 1017,4 hPa 0,0 l/m 7,1 km/h (2 Bft) W 263 0 min 0,000 mm 0,0 UV-I 51 W/m 5,6 C 5,9 C 12,9 km/h (3 Bft) 100,00 %
12.10.2016 15:48 6,5 C 94 % 1017,4 hPa 0,0 l/m 13,0 km/h (3 Bft) W-SW 252 0 min 0,000 mm 0,0 UV-I 53 W/m 5,6 C 1,9 C 22,5 km/h (4 Bft) 97,14 %
12.10.2016 15:50 6,5 C 94 % 1017,4 hPa 0,0 l/m 12,3 km/h (3 Bft) SW 235 0 min 0,000 mm 0,0 UV-I 51 W/m 5,6 C 2,3 C 17,7 km/h (3 Bft) 97,56 %
12.10.2016 15:52 6,5 C 94 % 1017,4 hPa 0,0 l/m 12,5 km/h (3 Bft) W-SW 251 0 min 0,000 mm 0,0 UV-I 53 W/m 5,6 C 2,2 C 17,7 km/h (3 Bft) 100,00 %
12.10.2016 15:54 6,4 C 94 % 1017,3 hPa 0,0 l/m 8,3 km/h (2 Bft) W 265 0 min 0,000 mm 0,0 UV-I 56 W/m 5,5 C 4,8 C 12,9 km/h (3 Bft) 100,00 %
12.10.2016 15:56 6,5 C 94 % 1017,4 hPa 0,0 l/m 10,0 km/h (2 Bft) W 259 0 min 0,000 mm 0,0 UV-I 57 W/m 5,6 C 3,7 C 14,5 km/h (3 Bft) 100,00 %
12.10.2016 15:58 6,4 C 94 % 1017,4 hPa 0,0 l/m 10,9 km/h (2 Bft) W-SW 251 0 min 0,000 mm 0,0 UV-I 52 W/m 5,5 C 3,0 C 16,1 km/h (3 Bft) 98,51 %
12.10.2016 16:00 6,5 C 95 % 1017,4 hPa 0,0 l/m 10,6 km/h (2 Bft) W 261 0 min 0,025 mm 0,0 UV-I 46 W/m 5,8 C 3,3 C 16,1 km/h (3 Bft) 100,00 %
12.10.2016 16:02 6,4 C 95 % 1017,4 hPa 0,0 l/m 10,0 km/h (2 Bft) W-SW 254 0 min 0,000 mm 0,0 UV-I 39 W/m 5,7 C 3,6 C 14,5 km/h (3 Bft) 100,00 %
12.10.2016 16:04 6,4 C 94 % 1017,4 hPa 0,0 l/m 7,6 km/h (2 Bft) W-SW 249 0 min 0,000 mm 0,0 UV-I 34 W/m 5,5 C 5,4 C 12,9 km/h (3 Bft) 97,96 %
12.10.2016 16:06 6,4 C 95 % 1017,4 hPa 0,0 l/m 10,5 km/h (2 Bft) SW 232 0 min 0,000 mm 0,0 UV-I 33 W/m 5,7 C 3,3 C 20,9 km/h (4 Bft) 98,08 %
12.10.2016 16:08 6,4 C 94 % 1017,4 hPa 0,0 l/m 10,4 km/h (2 Bft) W-SW 246 0 min 0,000 mm 0,0 UV-I 34 W/m 5,5 C 3,4 C 14,5 km/h (3 Bft) 94,87 %
12.10.2016 16:10 6,4 C 95 % 1017,4 hPa 0,2 l/m 15,3 km/h (3 Bft) W-SW 254 0 min 0,000 mm 0,0 UV-I 35 W/m 5,7 C 0,6 C 20,9 km/h (4 Bft) 98,11 %
12.10.2016 16:12 6,4 C 95 % 1017,4 hPa 0,0 l/m 13,1 km/h (3 Bft) S-SW 208 0 min 0,000 mm 0,0 UV-I 38 W/m 5,7 C 1,7 C 19,3 km/h (3 Bft) 97,37 %
12.10.2016 16:14 6,4 C 94 % 1017,4 hPa 0,0 l/m 12,8 km/h (3 Bft) W-SW 244 0 min 0,000 mm 0,0 UV-I 43 W/m 5,5 C 1,9 C 20,9 km/h (4 Bft) 92,45 %
12.10.2016 16:16 6,3 C 94 % 1017,4 hPa 0,0 l/m 12,6 km/h (3 Bft) W-SW 248 0 min 0,000 mm 0,0 UV-I 46 W/m 5,4 C 1,9 C 19,3 km/h (3 Bft) 95,74 %
12.10.2016 16:18 6,3 C 95 % 1017,5 hPa 0,2 l/m 10,5 km/h (2 Bft) SW 235 0 min 0,000 mm 0,0 UV-I 49 W/m 5,6 C 3,2 C 14,5 km/h (3 Bft) 98,00 %
12.10.2016 16:20 6,3 C 95 % 1017,4 hPa 0,0 l/m 10,1 km/h (2 Bft) SW 233 0 min 0,000 mm 0,0 UV-I 55 W/m 5,6 C 3,4 C 16,1 km/h (3 Bft) 91,49 %
12.10.2016 16:22 6,3 C 95 % 1017,4 hPa 0,2 l/m 9,2 km/h (2 Bft) W-SW 255 0 min 0,000 mm 0,0 UV-I 60 W/m 5,6 C 4,1 C 16,1 km/h (3 Bft) 97,87 %
12.10.2016 16:24 6,3 C 95 % 1017,4 hPa 0,0 l/m 9,4 km/h (2 Bft) SW 228 0 min 0,000 mm 0,0 UV-I 57 W/m 5,6 C 3,9 C 14,5 km/h (3 Bft) 97,67 %
12.10.2016 16:26 6,3 C 95 % 1017,4 hPa 0,0 l/m 8,1 km/h (2 Bft) SW 217 0 min 0,000 mm 0,0 UV-I 52 W/m 5,6 C 4,9 C 14,5 km/h (3 Bft) 97,37 %
12.10.2016 16:28 6,3 C 95 % 1017,5 hPa 0,0 l/m 8,1 km/h (2 Bft) W-SW 238 0 min 0,000 mm 0,0 UV-I 43 W/m 5,6 C 4,9 C 12,9 km/h (3 Bft) 96,61 %
12.10.2016 16:30 6,3 C 95 % 1017,4 hPa 0,2 l/m 7,9 km/h (2 Bft) W-SW 258 0 min 0,000 mm 0,0 UV-I 37 W/m 5,6 C 5,0 C 11,3 km/h (2 Bft) 95,74 %
12.10.2016 16:32 6,3 C 95 % 1017,4 hPa 0,0 l/m 6,3 km/h (2 Bft) W-SW 248 0 min 0,000 mm 0,0 UV-I 34 W/m 5,6 C 6,3 C 11,3 km/h (2 Bft) 92,68 %
12.10.2016 16:34 6,3 C 95 % 1017,4 hPa 0,0 l/m 5,8 km/h (2 Bft) SW 229 0 min 0,000 mm 0,0 UV-I 39 W/m 5,6 C 6,3 C 8,0 km/h (2 Bft) 97,87 %
12.10.2016 16:36 6,3 C 95 % 1017,5 hPa 0,0 l/m 5,7 km/h (1 Bft) W-SW 249 0 min 0,000 mm 0,0 UV-I 43 W/m 5,6 C 6,3 C 8,0 km/h (2 Bft) 96,23 %
12.10.2016 16:38 6,3 C 96 % 1017,5 hPa 0,2 l/m 5,5 km/h (1 Bft) W-SW 254 0 min 0,000 mm 0,0 UV-I 42 W/m 5,7 C 6,3 C 8,0 km/h (2 Bft) 95,12 %
12.10.2016 16:40 6,3 C 95 % 1017,5 hPa 0,0 l/m 5,4 km/h (1 Bft) SW 236 0 min 0,000 mm 0,0 UV-I 39 W/m 5,6 C 6,3 C 8,0 km/h (2 Bft) 98,11 %
12.10.2016 16:42 6,4 C 96 % 1017,5 hPa 0,0 l/m 7,1 km/h (2 Bft) W-SW 244 0 min 0,000 mm 0,0 UV-I 33 W/m 5,8 C 5,8 C 12,9 km/h (3 Bft) 97,73 %
12.10.2016 16:44 6,4 C 95 % 1017,5 hPa 0,0 l/m 6,4 km/h (2 Bft) SW 216 0 min 0,000 mm 0,0 UV-I 26 W/m 5,7 C 6,4 C 8,0 km/h (2 Bft) 96,00 %
12.10.2016 16:46 6,3 C 96 % 1017,5 hPa 0,0 l/m 6,1 km/h (2 Bft) SW 233 0 min 0,000 mm 0,0 UV-I 20 W/m 5,7 C 6,3 C 9,7 km/h (2 Bft) 95,74 %
12.10.2016 16:48 6,3 C 96 % 1017,5 hPa 0,2 l/m 3,2 km/h (1 Bft) SW 221 0 min 0,000 mm 0,0 UV-I 19 W/m 5,7 C 6,3 C 6,4 km/h (2 Bft) 100,00 %
12.10.2016 16:50 6,3 C 96 % 1017,4 hPa 0,0 l/m 5,4 km/h (1 Bft) S-SW 194 0 min 0,000 mm 0,0 UV-I 21 W/m 5,7 C 6,3 C 8,0 km/h (2 Bft) 100,00 %
12.10.2016 16:52 6,3 C 96 % 1017,5 hPa 0,0 l/m 5,6 km/h (1 Bft) W-SW 248 0 min 0,000 mm 0,0 UV-I 19 W/m 5,7 C 6,3 C 11,3 km/h (2 Bft) 97,37 %
12.10.2016 16:54 6,3 C 96 % 1017,5 hPa 0,0 l/m 6,6 km/h (2 Bft) W-SW 252 0 min 0,000 mm 0,0 UV-I 17 W/m 5,7 C 6,2 C 8,0 km/h (2 Bft) 98,11 %
12.10.2016 16:56 6,3 C 96 % 1017,5 hPa 0,0 l/m 5,9 km/h (2 Bft) SW 220 0 min 0,000 mm 0,0 UV-I 14 W/m 5,7 C 6,3 C 9,7 km/h (2 Bft) 100,00 %
12.10.2016 16:58 6,3 C 96 % 1017,5 hPa 0,0 l/m 5,6 km/h (1 Bft) SW 217 0 min 0,000 mm 0,0 UV-I 12 W/m 5,7 C 6,3 C 9,7 km/h (2 Bft) 95,74 %
12.10.2016 17:00 6,3 C 96 % 1017,5 hPa 0,0 l/m 5,6 km/h (1 Bft) W-SW 239 0 min 0,000 mm 0,0 UV-I 11 W/m 5,7 C 6,3 C 9,7 km/h (2 Bft) 100,00 %
12.10.2016 17:02 6,3 C 96 % 1017,5 hPa 0,0 l/m 4,5 km/h (1 Bft) W-SW 242 0 min 0,026 mm 0,0 UV-I 11 W/m 5,7 C 6,3 C 6,4 km/h (2 Bft) 100,00 %
12.10.2016 17:04 6,3 C 96 % 1017,5 hPa 0,0 l/m 5,1 km/h (1 Bft) W-SW 242 0 min 0,000 mm 0,0 UV-I 11 W/m 5,7 C 6,3 C 6,4 km/h (2 Bft) 100,00 %
12.10.2016 17:06 6,3 C 96 % 1017,5 hPa 0,0 l/m 4,6 km/h (1 Bft) SW 221 0 min 0,000 mm 0,0 UV-I 12 W/m 5,7 C 6,3 C 8,0 km/h (2 Bft) 100,00 %
12.10.2016 17:08 6,3 C 96 % 1017,5 hPa 0,0 l/m 3,7 km/h (1 Bft) SW 229 0 min 0,000 mm 0,0 UV-I 11 W/m 5,7 C 6,3 C 6,4 km/h (2 Bft) 100,00 %
12.10.2016 17:10 6,4 C 96 % 1017,5 hPa 0,0 l/m 4,3 km/h (1 Bft) W-SW 240 0 min 0,000 mm 0,0 UV-I 11 W/m 5,8 C 6,4 C 8,0 km/h (2 Bft) 100,00 %
12.10.2016 17:12 6,4 C 96 % 1017,4 hPa 0,0 l/m 5,2 km/h (1 Bft) SW 221 0 min 0,000 mm 0,0 UV-I 10 W/m 5,8 C 6,4 C 8,0 km/h (2 Bft) 100,00 %
12.10.2016 17:14 6,3 C 96 % 1017,5 hPa 0,0 l/m 4,4 km/h (1 Bft) SW 226 0 min 0,000 mm 0,0 UV-I 9 W/m 5,7 C 6,3 C 8,0 km/h (2 Bft) 100,00 %
12.10.2016 17:16 6,3 C 96 % 1017,5 hPa 0,0 l/m 4,5 km/h (1 Bft) SW 218 0 min 0,000 mm 0,0 UV-I 7 W/m 5,7 C 6,3 C 6,4 km/h (2 Bft) 100,00 %
12.10.2016 17:18 6,3 C 96 % 1017,5 hPa 0,0 l/m 4,6 km/h (1 Bft) SW 231 0 min 0,000 mm 0,0 UV-I 7 W/m 5,7 C 6,3 C 6,4 km/h (2 Bft) 97,87 %
12.10.2016 17:20 6,3 C 96 % 1017,4 hPa 0,0 l/m 4,7 km/h (1 Bft) SW 218 0 min 0,000 mm 0,0 UV-I 8 W/m 5,7 C 6,3 C 6,4 km/h (2 Bft) 98,11 %
12.10.2016 17:22 6,3 C 96 % 1017,4 hPa 0,0 l/m 5,0 km/h (1 Bft) S-SW 211 0 min 0,000 mm 0,0 UV-I 9 W/m 5,7 C 6,3 C 8,0 km/h (2 Bft) 100,00 %
12.10.2016 17:24 6,3 C 96 % 1017,4 hPa 0,0 l/m 3,5 km/h (1 Bft) SW 223 0 min 0,000 mm 0,0 UV-I 8 W/m 5,7 C 6,3 C 6,4 km/h (2 Bft) 100,00 %
12.10.2016 17:26 6,3 C 96 % 1017,4 hPa 0,0 l/m 2,0 km/h (1 Bft) SW 223 0 min 0,000 mm 0,0 UV-I 7 W/m 5,7 C 6,3 C 4,8 km/h (1 Bft) 100,00 %
12.10.2016 17:28 6,3 C 96 % 1017,4 hPa 0,0 l/m 2,9 km/h (1 Bft) SW 217 0 min 0,000 mm 0,0 UV-I 7 W/m 5,7 C 6,3 C 4,8 km/h (1 Bft) 97,87 %
12.10.2016 17:30 6,3 C 96 % 1017,4 hPa 0,0 l/m 4,4 km/h (1 Bft) SW 215 0 min 0,000 mm 0,0 UV-I 7 W/m 5,7 C 6,3 C 6,4 km/h (2 Bft) 100,00 %
12.10.2016 17:32 6,3 C 96 % 1017,4 hPa 0,0 l/m 4,9 km/h (1 Bft) SW 218 0 min 0,000 mm 0,0 UV-I 7 W/m 5,7 C 6,3 C 8,0 km/h (2 Bft) 97,37 %
12.10.2016 17:34 6,3 C 96 % 1017,4 hPa 0,0 l/m 4,5 km/h (1 Bft) SW 217 0 min 0,000 mm 0,0 UV-I 7 W/m 5,7 C 6,3 C 6,4 km/h (2 Bft) 98,00 %
12.10.2016 17:36 6,3 C 96 % 1017,4 hPa 0,0 l/m 4,6 km/h (1 Bft) SW 217 0 min 0,000 mm 0,0 UV-I 7 W/m 5,7 C 6,3 C 6,4 km/h (2 Bft) 100,00 %
12.10.2016 17:38 6,3 C 96 % 1017,4 hPa 0,0 l/m 5,0 km/h (1 Bft) SW 235 0 min 0,000 mm 0,0 UV-I 7 W/m 5,7 C 6,3 C 6,4 km/h (2 Bft) 97,56 %
12.10.2016 17:40 6,3 C 96 % 1017,5 hPa 0,0 l/m 3,5 km/h (1 Bft) S-SW 204 0 min 0,000 mm 0,0 UV-I 7 W/m 5,7 C 6,3 C 4,8 km/h (1 Bft) 100,00 %
12.10.2016 17:42 6,3 C 96 % 1017,5 hPa 0,0 l/m 4,9 km/h (1 Bft) SW 236 0 min 0,000 mm 0,0 UV-I 6 W/m 5,7 C 6,3 C 8,0 km/h (2 Bft) 100,00 %
12.10.2016 17:44 6,3 C 96 % 1017,5 hPa 0,0 l/m 5,0 km/h (1 Bft) SW 227 0 min 0,000 mm 0,0 UV-I 5 W/m 5,7 C 6,3 C 6,4 km/h (2 Bft) 100,00 %
12.10.2016 17:46 6,3 C 96 % 1017,5 hPa 0,0 l/m 5,4 km/h (1 Bft) W-SW 238 0 min 0,000 mm 0,0 UV-I 5 W/m 5,7 C 6,3 C 8,0 km/h (2 Bft) 100,00 %
12.10.2016 17:48 6,3 C 96 % 1017,5 hPa 0,2 l/m 4,6 km/h (1 Bft) SW 230 0 min 0,000 mm 0,0 UV-I 5 W/m 5,7 C 6,3 C 6,4 km/h (2 Bft) 100,00 %
12.10.2016 17:50 6,3 C 96 % 1017,5 hPa 0,0 l/m 4,5 km/h (1 Bft) W-SW 248 0 min 0,000 mm 0,0 UV-I 5 W/m 5,7 C 6,3 C 8,0 km/h (2 Bft) 100,00 %
12.10.2016 17:52 6,3 C 96 % 1017,6 hPa 0,0 l/m 4,3 km/h (1 Bft) W-SW 251 0 min 0,000 mm 0,0 UV-I 5 W/m 5,7 C 6,3 C 6,4 km/h (2 Bft) 100,00 %
12.10.2016 17:54 6,3 C 96 % 1017,6 hPa 0,0 l/m 3,1 km/h (1 Bft) W-SW 252 0 min 0,000 mm 0,0 UV-I 5 W/m 5,7 C 6,3 C 4,8 km/h (1 Bft) 100,00 %
12.10.2016 17:56 6,3 C 96 % 1017,6 hPa 0,0 l/m 3,4 km/h (1 Bft) W 268 0 min 0,000 mm 0,0 UV-I 5 W/m 5,7 C 6,3 C 4,8 km/h (1 Bft) 100,00 %
12.10.2016 17:58 6,3 C 96 % 1017,6 hPa 0,0 l/m 4,2 km/h (1 Bft) W-SW 244 0 min 0,000 mm 0,0 UV-I 3 W/m 5,7 C 6,3 C 6,4 km/h (2 Bft) 100,00 %
12.10.2016 18:00 6,3 C 96 % 1017,6 hPa 0,0 l/m 2,9 km/h (1 Bft) W-SW 245 0 min 0,000 mm 0,0 UV-I 0 W/m 5,7 C 6,3 C 6,4 km/h (2 Bft) 100,00 %
12.10.2016 18:02 6,3 C 96 % 1017,7 hPa 0,0 l/m 1,2 km/h (1 Bft) W-SW 245 0 min 0,000 mm 0,0 UV-I 0 W/m 5,7 C 6,3 C 3,2 km/h (1 Bft) 97,87 %
12.10.2016 18:04 6,3 C 96 % 1017,6 hPa 0,0 l/m 0,1 km/h (0 Bft) W-SW 245 0 min 0,000 mm 0,0 UV-I 0 W/m 5,7 C 6,3 C 1,6 km/h (1 Bft) 100,00 %
12.10.2016 18:06 6,3 C 96 % 1017,6 hPa 0,0 l/m 1,2 km/h (1 Bft) W 259 0 min 0,000 mm 0,0 UV-I 0 W/m 5,7 C 6,3 C 4,8 km/h (1 Bft) 100,00 %
12.10.2016 18:08 6,3 C 96 % 1017,6 hPa 0,0 l/m 1,4 km/h (1 Bft) W 259 0 min 0,000 mm 0,0 UV-I 0 W/m 5,7 C 6,3 C 3,2 km/h (1 Bft) 95,56 %
12.10.2016 18:10 6,3 C 96 % 1017,7 hPa 0,0 l/m 0,5 km/h (0 Bft) W 259 0 min 0,000 mm 0,0 UV-I 0 W/m 5,7 C 6,3 C 1,6 km/h (1 Bft) 97,87 %
12.10.2016 18:12 6,3 C 96 % 1017,7 hPa 0,0 l/m 0,0 km/h (0 Bft) W 259 0 min 0,000 mm 0,0 UV-I 0 W/m 5,7 C 6,3 C 0,0 km/h (0 Bft) 97,87 %
12.10.2016 18:14 6,3 C 96 % 1017,7 hPa 0,0 l/m 0,0 km/h (0 Bft) W 259 0 min 0,000 mm 0,0 UV-I 0 W/m 5,7 C 6,3 C 1,6 km/h (1 Bft) 95,74 %
12.10.2016 18:16 6,3 C 96 % 1017,7 hPa 0,0 l/m 0,2 km/h (0 Bft) W 259 0 min 0,000 mm 0,0 UV-I 0 W/m 5,7 C 6,3 C 1,6 km/h (1 Bft) 98,00 %
12.10.2016 18:18 6,2 C 96 % 1017,7 hPa 0,0 l/m 0,4 km/h (0 Bft) W 259 0 min 0,000 mm 0,0 UV-I 0 W/m 5,6 C 6,2 C 1,6 km/h (1 Bft) 94,74 %
12.10.2016 18:20 6,3 C 96 % 1017,7 hPa 0,0 l/m 1,7 km/h (1 Bft) W 259 0 min 0,000 mm 0,0 UV-I 0 W/m 5,7 C 6,3 C 3,2 km/h (1 Bft) 97,87 %
12.10.2016 18:22 6,3 C 96 % 1017,7 hPa 0,0 l/m 3,3 km/h (1 Bft) W-SW 250 0 min 0,000 mm 0,0 UV-I 0 W/m 5,7 C 6,3 C 6,4 km/h (2 Bft) 98,00 %
12.10.2016 18:24 6,2 C 96 % 1017,7 hPa 0,0 l/m 3,4 km/h (1 Bft) W-SW 241 0 min 0,000 mm 0,0 UV-I 0 W/m 5,6 C 6,2 C 6,4 km/h (2 Bft) 92,31 %
12.10.2016 18:26 6,2 C 96 % 1017,7 hPa 0,0 l/m 2,3 km/h (1 Bft) W-SW 242 0 min 0,000 mm 0,0 UV-I 0 W/m 5,6 C 6,2 C 4,8 km/h (1 Bft) 98,39 %
12.10.2016 18:28 6,2 C 96 % 1017,7 hPa 0,0 l/m 3,0 km/h (1 Bft) W-SW 242 0 min 0,000 mm 0,0 UV-I 0 W/m 5,6 C 6,2 C 4,8 km/h (1 Bft) 98,00 %
12.10.2016 18:30 6,3 C 96 % 1017,7 hPa 0,0 l/m 2,7 km/h (1 Bft) W-SW 242 0 min 0,000 mm 0,0 UV-I 0 W/m 5,7 C 6,3 C 3,2 km/h (1 Bft) 96,23 %
12.10.2016 18:32 6,3 C 96 % 1017,8 hPa 0,0 l/m 2,2 km/h (1 Bft) W-SW 242 0 min 0,000 mm 0,0 UV-I 0 W/m 5,7 C 6,3 C 3,2 km/h (1 Bft) 100,00 %
12.10.2016 18:34 6,3 C 96 % 1017,8 hPa 0,0 l/m 3,9 km/h (1 Bft) SW 234 0 min 0,000 mm 0,0 UV-I 0 W/m 5,7 C 6,3 C 6,4 km/h (2 Bft) 93,62 %
12.10.2016 18:36 6,3 C 96 % 1017,8 hPa 0,0 l/m 4,2 km/h (1 Bft) SW 234 0 min 0,000 mm 0,0 UV-I 0 W/m 5,7 C 6,3 C 6,4 km/h (2 Bft) 98,11 %
12.10.2016 18:38 6,3 C 96 % 1017,9 hPa 0,0 l/m 4,4 km/h (1 Bft) SW 233 0 min 0,000 mm 0,0 UV-I 0 W/m 5,7 C 6,3 C 6,4 km/h (2 Bft) 97,87 %
12.10.2016 18:40 6,3 C 96 % 1017,9 hPa 0,0 l/m 3,5 km/h (1 Bft) SW 236 0 min 0,000 mm 0,0 UV-I 0 W/m 5,7 C 6,3 C 6,4 km/h (2 Bft) 95,74 %
12.10.2016 18:42 6,3 C 96 % 1017,9 hPa 0,0 l/m 2,3 km/h (1 Bft) SW 236 0 min 0,000 mm 0,0 UV-I 0 W/m 5,7 C 6,3 C 3,2 km/h (1 Bft) 98,00 %
12.10.2016 18:44 6,3 C 96 % 1017,9 hPa 0,0 l/m 1,4 km/h (1 Bft) SW 236 0 min 0,000 mm 0,0 UV-I 0 W/m 5,7 C 6,3 C 3,2 km/h (1 Bft) 97,87 %
12.10.2016 18:46 6,3 C 96 % 1018,0 hPa 0,0 l/m 1,8 km/h (1 Bft) SW 236 0 min 0,000 mm 0,0 UV-I 0 W/m 5,7 C 6,3 C 3,2 km/h (1 Bft) 100,00 %
12.10.2016 18:48 6,3 C 96 % 1018,0 hPa 0,0 l/m 0,5 km/h (0 Bft) SW 236 0 min 0,000 mm 0,0 UV-I 0 W/m 5,7 C 6,3 C 1,6 km/h (1 Bft) 100,00 %
12.10.2016 18:50 6,3 C 96 % 1018,0 hPa 0,0 l/m 1,4 km/h (1 Bft) SW 236 0 min 0,000 mm 0,0 UV-I 0 W/m 5,7 C 6,3 C 3,2 km/h (1 Bft) 98,11 %
12.10.2016 18:52 6,3 C 96 % 1018,0 hPa 0,0 l/m 1,0 km/h (0 Bft) SW 236 0 min 0,000 mm 0,0 UV-I 0 W/m 5,7 C 6,3 C 3,2 km/h (1 Bft) 100,00 %
12.10.2016 18:54 6,3 C 96 % 1018,0 hPa 0,0 l/m 1,2 km/h (1 Bft) SW 236 0 min 0,000 mm 0,0 UV-I 0 W/m 5,7 C 6,3 C 3,2 km/h (1 Bft) 100,00 %
12.10.2016 18:56 6,3 C 96 % 1018,0 hPa 0,0 l/m 2,7 km/h (1 Bft) SW 236 0 min 0,000 mm 0,0 UV-I 0 W/m 5,7 C 6,3 C 4,8 km/h (1 Bft) 100,00 %
12.10.2016 18:58 6,3 C 96 % 1018,0 hPa 0,0 l/m 3,0 km/h (1 Bft) SW 236 0 min 0,000 mm 0,0 UV-I 0 W/m 5,7 C 6,3 C 4,8 km/h (1 Bft) 100,00 %
12.10.2016 19:00 6,3 C 96 % 1018,0 hPa 0,0 l/m 2,4 km/h (1 Bft) SW 236 0 min 0,000 mm 0,0 UV-I 0 W/m 5,7 C 6,3 C 3,2 km/h (1 Bft) 100,00 %
12.10.2016 19:02 6,3 C 96 % 1018,0 hPa 0,0 l/m 3,0 km/h (1 Bft) SW 236 0 min 0,000 mm 0,0 UV-I 0 W/m 5,7 C 6,3 C 4,8 km/h (1 Bft) 100,00 %
12.10.2016 19:04 6,3 C 96 % 1018,1 hPa 0,0 l/m 3,1 km/h (1 Bft) SW 236 0 min 0,000 mm 0,0 UV-I 0 W/m 5,7 C 6,3 C 4,8 km/h (1 Bft) 100,00 %
12.10.2016 19:06 6,3 C 96 % 1018,1 hPa 0,0 l/m 2,9 km/h (1 Bft) SW 236 0 min 0,000 mm 0,0 UV-I 0 W/m 5,7 C 6,3 C 4,8 km/h (1 Bft) 100,00 %
12.10.2016 19:08 6,3 C 96 % 1018,2 hPa 0,0 l/m 2,8 km/h (1 Bft) SW 236 0 min 0,000 mm 0,0 UV-I 0 W/m 5,7 C 6,3 C 4,8 km/h (1 Bft) 100,00 %
12.10.2016 19:10 6,2 C 96 % 1018,2 hPa 0,0 l/m 3,4 km/h (1 Bft) SW 236 0 min 0,000 mm 0,0 UV-I 0 W/m 5,6 C 6,2 C 4,8 km/h (1 Bft) 100,00 %
12.10.2016 19:12 6,2 C 96 % 1018,2 hPa 0,0 l/m 3,1 km/h (1 Bft) SW 234 0 min 0,000 mm 0,0 UV-I 0 W/m 5,6 C 6,2 C 4,8 km/h (1 Bft) 97,37 %
12.10.2016 19:14 6,2 C 96 % 1018,2 hPa 0,0 l/m 3,3 km/h (1 Bft) SW 215 0 min 0,000 mm 0,0 UV-I 0 W/m 5,6 C 6,2 C 4,8 km/h (1 Bft) 98,00 %
12.10.2016 19:16 6,3 C 96 % 1018,2 hPa 0,0 l/m 3,4 km/h (1 Bft) SW 215 0 min 0,000 mm 0,0 UV-I 0 W/m 5,7 C 6,3 C 4,8 km/h (1 Bft) 100,00 %
12.10.2016 19:18 6,3 C 96 % 1018,2 hPa 0,0 l/m 3,3 km/h (1 Bft) SW 215 0 min 0,000 mm 0,0 UV-I 0 W/m 5,7 C 6,3 C 4,8 km/h (1 Bft) 100,00 %
12.10.2016 19:20 6,3 C 96 % 1018,3 hPa 0,0 l/m 3,0 km/h (1 Bft) SW 215 0 min 0,000 mm 0,0 UV-I 0 W/m 5,7 C 6,3 C 4,8 km/h (1 Bft) 100,00 %
12.10.2016 19:22 6,3 C 96 % 1018,2 hPa 0,0 l/m 2,2 km/h (1 Bft) SW 215 0 min 0,000 mm 0,0 UV-I 0 W/m 5,7 C 6,3 C 3,2 km/h (1 Bft) 100,00 %
12.10.2016 19:24 6,3 C 96 % 1018,2 hPa 0,0 l/m 2,7 km/h (1 Bft) SW 215 0 min 0,000 mm 0,0 UV-I 0 W/m 5,7 C 6,3 C 4,8 km/h (1 Bft) 100,00 %
12.10.2016 19:26 6,3 C 96 % 1018,3 hPa 0,0 l/m 2,5 km/h (1 Bft) SW 215 0 min 0,000 mm 0,0 UV-I 0 W/m 5,7 C 6,3 C 3,2 km/h (1 Bft) 100,00 %
12.10.2016 19:28 6,3 C 96 % 1018,3 hPa 0,0 l/m 2,4 km/h (1 Bft) SW 215 0 min 0,000 mm 0,0 UV-I 0 W/m 5,7 C 6,3 C 3,2 km/h (1 Bft) 97,37 %
12.10.2016 19:30 6,3 C 96 % 1018,3 hPa 0,0 l/m 1,9 km/h (1 Bft) SW 215 0 min 0,000 mm 0,0 UV-I 0 W/m 5,7 C 6,3 C 3,2 km/h (1 Bft) 100,00 %
12.10.2016 19:32 6,3 C 96 % 1018,3 hPa 0,0 l/m 2,2 km/h (1 Bft) SW 215 0 min 0,000 mm 0,0 UV-I 0 W/m 5,7 C 6,3 C 3,2 km/h (1 Bft) 100,00 %
12.10.2016 19:34 6,3 C 96 % 1018,3 hPa 0,0 l/m 2,4 km/h (1 Bft) SW 215 0 min 0,000 mm 0,0 UV-I 0 W/m 5,7 C 6,3 C 3,2 km/h (1 Bft) 100,00 %
12.10.2016 19:36 6,3 C 96 % 1018,3 hPa 0,0 l/m 1,9 km/h (1 Bft) SW 215 0 min 0,000 mm 0,0 UV-I 0 W/m 5,7 C 6,3 C 3,2 km/h (1 Bft) 100,00 %
12.10.2016 19:38 6,3 C 96 % 1018,2 hPa 0,0 l/m 1,9 km/h (1 Bft) SW 215 0 min 0,000 mm 0,0 UV-I 0 W/m 5,7 C 6,3 C 3,2 km/h (1 Bft) 100,00 %
12.10.2016 19:40 6,3 C 96 % 1018,2 hPa 0,0 l/m 2,0 km/h (1 Bft) SW 215 0 min 0,000 mm 0,0 UV-I 0 W/m 5,7 C 6,3 C 3,2 km/h (1 Bft) 100,00 %
12.10.2016 19:42 6,3 C 96 % 1018,2 hPa 0,0 l/m 2,3 km/h (1 Bft) SW 215 0 min 0,000 mm 0,0 UV-I 0 W/m 5,7 C 6,3 C 3,2 km/h (1 Bft) 100,00 %
12.10.2016 19:44 6,3 C 96 % 1018,2 hPa 0,0 l/m 2,7 km/h (1 Bft) SW 215 0 min 0,000 mm 0,0 UV-I 0 W/m 5,7 C 6,3 C 4,8 km/h (1 Bft) 100,00 %
12.10.2016 19:46 6,3 C 96 % 1018,1 hPa 0,0 l/m 2,7 km/h (1 Bft) SW 215 0 min 0,000 mm 0,0 UV-I 0 W/m 5,7 C 6,3 C 3,2 km/h (1 Bft) 95,74 %
12.10.2016 19:48 6,2 C 96 % 1018,2 hPa 0,0 l/m 3,1 km/h (1 Bft) SW 215 0 min 0,000 mm 0,0 UV-I 0 W/m 5,6 C 6,2 C 4,8 km/h (1 Bft) 97,37 %
12.10.2016 19:50 6,2 C 96 % 1018,2 hPa 0,0 l/m 2,1 km/h (1 Bft) SW 215 0 min 0,000 mm 0,0 UV-I 0 W/m 5,6 C 6,2 C 3,2 km/h (1 Bft) 100,00 %
12.10.2016 19:52 6,2 C 96 % 1018,2 hPa 0,0 l/m 2,4 km/h (1 Bft) SW 215 0 min 0,000 mm 0,0 UV-I 0 W/m 5,6 C 6,2 C 3,2 km/h (1 Bft) 97,56 %
12.10.2016 19:54 6,2 C 96 % 1018,2 hPa 0,0 l/m 2,1 km/h (1 Bft) SW 215 0 min 0,000 mm 0,0 UV-I 0 W/m 5,6 C 6,2 C 3,2 km/h (1 Bft) 100,00 %
12.10.2016 19:56 6,2 C 96 % 1018,1 hPa 0,0 l/m 2,2 km/h (1 Bft) SW 215 0 min 0,000 mm 0,0 UV-I 0 W/m 5,6 C 6,2 C 4,8 km/h (1 Bft) 100,00 %
12.10.2016 19:58 6,2 C 96 % 1018,2 hPa 0,0 l/m 2,4 km/h (1 Bft) SW 215 0 min 0,000 mm 0,0 UV-I 0 W/m 5,6 C 6,2 C 3,2 km/h (1 Bft) 100,00 %
12.10.2016 20:00 6,2 C 96 % 1018,1 hPa 0,0 l/m 2,8 km/h (1 Bft) SW 215 0 min 0,000 mm 0,0 UV-I 0 W/m 5,6 C 6,2 C 4,8 km/h (1 Bft) 100,00 %
12.10.2016 20:02 6,2 C 96 % 1018,1 hPa 0,0 l/m 4,8 km/h (1 Bft) SW 215 0 min 0,000 mm 0,0 UV-I 0 W/m 5,6 C 6,2 C 6,4 km/h (2 Bft) 100,00 %
12.10.2016 20:04 6,2 C 97 % 1018,2 hPa 0,0 l/m 3,5 km/h (1 Bft) SW 215 0 min 0,000 mm 0,0 UV-I 0 W/m 5,8 C 6,2 C 6,4 km/h (2 Bft) 98,11 %
12.10.2016 20:06 6,2 C 97 % 1018,2 hPa 0,0 l/m 3,7 km/h (1 Bft) SW 215 0 min 0,000 mm 0,0 UV-I 0 W/m 5,8 C 6,2 C 6,4 km/h (2 Bft) 100,00 %
12.10.2016 20:08 6,1 C 96 % 1018,2 hPa 0,0 l/m 3,0 km/h (1 Bft) SW 215 0 min 0,000 mm 0,0 UV-I 0 W/m 5,5 C 6,1 C 4,8 km/h (1 Bft) 100,00 %
12.10.2016 20:10 6,1 C 97 % 1018,2 hPa 0,0 l/m 3,0 km/h (1 Bft) SW 215 0 min 0,000 mm 0,0 UV-I 0 W/m 5,7 C 6,1 C 4,8 km/h (1 Bft) 100,00 %
12.10.2016 20:12 6,2 C 97 % 1018,3 hPa 0,0 l/m 3,8 km/h (1 Bft) S-SW 213 0 min 0,000 mm 0,0 UV-I 0 W/m 5,8 C 6,2 C 6,4 km/h (2 Bft) 100,00 %
12.10.2016 20:14 6,1 C 97 % 1018,3 hPa 0,0 l/m 4,1 km/h (1 Bft) S-SW 208 0 min 0,000 mm 0,0 UV-I 0 W/m 5,7 C 6,1 C 8,0 km/h (2 Bft) 97,87 %
12.10.2016 20:16 6,1 C 97 % 1018,2 hPa 0,0 l/m 4,3 km/h (1 Bft) S-SW 200 0 min 0,000 mm 0,0 UV-I 0 W/m 5,7 C 6,1 C 6,4 km/h (2 Bft) 94,00 %
12.10.2016 20:18 6,1 C 97 % 1018,2 hPa 0,0 l/m 4,3 km/h (1 Bft) S-SW 202 0 min 0,000 mm 0,0 UV-I 0 W/m 5,7 C 6,1 C 6,4 km/h (2 Bft) 98,00 %
12.10.2016 20:20 6,2 C 97 % 1018,2 hPa 0,0 l/m 3,1 km/h (1 Bft) S 180 0 min 0,000 mm 0,0 UV-I 0 W/m 5,8 C 6,2 C 4,8 km/h (1 Bft) 97,56 %
12.10.2016 20:22 6,2 C 97 % 1018,2 hPa 0,0 l/m 4,3 km/h (1 Bft) S-SW 201 0 min 0,000 mm 0,0 UV-I 0 W/m 5,8 C 6,2 C 6,4 km/h (2 Bft) 98,21 %
12.10.2016 20:24 6,1 C 97 % 1018,1 hPa 0,0 l/m 3,3 km/h (1 Bft) S-SW 200 0 min 0,000 mm 0,0 UV-I 0 W/m 5,7 C 6,1 C 4,8 km/h (1 Bft) 97,87 %
12.10.2016 20:26 6,1 C 97 % 1018,1 hPa 0,0 l/m 4,2 km/h (1 Bft) S 176 0 min 0,000 mm 0,0 UV-I 0 W/m 5,7 C 6,1 C 8,0 km/h (2 Bft) 97,87 %
12.10.2016 20:28 6,1 C 97 % 1018,2 hPa 0,0 l/m 3,0 km/h (1 Bft) S-SW 195 0 min 0,000 mm 0,0 UV-I 0 W/m 5,7 C 6,1 C 4,8 km/h (1 Bft) 97,37 %
12.10.2016 20:30 6,1 C 97 % 1018,2 hPa 0,0 l/m 3,3 km/h (1 Bft) S-SW 213 0 min 0,000 mm 0,0 UV-I 0 W/m 5,7 C 6,1 C 4,8 km/h (1 Bft) 97,87 %
12.10.2016 20:32 6,1 C 97 % 1018,2 hPa 0,0 l/m 2,2 km/h (1 Bft) S-SW 209 0 min 0,000 mm 0,0 UV-I 0 W/m 5,7 C 6,1 C 4,8 km/h (1 Bft) 96,00 %
12.10.2016 20:34 6,1 C 97 % 1018,2 hPa 0,0 l/m 4,3 km/h (1 Bft) SW 219 0 min 0,000 mm 0,0 UV-I 0 W/m 5,7 C 6,1 C 8,0 km/h (2 Bft) 100,00 %
12.10.2016 20:36 6,1 C 97 % 1018,2 hPa 0,0 l/m 2,5 km/h (1 Bft) SW 219 0 min 0,000 mm 0,0 UV-I 0 W/m 5,7 C 6,1 C 4,8 km/h (1 Bft) 96,00 %
12.10.2016 20:38 6,1 C 97 % 1018,2 hPa 0,0 l/m 2,1 km/h (1 Bft) SW 219 0 min 0,000 mm 0,0 UV-I 0 W/m 5,7 C 6,1 C 4,8 km/h (1 Bft) 95,74 %
12.10.2016 20:40 6,1 C 97 % 1018,2 hPa 0,0 l/m 2,4 km/h (1 Bft) SW 219 0 min 0,000 mm 0,0 UV-I 0 W/m 5,7 C 6,1 C 4,8 km/h (1 Bft) 97,92 %
12.10.2016 20:42 6,1 C 97 % 1018,2 hPa 0,0 l/m 2,7 km/h (1 Bft) SW 219 0 min 0,000 mm 0,0 UV-I 0 W/m 5,7 C 6,1 C 4,8 km/h (1 Bft) 97,87 %
12.10.2016 20:44 6,1 C 97 % 1018,2 hPa 0,0 l/m 2,8 km/h (1 Bft) SW 219 0 min 0,000 mm 0,0 UV-I 0 W/m 5,7 C 6,1 C 4,8 km/h (1 Bft) 95,74 %
12.10.2016 20:46 6,1 C 97 % 1018,2 hPa 0,0 l/m 2,4 km/h (1 Bft) SW 219 0 min 0,000 mm 0,0 UV-I 0 W/m 5,7 C 6,1 C 4,8 km/h (1 Bft) 93,62 %
12.10.2016 20:48 6,1 C 97 % 1018,2 hPa 0,0 l/m 2,5 km/h (1 Bft) SW 219 0 min 0,000 mm 0,0 UV-I 0 W/m 5,7 C 6,1 C 3,2 km/h (1 Bft) 100,00 %
12.10.2016 20:50 6,1 C 97 % 1018,2 hPa 0,0 l/m 1,2 km/h (1 Bft) SW 219 0 min 0,000 mm 0,0 UV-I 0 W/m 5,7 C 6,1 C 3,2 km/h (1 Bft) 100,00 %
12.10.2016 20:52 6,1 C 97 % 1018,2 hPa 0,0 l/m 0,4 km/h (0 Bft) SW 219 0 min 0,000 mm 0,0 UV-I 0 W/m 5,7 C 6,1 C 1,6 km/h (1 Bft) 100,00 %
12.10.2016 20:54 6,1 C 97 % 1018,2 hPa 0,0 l/m 1,9 km/h (1 Bft) SW 219 0 min 0,000 mm 0,0 UV-I 0 W/m 5,7 C 6,1 C 3,2 km/h (1 Bft) 98,00 %
12.10.2016 20:56 6,1 C 97 % 1018,2 hPa 0,0 l/m 1,8 km/h (1 Bft) SW 219 0 min 0,000 mm 0,0 UV-I 0 W/m 5,7 C 6,1 C 3,2 km/h (1 Bft) 100,00 %
12.10.2016 20:58 6,1 C 97 % 1018,2 hPa 0,0 l/m 1,7 km/h (1 Bft) SW 219 0 min 0,000 mm 0,0 UV-I 0 W/m 5,7 C 6,1 C 3,2 km/h (1 Bft) 100,00 %
12.10.2016 21:00 6,1 C 97 % 1018,2 hPa 0,0 l/m 2,1 km/h (1 Bft) SW 219 0 min 0,000 mm 0,0 UV-I 0 W/m 5,7 C 6,1 C 3,2 km/h (1 Bft) 100,00 %
12.10.2016 21:03 6,0 C 97 % 1018,2 hPa 0,0 l/m 3,1 km/h (1 Bft) SW 219 0 min 0,000 mm 0,0 UV-I 0 W/m 5,6 C 6,0 C 4,8 km/h (1 Bft) 98,59 %
12.10.2016 21:04 6,0 C 97 % 1018,2 hPa 0,0 l/m 3,7 km/h (1 Bft) SW 219 0 min 0,000 mm 0,0 UV-I 0 W/m 5,6 C 6,0 C 4,8 km/h (1 Bft) 100,00 %
12.10.2016 21:06 6,0 C 97 % 1018,2 hPa 0,0 l/m 3,2 km/h (1 Bft) SW 219 0 min 0,000 mm 0,0 UV-I 0 W/m 5,6 C 6,0 C 4,8 km/h (1 Bft) 100,00 %
12.10.2016 21:08 5,9 C 97 % 1018,2 hPa 0,0 l/m 3,1 km/h (1 Bft) SW 217 0 min 0,000 mm 0,0 UV-I 0 W/m 5,5 C 5,9 C 4,8 km/h (1 Bft) 100,00 %
12.10.2016 21:10 6,0 C 97 % 1018,2 hPa 0,0 l/m 3,7 km/h (1 Bft) S-SW 208 0 min 0,000 mm 0,0 UV-I 0 W/m 5,6 C 6,0 C 6,4 km/h (2 Bft) 94,00 %
12.10.2016 21:12 5,9 C 96 % 1018,3 hPa 0,0 l/m 3,7 km/h (1 Bft) S-SW 208 0 min 0,000 mm 0,0 UV-I 0 W/m 5,3 C 5,9 C 6,4 km/h (2 Bft) 100,00 %
12.10.2016 21:14 5,9 C 96 % 1018,3 hPa 0,0 l/m 3,7 km/h (1 Bft) S-SW 208 0 min 0,000 mm 0,0 UV-I 0 W/m 5,3 C 5,9 C 6,4 km/h (2 Bft) 97,87 %
12.10.2016 21:16 5,9 C 96 % 1018,2 hPa 0,0 l/m 4,5 km/h (1 Bft) S-SW 208 0 min 0,000 mm 0,0 UV-I 0 W/m 5,3 C 5,9 C 6,4 km/h (2 Bft) 100,00 %
12.10.2016 21:18 5,9 C 96 % 1018,3 hPa 0,0 l/m 4,5 km/h (1 Bft) S-SW 208 0 min 0,000 mm 0,0 UV-I 0 W/m 5,3 C 5,9 C 6,4 km/h (2 Bft) 100,00 %
12.10.2016 21:20 5,9 C 97 % 1018,3 hPa 0,0 l/m 3,8 km/h (1 Bft) S-SW 208 0 min 0,000 mm 0,0 UV-I 0 W/m 5,5 C 5,9 C 6,4 km/h (2 Bft) 100,00 %
12.10.2016 21:22 5,9 C 97 % 1018,3 hPa 0,0 l/m 2,7 km/h (1 Bft) S-SW 209 0 min 0,000 mm 0,0 UV-I 0 W/m 5,5 C 5,9 C 4,8 km/h (1 Bft) 100,00 %
12.10.2016 21:24 5,9 C 97 % 1018,3 hPa 0,0 l/m 3,0 km/h (1 Bft) S-SW 209 0 min 0,000 mm 0,0 UV-I 0 W/m 5,5 C 5,9 C 4,8 km/h (1 Bft) 100,00 %
12.10.2016 21:26 5,9 C 97 % 1018,2 hPa 0,0 l/m 3,2 km/h (1 Bft) S-SW 209 0 min 0,000 mm 0,0 UV-I 0 W/m 5,5 C 5,9 C 4,8 km/h (1 Bft) 100,00 %
12.10.2016 21:28 5,9 C 97 % 1018,2 hPa 0,0 l/m 3,0 km/h (1 Bft) S-SW 209 0 min 0,000 mm 0,0 UV-I 0 W/m 5,5 C 5,9 C 4,8 km/h (1 Bft) 100,00 %
12.10.2016 21:30 5,9 C 97 % 1018,2 hPa 0,0 l/m 3,3 km/h (1 Bft) S-SW 209 0 min 0,000 mm 0,0 UV-I 0 W/m 5,5 C 5,9 C 4,8 km/h (1 Bft) 100,00 %
12.10.2016 21:32 5,9 C 97 % 1018,2 hPa 0,0 l/m 3,6 km/h (1 Bft) S-SW 209 0 min 0,000 mm 0,0 UV-I 0 W/m 5,5 C 5,9 C 4,8 km/h (1 Bft) 100,00 %
12.10.2016 21:34 5,9 C 97 % 1018,2 hPa 0,0 l/m 2,9 km/h (1 Bft) S-SW 209 0 min 0,000 mm 0,0 UV-I 0 W/m 5,5 C 5,9 C 4,8 km/h (1 Bft) 100,00 %
12.10.2016 21:36 5,9 C 97 % 1018,2 hPa 0,0 l/m 2,9 km/h (1 Bft) S-SW 209 0 min 0,000 mm 0,0 UV-I 0 W/m 5,5 C 5,9 C 4,8 km/h (1 Bft) 97,87 %
12.10.2016 21:38 5,8 C 97 % 1018,2 hPa 0,0 l/m 1,7 km/h (1 Bft) S-SW 209 0 min 0,000 mm 0,0 UV-I 0 W/m 5,4 C 5,8 C 3,2 km/h (1 Bft) 97,87 %
12.10.2016 21:40 5,8 C 97 % 1018,2 hPa 0,0 l/m 1,1 km/h (1 Bft) S-SW 209 0 min 0,000 mm 0,0 UV-I 0 W/m 5,4 C 5,8 C 3,2 km/h (1 Bft) 100,00 %
12.10.2016 21:42 5,8 C 97 % 1018,2 hPa 0,0 l/m 3,3 km/h (1 Bft) S-SW 209 0 min 0,000 mm 0,0 UV-I 0 W/m 5,4 C 5,8 C 4,8 km/h (1 Bft) 97,87 %
12.10.2016 21:44 5,8 C 97 % 1018,3 hPa 0,0 l/m 2,2 km/h (1 Bft) S-SW 209 0 min 0,000 mm 0,0 UV-I 0 W/m 5,4 C 5,8 C 3,2 km/h (1 Bft) 100,00 %
12.10.2016 21:46 5,8 C 97 % 1018,3 hPa 0,0 l/m 1,5 km/h (1 Bft) S-SW 209 0 min 0,000 mm 0,0 UV-I 0 W/m 5,4 C 5,8 C 3,2 km/h (1 Bft) 100,00 %
12.10.2016 21:48 5,8 C 97 % 1018,4 hPa 0,0 l/m 1,4 km/h (1 Bft) S-SW 209 0 min 0,000 mm 0,0 UV-I 0 W/m 5,4 C 5,8 C 3,2 km/h (1 Bft) 100,00 %
12.10.2016 21:50 5,8 C 97 % 1018,4 hPa 0,0 l/m 2,0 km/h (1 Bft) S-SW 209 0 min 0,000 mm 0,0 UV-I 0 W/m 5,4 C 5,8 C 3,2 km/h (1 Bft) 100,00 %
12.10.2016 21:52 5,8 C 97 % 1018,3 hPa 0,0 l/m 2,0 km/h (1 Bft) S-SW 209 0 min 0,000 mm 0,0 UV-I 0 W/m 5,4 C 5,8 C 3,2 km/h (1 Bft) 100,00 %
12.10.2016 21:54 5,8 C 97 % 1018,4 hPa 0,0 l/m 2,1 km/h (1 Bft) S-SW 209 0 min 0,000 mm 0,0 UV-I 0 W/m 5,4 C 5,8 C 3,2 km/h (1 Bft) 97,87 %
12.10.2016 21:56 5,8 C 97 % 1018,4 hPa 0,0 l/m 3,2 km/h (1 Bft) S-SW 209 0 min 0,000 mm 0,0 UV-I 0 W/m 5,4 C 5,8 C 4,8 km/h (1 Bft) 100,00 %
12.10.2016 21:58 5,8 C 97 % 1018,4 hPa 0,0 l/m 2,3 km/h (1 Bft) S-SW 209 0 min 0,000 mm 0,0 UV-I 0 W/m 5,4 C 5,8 C 3,2 km/h (1 Bft) 100,00 %
12.10.2016 22:00 5,8 C 97 % 1018,4 hPa 0,0 l/m 2,7 km/h (1 Bft) S-SW 209 0 min 0,000 mm 0,0 UV-I 0 W/m 5,4 C 5,8 C 4,8 km/h (1 Bft) 100,00 %
12.10.2016 22:03 5,8 C 97 % 1018,3 hPa 0,0 l/m 2,8 km/h (1 Bft) S-SW 209 0 min 0,000 mm 0,0 UV-I 0 W/m 5,4 C 5,8 C 4,8 km/h (1 Bft) 100,00 %
12.10.2016 22:04 5,8 C 97 % 1018,3 hPa 0,0 l/m 1,3 km/h (1 Bft) S-SW 209 0 min 0,000 mm 0,0 UV-I 0 W/m 5,4 C 5,8 C 3,2 km/h (1 Bft) 100,00 %
12.10.2016 22:06 5,8 C 97 % 1018,4 hPa 0,0 l/m 0,7 km/h (0 Bft) S-SW 209 0 min 0,000 mm 0,0 UV-I 0 W/m 5,4 C 5,8 C 3,2 km/h (1 Bft) 100,00 %
12.10.2016 22:08 5,8 C 97 % 1018,4 hPa 0,0 l/m 1,2 km/h (1 Bft) S-SW 209 0 min 0,000 mm 0,0 UV-I 0 W/m 5,4 C 5,8 C 3,2 km/h (1 Bft) 100,00 %
12.10.2016 22:10 5,8 C 97 % 1018,3 hPa 0,0 l/m 1,7 km/h (1 Bft) S-SW 209 0 min 0,000 mm 0,0 UV-I 0 W/m 5,4 C 5,8 C 4,8 km/h (1 Bft) 100,00 %
12.10.2016 22:12 5,8 C 97 % 1018,3 hPa 0,0 l/m 1,9 km/h (1 Bft) S-SW 209 0 min 0,000 mm 0,0 UV-I 0 W/m 5,4 C 5,8 C 3,2 km/h (1 Bft) 97,87 %
12.10.2016 22:14 5,8 C 97 % 1018,3 hPa 0,0 l/m 1,4 km/h (1 Bft) S-SW 205 0 min 0,000 mm 0,0 UV-I 0 W/m 5,4 C 5,8 C 3,2 km/h (1 Bft) 100,00 %
12.10.2016 22:16 5,8 C 97 % 1018,3 hPa 0,0 l/m 1,3 km/h (1 Bft) S-SW 205 0 min 0,000 mm 0,0 UV-I 0 W/m 5,4 C 5,8 C 3,2 km/h (1 Bft) 95,12 %
12.10.2016 22:18 5,8 C 97 % 1018,3 hPa 0,0 l/m 1,4 km/h (1 Bft) S-SW 205 0 min 0,000 mm 0,0 UV-I 0 W/m 5,4 C 5,8 C 3,2 km/h (1 Bft) 96,00 %
12.10.2016 22:20 5,8 C 97 % 1018,3 hPa 0,0 l/m 1,8 km/h (1 Bft) S-SW 205 0 min 0,000 mm 0,0 UV-I 0 W/m 5,4 C 5,8 C 4,8 km/h (1 Bft) 98,00 %
12.10.2016 22:22 5,8 C 97 % 1018,3 hPa 0,0 l/m 2,7 km/h (1 Bft) S-SW 202 0 min 0,000 mm 0,0 UV-I 0 W/m 5,4 C 5,8 C 3,2 km/h (1 Bft) 100,00 %
12.10.2016 22:24 5,8 C 97 % 1018,3 hPa 0,0 l/m 2,4 km/h (1 Bft) S-SW 202 0 min 0,000 mm 0,0 UV-I 0 W/m 5,4 C 5,8 C 4,8 km/h (1 Bft) 96,77 %
12.10.2016 22:26 5,8 C 97 % 1018,3 hPa 0,0 l/m 2,4 km/h (1 Bft) S-SW 202 0 min 0,000 mm 0,0 UV-I 0 W/m 5,4 C 5,8 C 4,8 km/h (1 Bft) 97,87 %
12.10.2016 22:28 5,8 C 97 % 1018,3 hPa 0,0 l/m 2,7 km/h (1 Bft) S-SW 202 0 min 0,000 mm 0,0 UV-I 0 W/m 5,4 C 5,8 C 4,8 km/h (1 Bft) 97,56 %
12.10.2016 22:30 5,9 C 97 % 1018,3 hPa 0,0 l/m 2,8 km/h (1 Bft) S-SW 202 0 min 0,000 mm 0,0 UV-I 0 W/m 5,5 C 5,9 C 4,8 km/h (1 Bft) 97,62 %
12.10.2016 22:32 5,8 C 97 % 1018,3 hPa 0,0 l/m 2,5 km/h (1 Bft) S-SW 202 0 min 0,000 mm 0,0 UV-I 0 W/m 5,4 C 5,8 C 4,8 km/h (1 Bft) 96,88 %
12.10.2016 22:34 5,8 C 97 % 1018,3 hPa 0,0 l/m 2,3 km/h (1 Bft) S-SW 202 0 min 0,000 mm 0,0 UV-I 0 W/m 5,4 C 5,8 C 3,2 km/h (1 Bft) 97,73 %
12.10.2016 22:36 5,8 C 97 % 1018,3 hPa 0,0 l/m 1,9 km/h (1 Bft) S-SW 202 0 min 0,000 mm 0,0 UV-I 0 W/m 5,4 C 5,8 C 3,2 km/h (1 Bft) 97,87 %
12.10.2016 22:38 5,8 C 97 % 1018,3 hPa 0,0 l/m 1,5 km/h (1 Bft) S-SW 202 0 min 0,000 mm 0,0 UV-I 0 W/m 5,4 C 5,8 C 3,2 km/h (1 Bft) 97,87 %
12.10.2016 22:40 5,8 C 97 % 1018,2 hPa 0,0 l/m 2,3 km/h (1 Bft) S-SW 202 0 min 0,000 mm 0,0 UV-I 0 W/m 5,4 C 5,8 C 4,8 km/h (1 Bft) 97,87 %
12.10.2016 22:42 5,8 C 97 % 1018,2 hPa 0,0 l/m 1,9 km/h (1 Bft) S-SW 202 0 min 0,000 mm 0,0 UV-I 0 W/m 5,4 C 5,8 C 3,2 km/h (1 Bft) 97,44 %
12.10.2016 22:44 5,8 C 97 % 1018,3 hPa 0,0 l/m 1,7 km/h (1 Bft) S-SW 202 0 min 0,000 mm 0,0 UV-I 0 W/m 5,4 C 5,8 C 3,2 km/h (1 Bft) 98,11 %
12.10.2016 22:46 5,8 C 97 % 1018,3 hPa 0,0 l/m 2,8 km/h (1 Bft) S-SW 202 0 min 0,000 mm 0,0 UV-I 0 W/m 5,4 C 5,8 C 4,8 km/h (1 Bft) 97,87 %
12.10.2016 22:48 5,8 C 97 % 1018,3 hPa 0,0 l/m 2,8 km/h (1 Bft) S-SW 202 0 min 0,000 mm 0,0 UV-I 0 W/m 5,4 C 5,8 C 4,8 km/h (1 Bft) 100,00 %
12.10.2016 22:50 5,8 C 97 % 1018,3 hPa 0,0 l/m 2,4 km/h (1 Bft) S-SW 202 0 min 0,000 mm 0,0 UV-I 0 W/m 5,4 C 5,8 C 3,2 km/h (1 Bft) 100,00 %
12.10.2016 22:52 5,8 C 97 % 1018,3 hPa 0,0 l/m 2,3 km/h (1 Bft) S-SW 202 0 min 0,000 mm 0,0 UV-I 0 W/m 5,4 C 5,8 C 3,2 km/h (1 Bft) 97,87 %
12.10.2016 22:54 5,8 C 97 % 1018,3 hPa 0,0 l/m 2,4 km/h (1 Bft) S-SW 202 0 min 0,000 mm 0,0 UV-I 0 W/m 5,4 C 5,8 C 4,8 km/h (1 Bft) 97,87 %
12.10.2016 22:56 5,8 C 97 % 1018,3 hPa 0,0 l/m 2,2 km/h (1 Bft) S-SW 202 0 min 0,000 mm 0,0 UV-I 0 W/m 5,4 C 5,8 C 4,8 km/h (1 Bft) 100,00 %
12.10.2016 22:58 5,8 C 97 % 1018,3 hPa 0,0 l/m 1,6 km/h (1 Bft) S-SW 202 0 min 0,000 mm 0,0 UV-I 0 W/m 5,4 C 5,8 C 3,2 km/h (1 Bft) 100,00 %
12.10.2016 23:00 5,8 C 97 % 1018,3 hPa 0,0 l/m 2,6 km/h (1 Bft) S-SW 202 0 min 0,000 mm 0,0 UV-I 0 W/m 5,4 C 5,8 C 4,8 km/h (1 Bft) 97,87 %
12.10.2016 23:02 5,7 C 97 % 1018,3 hPa 0,0 l/m 2,5 km/h (1 Bft) S-SW 202 0 min 0,000 mm 0,0 UV-I 0 W/m 5,3 C 5,7 C 4,8 km/h (1 Bft) 97,56 %
12.10.2016 23:04 5,7 C 97 % 1018,3 hPa 0,0 l/m 2,4 km/h (1 Bft) S-SW 202 0 min 0,000 mm 0,0 UV-I 0 W/m 5,3 C 5,7 C 3,2 km/h (1 Bft) 100,00 %
12.10.2016 23:06 5,7 C 97 % 1018,3 hPa 0,0 l/m 2,7 km/h (1 Bft) S-SW 202 0 min 0,000 mm 0,0 UV-I 0 W/m 5,3 C 5,7 C 4,8 km/h (1 Bft) 98,00 %
12.10.2016 23:08 5,7 C 97 % 1018,3 hPa 0,0 l/m 2,6 km/h (1 Bft) S-SW 202 0 min 0,000 mm 0,0 UV-I 0 W/m 5,3 C 5,7 C 4,8 km/h (1 Bft) 97,56 %
12.10.2016 23:10 5,7 C 97 % 1018,3 hPa 0,0 l/m 2,4 km/h (1 Bft) S-SW 202 0 min 0,000 mm 0,0 UV-I 0 W/m 5,3 C 5,7 C 4,8 km/h (1 Bft) 97,87 %
12.10.2016 23:12 5,7 C 97 % 1018,3 hPa 0,0 l/m 1,6 km/h (1 Bft) S-SW 202 0 min 0,000 mm 0,0 UV-I 0 W/m 5,3 C 5,7 C 3,2 km/h (1 Bft) 100,00 %
12.10.2016 23:14 5,7 C 97 % 1018,2 hPa 0,0 l/m 3,7 km/h (1 Bft) S-SO 165 0 min 0,000 mm 0,0 UV-I 0 W/m 5,3 C 5,7 C 6,4 km/h (2 Bft) 97,56 %
12.10.2016 23:16 5,7 C 97 % 1018,2 hPa 0,0 l/m 3,4 km/h (1 Bft) S-SO 165 0 min 0,000 mm 0,0 UV-I 0 W/m 5,3 C 5,7 C 6,4 km/h (2 Bft) 100,00 %
12.10.2016 23:18 5,7 C 97 % 1018,2 hPa 0,0 l/m 2,2 km/h (1 Bft) S-SO 165 0 min 0,000 mm 0,0 UV-I 0 W/m 5,3 C 5,7 C 6,4 km/h (2 Bft) 100,00 %
12.10.2016 23:20 5,7 C 97 % 1018,2 hPa 0,0 l/m 2,6 km/h (1 Bft) S-SO 165 0 min 0,000 mm 0,0 UV-I 0 W/m 5,3 C 5,7 C 3,2 km/h (1 Bft) 98,00 %
12.10.2016 23:22 5,7 C 97 % 1018,2 hPa 0,0 l/m 2,1 km/h (1 Bft) S-SO 165 0 min 0,000 mm 0,0 UV-I 0 W/m 5,3 C 5,7 C 6,4 km/h (2 Bft) 100,00 %
12.10.2016 23:24 5,7 C 97 % 1018,2 hPa 0,0 l/m 2,2 km/h (1 Bft) S-SO 165 0 min 0,000 mm 0,0 UV-I 0 W/m 5,3 C 5,7 C 3,2 km/h (1 Bft) 97,87 %
12.10.2016 23:26 5,7 C 97 % 1018,2 hPa 0,0 l/m 2,4 km/h (1 Bft) S-SO 165 0 min 0,000 mm 0,0 UV-I 0 W/m 5,3 C 5,7 C 6,4 km/h (2 Bft) 100,00 %
12.10.2016 23:28 5,7 C 97 % 1018,2 hPa 0,0 l/m 2,7 km/h (1 Bft) S-SO 165 0 min 0,000 mm 0,0 UV-I 0 W/m 5,3 C 5,7 C 6,4 km/h (2 Bft) 97,14 %
12.10.2016 23:30 5,7 C 97 % 1018,2 hPa 0,0 l/m 1,6 km/h (1 Bft) S-SO 165 0 min 0,000 mm 0,0 UV-I 0 W/m 5,3 C 5,7 C 3,2 km/h (1 Bft) 100,00 %
12.10.2016 23:32 5,7 C 97 % 1018,2 hPa 0,0 l/m 1,7 km/h (1 Bft) S-SO 165 0 min 0,000 mm 0,0 UV-I 0 W/m 5,3 C 5,7 C 6,4 km/h (2 Bft) 100,00 %
12.10.2016 23:34 5,7 C 97 % 1018,2 hPa 0,0 l/m 1,4 km/h (1 Bft) S-SO 165 0 min 0,000 mm 0,0 UV-I 0 W/m 5,3 C 5,7 C 3,2 km/h (1 Bft) 97,37 %
12.10.2016 23:36 5,7 C 97 % 1018,2 hPa 0,0 l/m 1,8 km/h (1 Bft) S-SO 165 0 min 0,000 mm 0,0 UV-I 0 W/m 5,3 C 5,7 C 3,2 km/h (1 Bft) 100,00 %
12.10.2016 23:38 5,7 C 97 % 1018,2 hPa 0,0 l/m 1,8 km/h (1 Bft) S-SO 165 0 min 0,000 mm 0,0 UV-I 0 W/m 5,3 C 5,7 C 3,2 km/h (1 Bft) 100,00 %
12.10.2016 23:40 5,7 C 97 % 1018,2 hPa 0,0 l/m 2,1 km/h (1 Bft) S-SO 165 0 min 0,000 mm 0,0 UV-I 0 W/m 5,3 C 5,7 C 3,2 km/h (1 Bft) 100,00 %
12.10.2016 23:42 5,7 C 97 % 1018,2 hPa 0,0 l/m 2,6 km/h (1 Bft) S-SO 165 0 min 0,000 mm 0,0 UV-I 0 W/m 5,3 C 5,7 C 6,4 km/h (2 Bft) 100,00 %
12.10.2016 23:44 5,7 C 97 % 1018,1 hPa 0,0 l/m 2,4 km/h (1 Bft) S-SO 165 0 min 0,000 mm 0,0 UV-I 0 W/m 5,3 C 5,7 C 6,4 km/h (2 Bft) 100,00 %
12.10.2016 23:46 5,7 C 97 % 1018,1 hPa 0,0 l/m 2,0 km/h (1 Bft) S-SO 165 0 min 0,000 mm 0,0 UV-I 0 W/m 5,3 C 5,7 C 3,2 km/h (1 Bft) 100,00 %
12.10.2016 23:48 5,7 C 97 % 1018,1 hPa 0,0 l/m 2,1 km/h (1 Bft) S-SO 165 0 min 0,000 mm 0,0 UV-I 0 W/m 5,3 C 5,7 C 3,2 km/h (1 Bft) 100,00 %
12.10.2016 23:50 5,7 C 97 % 1018,1 hPa 0,0 l/m 1,2 km/h (1 Bft) S-SO 165 0 min 0,000 mm 0,0 UV-I 0 W/m 5,3 C 5,7 C 3,2 km/h (1 Bft) 100,00 %
12.10.2016 23:52 5,6 C 97 % 1018,1 hPa 0,0 l/m 1,2 km/h (1 Bft) S-SO 165 0 min 0,000 mm 0,0 UV-I 0 W/m 5,2 C 5,6 C 3,2 km/h (1 Bft) 100,00 %
12.10.2016 23:54 5,6 C 97 % 1018,0 hPa 0,0 l/m 0,4 km/h (0 Bft) S-SO 165 0 min 0,000 mm 0,0 UV-I 0 W/m 5,2 C 5,6 C 1,6 km/h (1 Bft) 100,00 %
12.10.2016 23:56 5,6 C 97 % 1018,0 hPa 0,0 l/m 1,1 km/h (1 Bft) S-SO 165 0 min 0,000 mm 0,0 UV-I 0 W/m 5,2 C 5,6 C 3,2 km/h (1 Bft) 100,00 %
12.10.2016 23:58 5,6 C 97 % 1018,0 hPa 0,0 l/m 1,4 km/h (1 Bft) S-SO 165 0 min 0,000 mm 0,0 UV-I 0 W/m 5,2 C 5,6 C 3,2 km/h (1 Bft) 100,00 %
_ Min-Zeit 02:40 15:32 04:42 - 18:12 - - - - - - 03:00 07:02 18:12 16:20
Minimum _ 4,6 C 94 % 1014,8 hPa - 0,0 km/h (0 Bft) - - - - - - 4,0 C -2,2 C 0,0 km/h (0 Bft) 91,49 %
_ Max-Zeit 15:26 02:02 21:48 00:52 07:02 - - 00:00 12:00 11:20 10:10 13:26 13:26 07:02 00:38
Maximum _ 6,6 C 97 % 1018,4 hPa 0,2 l/m 16,9 km/h
W-SW (3 Bft)
- - 0 min 0,051 mm 0,6 UV-I 171 W/m 5,9 C 6,5 C 24,1 km/h
SW (4 Bft)
100,00 %
Durchschnitt _ 5,5 C 96 % 1016,6 hPa #14,0 l/m 7,1 km/h (2 Bft) SW - #0 min. #0,229 mm 0,5 UV-I 50 W/m 4,9 C 4,0 C 11,3 km/h (2 Bft) 98,65 %